<?xml version="1.0" encoding="UTF-8"?>
<gpx xmlns="http://www.topografix.com/GPX/1/1" xmlns:xsi="http://www.w3.org/2001/XMLSchema-instance" version="1.1" creator="Trace de Trail" xsi:schemaLocation="http://www.topografix.com/GPX/1/1 http://www.topografix.com/GPX/1/1/gpx.xsd">
  <metadata>
    <name>Trail de Dinant Winter  2026 - 42KM</name>
    <desc>Parcours créé sur Trace de Trail</desc>
    <link href="https://tracedetrail.fr/fr/trace/356990">
      <text>Cartographie du parcours</text>
    </link>
    <time>2026-08-25T10:48:14+00:00</time>
  </metadata>
  <wpt lat="50.25887" lon="4.90729">
    <ele>145</ele>
    <type>depart</type>
  </wpt>
  <wpt lat="50.23589" lon="4.93806">
    <ele>248</ele>
    <name>Ravito 1 : Salle des fêtes Dréhance</name>
    <type>acces_ravitoc_ravitoliquide_toilettes</type>
  </wpt>
  <wpt lat="50.21033" lon="4.96402">
    <ele>104</ele>
    <name>Ravito 2 : O bord de Lesse - Gendron</name>
    <type>fanzone_ravitoc_ravitoliquide_toilettes</type>
  </wpt>
  <wpt lat="50.20648" lon="4.90204">
    <ele>199</ele>
    <name>Ravito 3 : Salle "Les échos de la Lesse" Falmignoul</name>
    <type>fanzone_ravitoc_ravitoliquide_toilettes</type>
  </wpt>
  <wpt lat="50.25887" lon="4.90729">
    <ele>145</ele>
    <type>arrivee</type>
  </wpt>
  <trk>
    <name>Trail de Dinant Winter  2026 - 42KM sur TraceDeTrail.fr</name>
    <src>Trace de Trail</src>
    <trkseg>
      <trkpt lat="50.25887" lon="4.90729">
        <ele>145</ele>
        <time>2026-08-25T10:48:14+00:00</time>
      </trkpt>
      <trkpt lat="50.25896" lon="4.90722">
        <ele>143</ele>
        <time>2026-08-25T10:48:17+00:00</time>
      </trkpt>
      <trkpt lat="50.2592" lon="4.90711">
        <ele>141</ele>
        <time>2026-08-25T10:48:20+00:00</time>
      </trkpt>
      <trkpt lat="50.25945" lon="4.90699">
        <ele>141</ele>
        <time>2026-08-25T10:48:23+00:00</time>
      </trkpt>
      <trkpt lat="50.25969" lon="4.90688">
        <ele>141</ele>
        <time>2026-08-25T10:48:26+00:00</time>
      </trkpt>
      <trkpt lat="50.25987" lon="4.90684">
        <ele>142</ele>
        <time>2026-08-25T10:48:29+00:00</time>
      </trkpt>
      <trkpt lat="50.26011" lon="4.9067">
        <ele>141</ele>
        <time>2026-08-25T10:48:32+00:00</time>
      </trkpt>
      <trkpt lat="50.26044" lon="4.9065">
        <ele>141</ele>
        <time>2026-08-25T10:48:35+00:00</time>
      </trkpt>
      <trkpt lat="50.26057" lon="4.90644">
        <ele>147</ele>
        <time>2026-08-25T10:48:38+00:00</time>
      </trkpt>
      <trkpt lat="50.26074" lon="4.90658">
        <ele>133</ele>
        <time>2026-08-25T10:48:41+00:00</time>
      </trkpt>
      <trkpt lat="50.26069" lon="4.90665">
        <ele>127</ele>
        <time>2026-08-25T10:48:44+00:00</time>
      </trkpt>
      <trkpt lat="50.26056" lon="4.907">
        <ele>124</ele>
        <time>2026-08-25T10:48:47+00:00</time>
      </trkpt>
      <trkpt lat="50.26049" lon="4.90729">
        <ele>123</ele>
        <time>2026-08-25T10:48:50+00:00</time>
      </trkpt>
      <trkpt lat="50.26044" lon="4.90768">
        <ele>116</ele>
        <time>2026-08-25T10:48:53+00:00</time>
      </trkpt>
      <trkpt lat="50.26039" lon="4.90785">
        <ele>115</ele>
        <time>2026-08-25T10:48:56+00:00</time>
      </trkpt>
      <trkpt lat="50.2603" lon="4.90803">
        <ele>112</ele>
        <time>2026-08-25T10:48:59+00:00</time>
      </trkpt>
      <trkpt lat="50.26004" lon="4.90844">
        <ele>113</ele>
        <time>2026-08-25T10:49:02+00:00</time>
      </trkpt>
      <trkpt lat="50.25976" lon="4.90878">
        <ele>112</ele>
        <time>2026-08-25T10:49:05+00:00</time>
      </trkpt>
      <trkpt lat="50.25959" lon="4.90898">
        <ele>112</ele>
        <time>2026-08-25T10:49:08+00:00</time>
      </trkpt>
      <trkpt lat="50.25941" lon="4.90919">
        <ele>108</ele>
        <time>2026-08-25T10:49:11+00:00</time>
      </trkpt>
      <trkpt lat="50.2592" lon="4.90949">
        <ele>104</ele>
        <time>2026-08-25T10:49:14+00:00</time>
      </trkpt>
      <trkpt lat="50.25922" lon="4.90951">
        <ele>99</ele>
        <time>2026-08-25T10:49:17+00:00</time>
      </trkpt>
      <trkpt lat="50.25911" lon="4.90966">
        <ele>97</ele>
        <time>2026-08-25T10:49:20+00:00</time>
      </trkpt>
      <trkpt lat="50.25913" lon="4.90968">
        <ele>97</ele>
        <time>2026-08-25T10:49:23+00:00</time>
      </trkpt>
      <trkpt lat="50.25922" lon="4.9096">
        <ele>97</ele>
        <time>2026-08-25T10:49:26+00:00</time>
      </trkpt>
      <trkpt lat="50.25927" lon="4.90972">
        <ele>97</ele>
        <time>2026-08-25T10:49:29+00:00</time>
      </trkpt>
      <trkpt lat="50.2593" lon="4.90976">
        <ele>96</ele>
        <time>2026-08-25T10:49:32+00:00</time>
      </trkpt>
      <trkpt lat="50.25933" lon="4.90977">
        <ele>97</ele>
        <time>2026-08-25T10:49:35+00:00</time>
      </trkpt>
      <trkpt lat="50.2596" lon="4.90981">
        <ele>97</ele>
        <time>2026-08-25T10:49:38+00:00</time>
      </trkpt>
      <trkpt lat="50.25986" lon="4.90983">
        <ele>96</ele>
        <time>2026-08-25T10:49:41+00:00</time>
      </trkpt>
      <trkpt lat="50.25996" lon="4.90992">
        <ele>95</ele>
        <time>2026-08-25T10:49:44+00:00</time>
      </trkpt>
      <trkpt lat="50.26002" lon="4.90991">
        <ele>95</ele>
        <time>2026-08-25T10:49:47+00:00</time>
      </trkpt>
      <trkpt lat="50.26004" lon="4.90997">
        <ele>95</ele>
        <time>2026-08-25T10:49:50+00:00</time>
      </trkpt>
      <trkpt lat="50.26006" lon="4.90998">
        <ele>95</ele>
        <time>2026-08-25T10:49:53+00:00</time>
      </trkpt>
      <trkpt lat="50.2601" lon="4.90998">
        <ele>95</ele>
        <time>2026-08-25T10:49:56+00:00</time>
      </trkpt>
      <trkpt lat="50.26011" lon="4.91006">
        <ele>95</ele>
        <time>2026-08-25T10:49:59+00:00</time>
      </trkpt>
      <trkpt lat="50.26016" lon="4.91026">
        <ele>94</ele>
        <time>2026-08-25T10:50:02+00:00</time>
      </trkpt>
      <trkpt lat="50.26021" lon="4.91047">
        <ele>94</ele>
        <time>2026-08-25T10:50:05+00:00</time>
      </trkpt>
      <trkpt lat="50.26029" lon="4.9109">
        <ele>92</ele>
        <time>2026-08-25T10:50:08+00:00</time>
      </trkpt>
      <trkpt lat="50.26045" lon="4.91174">
        <ele>92</ele>
        <time>2026-08-25T10:50:11+00:00</time>
      </trkpt>
      <trkpt lat="50.26051" lon="4.91198">
        <ele>92</ele>
        <time>2026-08-25T10:50:14+00:00</time>
      </trkpt>
      <trkpt lat="50.26065" lon="4.91206">
        <ele>93</ele>
        <time>2026-08-25T10:50:17+00:00</time>
      </trkpt>
      <trkpt lat="50.26081" lon="4.91216">
        <ele>93</ele>
        <time>2026-08-25T10:50:20+00:00</time>
      </trkpt>
      <trkpt lat="50.26098" lon="4.91269">
        <ele>95</ele>
        <time>2026-08-25T10:50:23+00:00</time>
      </trkpt>
      <trkpt lat="50.26108" lon="4.91296">
        <ele>98</ele>
        <time>2026-08-25T10:50:26+00:00</time>
      </trkpt>
      <trkpt lat="50.26124" lon="4.91342">
        <ele>122</ele>
        <time>2026-08-25T10:50:29+00:00</time>
      </trkpt>
      <trkpt lat="50.26152" lon="4.9135">
        <ele>145</ele>
        <time>2026-08-25T10:50:32+00:00</time>
      </trkpt>
      <trkpt lat="50.26154" lon="4.91328">
        <ele>134</ele>
        <time>2026-08-25T10:50:35+00:00</time>
      </trkpt>
      <trkpt lat="50.26156" lon="4.91328">
        <ele>134</ele>
        <time>2026-08-25T10:50:38+00:00</time>
      </trkpt>
      <trkpt lat="50.26155" lon="4.91361">
        <ele>141</ele>
        <time>2026-08-25T10:50:41+00:00</time>
      </trkpt>
      <trkpt lat="50.26157" lon="4.91361">
        <ele>150</ele>
        <time>2026-08-25T10:50:44+00:00</time>
      </trkpt>
      <trkpt lat="50.26161" lon="4.91328">
        <ele>137</ele>
        <time>2026-08-25T10:50:47+00:00</time>
      </trkpt>
      <trkpt lat="50.26161" lon="4.91322">
        <ele>137</ele>
        <time>2026-08-25T10:50:50+00:00</time>
      </trkpt>
      <trkpt lat="50.26158" lon="4.91293">
        <ele>132</ele>
        <time>2026-08-25T10:50:53+00:00</time>
      </trkpt>
      <trkpt lat="50.26159" lon="4.91292">
        <ele>124</ele>
        <time>2026-08-25T10:50:56+00:00</time>
      </trkpt>
      <trkpt lat="50.26161" lon="4.91292">
        <ele>128</ele>
        <time>2026-08-25T10:50:59+00:00</time>
      </trkpt>
      <trkpt lat="50.26161" lon="4.91296">
        <ele>128</ele>
        <time>2026-08-25T10:51:02+00:00</time>
      </trkpt>
      <trkpt lat="50.26162" lon="4.91304">
        <ele>130</ele>
        <time>2026-08-25T10:51:05+00:00</time>
      </trkpt>
      <trkpt lat="50.26167" lon="4.91303">
        <ele>130</ele>
        <time>2026-08-25T10:51:08+00:00</time>
      </trkpt>
      <trkpt lat="50.26167" lon="4.91294">
        <ele>128</ele>
        <time>2026-08-25T10:51:11+00:00</time>
      </trkpt>
      <trkpt lat="50.26162" lon="4.91278">
        <ele>122</ele>
        <time>2026-08-25T10:51:14+00:00</time>
      </trkpt>
      <trkpt lat="50.26161" lon="4.91255">
        <ele>117</ele>
        <time>2026-08-25T10:51:17+00:00</time>
      </trkpt>
      <trkpt lat="50.26164" lon="4.91221">
        <ele>116</ele>
        <time>2026-08-25T10:51:20+00:00</time>
      </trkpt>
      <trkpt lat="50.26173" lon="4.9122">
        <ele>111</ele>
        <time>2026-08-25T10:51:23+00:00</time>
      </trkpt>
      <trkpt lat="50.26179" lon="4.91236">
        <ele>122</ele>
        <time>2026-08-25T10:51:26+00:00</time>
      </trkpt>
      <trkpt lat="50.26185" lon="4.91259">
        <ele>123</ele>
        <time>2026-08-25T10:51:29+00:00</time>
      </trkpt>
      <trkpt lat="50.26185" lon="4.91274">
        <ele>128</ele>
        <time>2026-08-25T10:51:32+00:00</time>
      </trkpt>
      <trkpt lat="50.26191" lon="4.91316">
        <ele>140</ele>
        <time>2026-08-25T10:51:35+00:00</time>
      </trkpt>
      <trkpt lat="50.26192" lon="4.91344">
        <ele>149</ele>
        <time>2026-08-25T10:51:38+00:00</time>
      </trkpt>
      <trkpt lat="50.26206" lon="4.91343">
        <ele>151</ele>
        <time>2026-08-25T10:51:41+00:00</time>
      </trkpt>
      <trkpt lat="50.26206" lon="4.91356">
        <ele>149</ele>
        <time>2026-08-25T10:51:44+00:00</time>
      </trkpt>
      <trkpt lat="50.262" lon="4.91359">
        <ele>153</ele>
        <time>2026-08-25T10:51:47+00:00</time>
      </trkpt>
      <trkpt lat="50.26192" lon="4.91352">
        <ele>152</ele>
        <time>2026-08-25T10:51:50+00:00</time>
      </trkpt>
      <trkpt lat="50.26176" lon="4.91357">
        <ele>149</ele>
        <time>2026-08-25T10:51:53+00:00</time>
      </trkpt>
      <trkpt lat="50.26177" lon="4.91357">
        <ele>149</ele>
        <time>2026-08-25T10:51:56+00:00</time>
      </trkpt>
      <trkpt lat="50.26177" lon="4.91401">
        <ele>164</ele>
        <time>2026-08-25T10:51:59+00:00</time>
      </trkpt>
      <trkpt lat="50.26176" lon="4.91414">
        <ele>167</ele>
        <time>2026-08-25T10:52:02+00:00</time>
      </trkpt>
      <trkpt lat="50.26176" lon="4.91428">
        <ele>169</ele>
        <time>2026-08-25T10:52:05+00:00</time>
      </trkpt>
      <trkpt lat="50.26175" lon="4.91436">
        <ele>171</ele>
        <time>2026-08-25T10:52:08+00:00</time>
      </trkpt>
      <trkpt lat="50.2615" lon="4.91457">
        <ele>172</ele>
        <time>2026-08-25T10:52:11+00:00</time>
      </trkpt>
      <trkpt lat="50.26143" lon="4.91472">
        <ele>173</ele>
        <time>2026-08-25T10:52:14+00:00</time>
      </trkpt>
      <trkpt lat="50.26141" lon="4.91483">
        <ele>174</ele>
        <time>2026-08-25T10:52:17+00:00</time>
      </trkpt>
      <trkpt lat="50.2614" lon="4.91491">
        <ele>173</ele>
        <time>2026-08-25T10:52:20+00:00</time>
      </trkpt>
      <trkpt lat="50.26141" lon="4.91501">
        <ele>178</ele>
        <time>2026-08-25T10:52:23+00:00</time>
      </trkpt>
      <trkpt lat="50.26143" lon="4.91508">
        <ele>178</ele>
        <time>2026-08-25T10:52:26+00:00</time>
      </trkpt>
      <trkpt lat="50.26152" lon="4.91516">
        <ele>182</ele>
        <time>2026-08-25T10:52:29+00:00</time>
      </trkpt>
      <trkpt lat="50.26155" lon="4.91521">
        <ele>183</ele>
        <time>2026-08-25T10:52:32+00:00</time>
      </trkpt>
      <trkpt lat="50.26167" lon="4.91526">
        <ele>183</ele>
        <time>2026-08-25T10:52:35+00:00</time>
      </trkpt>
      <trkpt lat="50.26164" lon="4.91553">
        <ele>183</ele>
        <time>2026-08-25T10:52:38+00:00</time>
      </trkpt>
      <trkpt lat="50.2616" lon="4.91591">
        <ele>183</ele>
        <time>2026-08-25T10:52:41+00:00</time>
      </trkpt>
      <trkpt lat="50.26156" lon="4.91628">
        <ele>183</ele>
        <time>2026-08-25T10:52:44+00:00</time>
      </trkpt>
      <trkpt lat="50.2615" lon="4.91675">
        <ele>184</ele>
        <time>2026-08-25T10:52:47+00:00</time>
      </trkpt>
      <trkpt lat="50.26149" lon="4.91677">
        <ele>185</ele>
        <time>2026-08-25T10:52:50+00:00</time>
      </trkpt>
      <trkpt lat="50.26135" lon="4.91673">
        <ele>185</ele>
        <time>2026-08-25T10:52:53+00:00</time>
      </trkpt>
      <trkpt lat="50.26126" lon="4.91673">
        <ele>186</ele>
        <time>2026-08-25T10:52:56+00:00</time>
      </trkpt>
      <trkpt lat="50.261" lon="4.91677">
        <ele>185</ele>
        <time>2026-08-25T10:52:59+00:00</time>
      </trkpt>
      <trkpt lat="50.26084" lon="4.91676">
        <ele>186</ele>
        <time>2026-08-25T10:53:02+00:00</time>
      </trkpt>
      <trkpt lat="50.26062" lon="4.91676">
        <ele>184</ele>
        <time>2026-08-25T10:53:05+00:00</time>
      </trkpt>
      <trkpt lat="50.26024" lon="4.91675">
        <ele>181</ele>
        <time>2026-08-25T10:53:08+00:00</time>
      </trkpt>
      <trkpt lat="50.26014" lon="4.91668">
        <ele>179</ele>
        <time>2026-08-25T10:53:11+00:00</time>
      </trkpt>
      <trkpt lat="50.26005" lon="4.91667">
        <ele>178</ele>
        <time>2026-08-25T10:53:14+00:00</time>
      </trkpt>
      <trkpt lat="50.25997" lon="4.91673">
        <ele>178</ele>
        <time>2026-08-25T10:53:17+00:00</time>
      </trkpt>
      <trkpt lat="50.25988" lon="4.91675">
        <ele>176</ele>
        <time>2026-08-25T10:53:20+00:00</time>
      </trkpt>
      <trkpt lat="50.25972" lon="4.91682">
        <ele>176</ele>
        <time>2026-08-25T10:53:23+00:00</time>
      </trkpt>
      <trkpt lat="50.25967" lon="4.91682">
        <ele>178</ele>
        <time>2026-08-25T10:53:26+00:00</time>
      </trkpt>
      <trkpt lat="50.25965" lon="4.91685">
        <ele>174</ele>
        <time>2026-08-25T10:53:29+00:00</time>
      </trkpt>
      <trkpt lat="50.25964" lon="4.91696">
        <ele>176</ele>
        <time>2026-08-25T10:53:32+00:00</time>
      </trkpt>
      <trkpt lat="50.25954" lon="4.91721">
        <ele>181</ele>
        <time>2026-08-25T10:53:35+00:00</time>
      </trkpt>
      <trkpt lat="50.25952" lon="4.91734">
        <ele>183</ele>
        <time>2026-08-25T10:53:38+00:00</time>
      </trkpt>
      <trkpt lat="50.25944" lon="4.9175">
        <ele>184</ele>
        <time>2026-08-25T10:53:41+00:00</time>
      </trkpt>
      <trkpt lat="50.25947" lon="4.91786">
        <ele>185</ele>
        <time>2026-08-25T10:53:44+00:00</time>
      </trkpt>
      <trkpt lat="50.25944" lon="4.91795">
        <ele>185</ele>
        <time>2026-08-25T10:53:47+00:00</time>
      </trkpt>
      <trkpt lat="50.25935" lon="4.91817">
        <ele>185</ele>
        <time>2026-08-25T10:53:50+00:00</time>
      </trkpt>
      <trkpt lat="50.2591" lon="4.91855">
        <ele>185</ele>
        <time>2026-08-25T10:53:53+00:00</time>
      </trkpt>
      <trkpt lat="50.25903" lon="4.91847">
        <ele>185</ele>
        <time>2026-08-25T10:53:56+00:00</time>
      </trkpt>
      <trkpt lat="50.25897" lon="4.91834">
        <ele>184</ele>
        <time>2026-08-25T10:53:59+00:00</time>
      </trkpt>
      <trkpt lat="50.25857" lon="4.91844">
        <ele>184</ele>
        <time>2026-08-25T10:54:02+00:00</time>
      </trkpt>
      <trkpt lat="50.25834" lon="4.91851">
        <ele>184</ele>
        <time>2026-08-25T10:54:05+00:00</time>
      </trkpt>
      <trkpt lat="50.25807" lon="4.9186">
        <ele>184</ele>
        <time>2026-08-25T10:54:08+00:00</time>
      </trkpt>
      <trkpt lat="50.258" lon="4.91855">
        <ele>185</ele>
        <time>2026-08-25T10:54:11+00:00</time>
      </trkpt>
      <trkpt lat="50.25793" lon="4.91854">
        <ele>184</ele>
        <time>2026-08-25T10:54:14+00:00</time>
      </trkpt>
      <trkpt lat="50.25788" lon="4.91855">
        <ele>184</ele>
        <time>2026-08-25T10:54:17+00:00</time>
      </trkpt>
      <trkpt lat="50.25777" lon="4.91867">
        <ele>184</ele>
        <time>2026-08-25T10:54:20+00:00</time>
      </trkpt>
      <trkpt lat="50.25769" lon="4.91889">
        <ele>184</ele>
        <time>2026-08-25T10:54:23+00:00</time>
      </trkpt>
      <trkpt lat="50.2576" lon="4.91912">
        <ele>185</ele>
        <time>2026-08-25T10:54:26+00:00</time>
      </trkpt>
      <trkpt lat="50.25743" lon="4.91954">
        <ele>189</ele>
        <time>2026-08-25T10:54:29+00:00</time>
      </trkpt>
      <trkpt lat="50.25729" lon="4.91971">
        <ele>190</ele>
        <time>2026-08-25T10:54:32+00:00</time>
      </trkpt>
      <trkpt lat="50.25725" lon="4.91974">
        <ele>190</ele>
        <time>2026-08-25T10:54:35+00:00</time>
      </trkpt>
      <trkpt lat="50.25715" lon="4.91978">
        <ele>190</ele>
        <time>2026-08-25T10:54:38+00:00</time>
      </trkpt>
      <trkpt lat="50.25705" lon="4.91979">
        <ele>190</ele>
        <time>2026-08-25T10:54:41+00:00</time>
      </trkpt>
      <trkpt lat="50.25698" lon="4.91976">
        <ele>190</ele>
        <time>2026-08-25T10:54:44+00:00</time>
      </trkpt>
      <trkpt lat="50.25688" lon="4.91967">
        <ele>190</ele>
        <time>2026-08-25T10:54:47+00:00</time>
      </trkpt>
      <trkpt lat="50.25677" lon="4.9195">
        <ele>190</ele>
        <time>2026-08-25T10:54:50+00:00</time>
      </trkpt>
      <trkpt lat="50.25664" lon="4.91923">
        <ele>190</ele>
        <time>2026-08-25T10:54:53+00:00</time>
      </trkpt>
      <trkpt lat="50.25657" lon="4.91913">
        <ele>191</ele>
        <time>2026-08-25T10:54:56+00:00</time>
      </trkpt>
      <trkpt lat="50.25655" lon="4.91911">
        <ele>191</ele>
        <time>2026-08-25T10:54:59+00:00</time>
      </trkpt>
      <trkpt lat="50.25632" lon="4.9191">
        <ele>190</ele>
        <time>2026-08-25T10:55:02+00:00</time>
      </trkpt>
      <trkpt lat="50.25627" lon="4.91908">
        <ele>191</ele>
        <time>2026-08-25T10:55:05+00:00</time>
      </trkpt>
      <trkpt lat="50.25604" lon="4.91913">
        <ele>190</ele>
        <time>2026-08-25T10:55:08+00:00</time>
      </trkpt>
      <trkpt lat="50.25591" lon="4.91923">
        <ele>189</ele>
        <time>2026-08-25T10:55:11+00:00</time>
      </trkpt>
      <trkpt lat="50.25587" lon="4.91932">
        <ele>190</ele>
        <time>2026-08-25T10:55:14+00:00</time>
      </trkpt>
      <trkpt lat="50.25584" lon="4.91936">
        <ele>190</ele>
        <time>2026-08-25T10:55:17+00:00</time>
      </trkpt>
      <trkpt lat="50.25579" lon="4.9194">
        <ele>191</ele>
        <time>2026-08-25T10:55:20+00:00</time>
      </trkpt>
      <trkpt lat="50.25577" lon="4.91939">
        <ele>189</ele>
        <time>2026-08-25T10:55:23+00:00</time>
      </trkpt>
      <trkpt lat="50.2557" lon="4.91933">
        <ele>191</ele>
        <time>2026-08-25T10:55:26+00:00</time>
      </trkpt>
      <trkpt lat="50.25566" lon="4.91933">
        <ele>189</ele>
        <time>2026-08-25T10:55:29+00:00</time>
      </trkpt>
      <trkpt lat="50.25563" lon="4.91935">
        <ele>189</ele>
        <time>2026-08-25T10:55:32+00:00</time>
      </trkpt>
      <trkpt lat="50.25547" lon="4.91939">
        <ele>192</ele>
        <time>2026-08-25T10:55:35+00:00</time>
      </trkpt>
      <trkpt lat="50.25534" lon="4.91961">
        <ele>196</ele>
        <time>2026-08-25T10:55:38+00:00</time>
      </trkpt>
      <trkpt lat="50.2553" lon="4.91965">
        <ele>196</ele>
        <time>2026-08-25T10:55:41+00:00</time>
      </trkpt>
      <trkpt lat="50.25518" lon="4.91972">
        <ele>196</ele>
        <time>2026-08-25T10:55:44+00:00</time>
      </trkpt>
      <trkpt lat="50.25501" lon="4.9198">
        <ele>196</ele>
        <time>2026-08-25T10:55:47+00:00</time>
      </trkpt>
      <trkpt lat="50.2549" lon="4.91986">
        <ele>196</ele>
        <time>2026-08-25T10:55:50+00:00</time>
      </trkpt>
      <trkpt lat="50.25472" lon="4.91987">
        <ele>196</ele>
        <time>2026-08-25T10:55:53+00:00</time>
      </trkpt>
      <trkpt lat="50.25451" lon="4.91994">
        <ele>195</ele>
        <time>2026-08-25T10:55:56+00:00</time>
      </trkpt>
      <trkpt lat="50.25438" lon="4.91995">
        <ele>193</ele>
        <time>2026-08-25T10:55:59+00:00</time>
      </trkpt>
      <trkpt lat="50.2543" lon="4.91998">
        <ele>193</ele>
        <time>2026-08-25T10:56:02+00:00</time>
      </trkpt>
      <trkpt lat="50.25422" lon="4.92002">
        <ele>191</ele>
        <time>2026-08-25T10:56:05+00:00</time>
      </trkpt>
      <trkpt lat="50.25416" lon="4.92002">
        <ele>189</ele>
        <time>2026-08-25T10:56:08+00:00</time>
      </trkpt>
      <trkpt lat="50.25408" lon="4.91997">
        <ele>186</ele>
        <time>2026-08-25T10:56:11+00:00</time>
      </trkpt>
      <trkpt lat="50.25404" lon="4.91998">
        <ele>186</ele>
        <time>2026-08-25T10:56:14+00:00</time>
      </trkpt>
      <trkpt lat="50.25401" lon="4.92">
        <ele>187</ele>
        <time>2026-08-25T10:56:17+00:00</time>
      </trkpt>
      <trkpt lat="50.25396" lon="4.92005">
        <ele>185</ele>
        <time>2026-08-25T10:56:20+00:00</time>
      </trkpt>
      <trkpt lat="50.25388" lon="4.92025">
        <ele>185</ele>
        <time>2026-08-25T10:56:23+00:00</time>
      </trkpt>
      <trkpt lat="50.25385" lon="4.92041">
        <ele>186</ele>
        <time>2026-08-25T10:56:26+00:00</time>
      </trkpt>
      <trkpt lat="50.25382" lon="4.92049">
        <ele>186</ele>
        <time>2026-08-25T10:56:29+00:00</time>
      </trkpt>
      <trkpt lat="50.25374" lon="4.92066">
        <ele>183</ele>
        <time>2026-08-25T10:56:32+00:00</time>
      </trkpt>
      <trkpt lat="50.25373" lon="4.92072">
        <ele>183</ele>
        <time>2026-08-25T10:56:35+00:00</time>
      </trkpt>
      <trkpt lat="50.25375" lon="4.92083">
        <ele>182</ele>
        <time>2026-08-25T10:56:38+00:00</time>
      </trkpt>
      <trkpt lat="50.25373" lon="4.92092">
        <ele>180</ele>
        <time>2026-08-25T10:56:41+00:00</time>
      </trkpt>
      <trkpt lat="50.25373" lon="4.921">
        <ele>180</ele>
        <time>2026-08-25T10:56:44+00:00</time>
      </trkpt>
      <trkpt lat="50.25376" lon="4.92107">
        <ele>180</ele>
        <time>2026-08-25T10:56:47+00:00</time>
      </trkpt>
      <trkpt lat="50.25368" lon="4.92124">
        <ele>179</ele>
        <time>2026-08-25T10:56:50+00:00</time>
      </trkpt>
      <trkpt lat="50.25349" lon="4.92142">
        <ele>179</ele>
        <time>2026-08-25T10:56:53+00:00</time>
      </trkpt>
      <trkpt lat="50.2533" lon="4.92161">
        <ele>180</ele>
        <time>2026-08-25T10:56:56+00:00</time>
      </trkpt>
      <trkpt lat="50.25342" lon="4.92204">
        <ele>186</ele>
        <time>2026-08-25T10:56:59+00:00</time>
      </trkpt>
      <trkpt lat="50.25355" lon="4.92246">
        <ele>193</ele>
        <time>2026-08-25T10:57:02+00:00</time>
      </trkpt>
      <trkpt lat="50.25371" lon="4.92302">
        <ele>195</ele>
        <time>2026-08-25T10:57:05+00:00</time>
      </trkpt>
      <trkpt lat="50.25385" lon="4.9236">
        <ele>198</ele>
        <time>2026-08-25T10:57:08+00:00</time>
      </trkpt>
      <trkpt lat="50.25389" lon="4.92423">
        <ele>198</ele>
        <time>2026-08-25T10:57:11+00:00</time>
      </trkpt>
      <trkpt lat="50.25389" lon="4.9244">
        <ele>199</ele>
        <time>2026-08-25T10:57:14+00:00</time>
      </trkpt>
      <trkpt lat="50.25388" lon="4.92455">
        <ele>199</ele>
        <time>2026-08-25T10:57:17+00:00</time>
      </trkpt>
      <trkpt lat="50.25385" lon="4.92472">
        <ele>201</ele>
        <time>2026-08-25T10:57:20+00:00</time>
      </trkpt>
      <trkpt lat="50.2538" lon="4.92489">
        <ele>202</ele>
        <time>2026-08-25T10:57:23+00:00</time>
      </trkpt>
      <trkpt lat="50.25359" lon="4.9254">
        <ele>206</ele>
        <time>2026-08-25T10:57:26+00:00</time>
      </trkpt>
      <trkpt lat="50.25358" lon="4.92549">
        <ele>206</ele>
        <time>2026-08-25T10:57:29+00:00</time>
      </trkpt>
      <trkpt lat="50.25363" lon="4.92598">
        <ele>213</ele>
        <time>2026-08-25T10:57:32+00:00</time>
      </trkpt>
      <trkpt lat="50.25367" lon="4.92631">
        <ele>215</ele>
        <time>2026-08-25T10:57:35+00:00</time>
      </trkpt>
      <trkpt lat="50.25372" lon="4.92664">
        <ele>217</ele>
        <time>2026-08-25T10:57:38+00:00</time>
      </trkpt>
      <trkpt lat="50.25382" lon="4.92709">
        <ele>219</ele>
        <time>2026-08-25T10:57:41+00:00</time>
      </trkpt>
      <trkpt lat="50.25388" lon="4.92744">
        <ele>220</ele>
        <time>2026-08-25T10:57:44+00:00</time>
      </trkpt>
      <trkpt lat="50.25396" lon="4.92782">
        <ele>222</ele>
        <time>2026-08-25T10:57:47+00:00</time>
      </trkpt>
      <trkpt lat="50.25407" lon="4.92835">
        <ele>223</ele>
        <time>2026-08-25T10:57:50+00:00</time>
      </trkpt>
      <trkpt lat="50.25416" lon="4.92882">
        <ele>224</ele>
        <time>2026-08-25T10:57:53+00:00</time>
      </trkpt>
      <trkpt lat="50.25425" lon="4.92928">
        <ele>225</ele>
        <time>2026-08-25T10:57:56+00:00</time>
      </trkpt>
      <trkpt lat="50.25439" lon="4.93002">
        <ele>226</ele>
        <time>2026-08-25T10:57:59+00:00</time>
      </trkpt>
      <trkpt lat="50.25444" lon="4.93009">
        <ele>226</ele>
        <time>2026-08-25T10:58:02+00:00</time>
      </trkpt>
      <trkpt lat="50.25445" lon="4.93037">
        <ele>226</ele>
        <time>2026-08-25T10:58:05+00:00</time>
      </trkpt>
      <trkpt lat="50.25435" lon="4.93031">
        <ele>227</ele>
        <time>2026-08-25T10:58:08+00:00</time>
      </trkpt>
      <trkpt lat="50.25408" lon="4.93009">
        <ele>228</ele>
        <time>2026-08-25T10:58:11+00:00</time>
      </trkpt>
      <trkpt lat="50.25381" lon="4.92988">
        <ele>229</ele>
        <time>2026-08-25T10:58:14+00:00</time>
      </trkpt>
      <trkpt lat="50.25354" lon="4.92966">
        <ele>230</ele>
        <time>2026-08-25T10:58:17+00:00</time>
      </trkpt>
      <trkpt lat="50.25323" lon="4.92941">
        <ele>231</ele>
        <time>2026-08-25T10:58:20+00:00</time>
      </trkpt>
      <trkpt lat="50.25301" lon="4.92925">
        <ele>231</ele>
        <time>2026-08-25T10:58:23+00:00</time>
      </trkpt>
      <trkpt lat="50.25273" lon="4.92905">
        <ele>233</ele>
        <time>2026-08-25T10:58:26+00:00</time>
      </trkpt>
      <trkpt lat="50.25251" lon="4.92888">
        <ele>234</ele>
        <time>2026-08-25T10:58:29+00:00</time>
      </trkpt>
      <trkpt lat="50.25223" lon="4.92867">
        <ele>237</ele>
        <time>2026-08-25T10:58:32+00:00</time>
      </trkpt>
      <trkpt lat="50.25194" lon="4.92844">
        <ele>238</ele>
        <time>2026-08-25T10:58:35+00:00</time>
      </trkpt>
      <trkpt lat="50.25166" lon="4.92822">
        <ele>238</ele>
        <time>2026-08-25T10:58:38+00:00</time>
      </trkpt>
      <trkpt lat="50.25111" lon="4.92778">
        <ele>239</ele>
        <time>2026-08-25T10:58:41+00:00</time>
      </trkpt>
      <trkpt lat="50.25086" lon="4.92761">
        <ele>239</ele>
        <time>2026-08-25T10:58:44+00:00</time>
      </trkpt>
      <trkpt lat="50.25068" lon="4.9275">
        <ele>239</ele>
        <time>2026-08-25T10:58:47+00:00</time>
      </trkpt>
      <trkpt lat="50.2503" lon="4.92749">
        <ele>237</ele>
        <time>2026-08-25T10:58:50+00:00</time>
      </trkpt>
      <trkpt lat="50.25005" lon="4.92745">
        <ele>234</ele>
        <time>2026-08-25T10:58:53+00:00</time>
      </trkpt>
      <trkpt lat="50.24968" lon="4.92739">
        <ele>230</ele>
        <time>2026-08-25T10:58:56+00:00</time>
      </trkpt>
      <trkpt lat="50.24945" lon="4.92736">
        <ele>227</ele>
        <time>2026-08-25T10:58:59+00:00</time>
      </trkpt>
      <trkpt lat="50.24918" lon="4.92731">
        <ele>224</ele>
        <time>2026-08-25T10:59:02+00:00</time>
      </trkpt>
      <trkpt lat="50.24871" lon="4.92722">
        <ele>220</ele>
        <time>2026-08-25T10:59:05+00:00</time>
      </trkpt>
      <trkpt lat="50.24839" lon="4.92718">
        <ele>217</ele>
        <time>2026-08-25T10:59:08+00:00</time>
      </trkpt>
      <trkpt lat="50.24815" lon="4.92709">
        <ele>215</ele>
        <time>2026-08-25T10:59:11+00:00</time>
      </trkpt>
      <trkpt lat="50.24803" lon="4.92696">
        <ele>213</ele>
        <time>2026-08-25T10:59:14+00:00</time>
      </trkpt>
      <trkpt lat="50.24795" lon="4.92677">
        <ele>211</ele>
        <time>2026-08-25T10:59:17+00:00</time>
      </trkpt>
      <trkpt lat="50.24788" lon="4.92658">
        <ele>210</ele>
        <time>2026-08-25T10:59:20+00:00</time>
      </trkpt>
      <trkpt lat="50.24774" lon="4.92643">
        <ele>209</ele>
        <time>2026-08-25T10:59:23+00:00</time>
      </trkpt>
      <trkpt lat="50.24767" lon="4.92638">
        <ele>208</ele>
        <time>2026-08-25T10:59:26+00:00</time>
      </trkpt>
      <trkpt lat="50.24754" lon="4.92637">
        <ele>207</ele>
        <time>2026-08-25T10:59:29+00:00</time>
      </trkpt>
      <trkpt lat="50.24737" lon="4.92623">
        <ele>206</ele>
        <time>2026-08-25T10:59:32+00:00</time>
      </trkpt>
      <trkpt lat="50.24715" lon="4.92605">
        <ele>205</ele>
        <time>2026-08-25T10:59:35+00:00</time>
      </trkpt>
      <trkpt lat="50.24687" lon="4.92581">
        <ele>204</ele>
        <time>2026-08-25T10:59:38+00:00</time>
      </trkpt>
      <trkpt lat="50.24665" lon="4.92567">
        <ele>204</ele>
        <time>2026-08-25T10:59:41+00:00</time>
      </trkpt>
      <trkpt lat="50.2464" lon="4.9255">
        <ele>202</ele>
        <time>2026-08-25T10:59:44+00:00</time>
      </trkpt>
      <trkpt lat="50.24615" lon="4.92535">
        <ele>202</ele>
        <time>2026-08-25T10:59:47+00:00</time>
      </trkpt>
      <trkpt lat="50.24583" lon="4.92514">
        <ele>205</ele>
        <time>2026-08-25T10:59:50+00:00</time>
      </trkpt>
      <trkpt lat="50.24566" lon="4.92506">
        <ele>216</ele>
        <time>2026-08-25T10:59:53+00:00</time>
      </trkpt>
      <trkpt lat="50.24548" lon="4.925">
        <ele>219</ele>
        <time>2026-08-25T10:59:56+00:00</time>
      </trkpt>
      <trkpt lat="50.24533" lon="4.92508">
        <ele>219</ele>
        <time>2026-08-25T10:59:59+00:00</time>
      </trkpt>
      <trkpt lat="50.24521" lon="4.92504">
        <ele>219</ele>
        <time>2026-08-25T11:00:02+00:00</time>
      </trkpt>
      <trkpt lat="50.24508" lon="4.92497">
        <ele>217</ele>
        <time>2026-08-25T11:00:05+00:00</time>
      </trkpt>
      <trkpt lat="50.2449" lon="4.92466">
        <ele>219</ele>
        <time>2026-08-25T11:00:08+00:00</time>
      </trkpt>
      <trkpt lat="50.24488" lon="4.92469">
        <ele>213</ele>
        <time>2026-08-25T11:00:11+00:00</time>
      </trkpt>
      <trkpt lat="50.24491" lon="4.92479">
        <ele>217</ele>
        <time>2026-08-25T11:00:14+00:00</time>
      </trkpt>
      <trkpt lat="50.24489" lon="4.92485">
        <ele>209</ele>
        <time>2026-08-25T11:00:17+00:00</time>
      </trkpt>
      <trkpt lat="50.24482" lon="4.92477">
        <ele>211</ele>
        <time>2026-08-25T11:00:20+00:00</time>
      </trkpt>
      <trkpt lat="50.24479" lon="4.92484">
        <ele>205</ele>
        <time>2026-08-25T11:00:23+00:00</time>
      </trkpt>
      <trkpt lat="50.24482" lon="4.92503">
        <ele>205</ele>
        <time>2026-08-25T11:00:26+00:00</time>
      </trkpt>
      <trkpt lat="50.2448" lon="4.92506">
        <ele>205</ele>
        <time>2026-08-25T11:00:29+00:00</time>
      </trkpt>
      <trkpt lat="50.24467" lon="4.9249">
        <ele>198</ele>
        <time>2026-08-25T11:00:32+00:00</time>
      </trkpt>
      <trkpt lat="50.24452" lon="4.92476">
        <ele>194</ele>
        <time>2026-08-25T11:00:35+00:00</time>
      </trkpt>
      <trkpt lat="50.24437" lon="4.92455">
        <ele>180</ele>
        <time>2026-08-25T11:00:38+00:00</time>
      </trkpt>
      <trkpt lat="50.24428" lon="4.92415">
        <ele>175</ele>
        <time>2026-08-25T11:00:41+00:00</time>
      </trkpt>
      <trkpt lat="50.24422" lon="4.92443">
        <ele>174</ele>
        <time>2026-08-25T11:00:44+00:00</time>
      </trkpt>
      <trkpt lat="50.24419" lon="4.92414">
        <ele>170</ele>
        <time>2026-08-25T11:00:47+00:00</time>
      </trkpt>
      <trkpt lat="50.2441" lon="4.92435">
        <ele>169</ele>
        <time>2026-08-25T11:00:50+00:00</time>
      </trkpt>
      <trkpt lat="50.24405" lon="4.92398">
        <ele>162</ele>
        <time>2026-08-25T11:00:53+00:00</time>
      </trkpt>
      <trkpt lat="50.244" lon="4.92414">
        <ele>162</ele>
        <time>2026-08-25T11:00:56+00:00</time>
      </trkpt>
      <trkpt lat="50.24396" lon="4.92436">
        <ele>158</ele>
        <time>2026-08-25T11:00:59+00:00</time>
      </trkpt>
      <trkpt lat="50.24395" lon="4.92452">
        <ele>158</ele>
        <time>2026-08-25T11:01:02+00:00</time>
      </trkpt>
      <trkpt lat="50.24396" lon="4.92477">
        <ele>155</ele>
        <time>2026-08-25T11:01:05+00:00</time>
      </trkpt>
      <trkpt lat="50.24393" lon="4.92479">
        <ele>155</ele>
        <time>2026-08-25T11:01:08+00:00</time>
      </trkpt>
      <trkpt lat="50.24386" lon="4.92463">
        <ele>149</ele>
        <time>2026-08-25T11:01:11+00:00</time>
      </trkpt>
      <trkpt lat="50.24381" lon="4.92441">
        <ele>149</ele>
        <time>2026-08-25T11:01:14+00:00</time>
      </trkpt>
      <trkpt lat="50.24372" lon="4.92384">
        <ele>138</ele>
        <time>2026-08-25T11:01:17+00:00</time>
      </trkpt>
      <trkpt lat="50.24369" lon="4.92353">
        <ele>131</ele>
        <time>2026-08-25T11:01:20+00:00</time>
      </trkpt>
      <trkpt lat="50.24364" lon="4.92312">
        <ele>129</ele>
        <time>2026-08-25T11:01:23+00:00</time>
      </trkpt>
      <trkpt lat="50.24363" lon="4.92311">
        <ele>129</ele>
        <time>2026-08-25T11:01:26+00:00</time>
      </trkpt>
      <trkpt lat="50.24358" lon="4.92334">
        <ele>121</ele>
        <time>2026-08-25T11:01:29+00:00</time>
      </trkpt>
      <trkpt lat="50.24352" lon="4.92367">
        <ele>120</ele>
        <time>2026-08-25T11:01:32+00:00</time>
      </trkpt>
      <trkpt lat="50.24347" lon="4.92385">
        <ele>107</ele>
        <time>2026-08-25T11:01:35+00:00</time>
      </trkpt>
      <trkpt lat="50.24344" lon="4.9241">
        <ele>109</ele>
        <time>2026-08-25T11:01:38+00:00</time>
      </trkpt>
      <trkpt lat="50.24341" lon="4.92424">
        <ele>109</ele>
        <time>2026-08-25T11:01:41+00:00</time>
      </trkpt>
      <trkpt lat="50.24339" lon="4.92424">
        <ele>102</ele>
        <time>2026-08-25T11:01:44+00:00</time>
      </trkpt>
      <trkpt lat="50.24336" lon="4.92403">
        <ele>100</ele>
        <time>2026-08-25T11:01:47+00:00</time>
      </trkpt>
      <trkpt lat="50.24332" lon="4.92361">
        <ele>98</ele>
        <time>2026-08-25T11:01:50+00:00</time>
      </trkpt>
      <trkpt lat="50.2433" lon="4.92351">
        <ele>98</ele>
        <time>2026-08-25T11:01:53+00:00</time>
      </trkpt>
      <trkpt lat="50.24329" lon="4.92331">
        <ele>98</ele>
        <time>2026-08-25T11:01:56+00:00</time>
      </trkpt>
      <trkpt lat="50.24323" lon="4.92331">
        <ele>97</ele>
        <time>2026-08-25T11:01:59+00:00</time>
      </trkpt>
      <trkpt lat="50.24324" lon="4.92365">
        <ele>98</ele>
        <time>2026-08-25T11:02:02+00:00</time>
      </trkpt>
      <trkpt lat="50.24325" lon="4.92411">
        <ele>99</ele>
        <time>2026-08-25T11:02:05+00:00</time>
      </trkpt>
      <trkpt lat="50.24325" lon="4.92454">
        <ele>100</ele>
        <time>2026-08-25T11:02:08+00:00</time>
      </trkpt>
      <trkpt lat="50.24324" lon="4.92529">
        <ele>109</ele>
        <time>2026-08-25T11:02:11+00:00</time>
      </trkpt>
      <trkpt lat="50.24324" lon="4.9257">
        <ele>118</ele>
        <time>2026-08-25T11:02:14+00:00</time>
      </trkpt>
      <trkpt lat="50.24325" lon="4.92585">
        <ele>119</ele>
        <time>2026-08-25T11:02:17+00:00</time>
      </trkpt>
      <trkpt lat="50.24328" lon="4.92601">
        <ele>118</ele>
        <time>2026-08-25T11:02:20+00:00</time>
      </trkpt>
      <trkpt lat="50.24332" lon="4.92609">
        <ele>121</ele>
        <time>2026-08-25T11:02:23+00:00</time>
      </trkpt>
      <trkpt lat="50.24349" lon="4.92637">
        <ele>119</ele>
        <time>2026-08-25T11:02:26+00:00</time>
      </trkpt>
      <trkpt lat="50.24376" lon="4.92682">
        <ele>118</ele>
        <time>2026-08-25T11:02:29+00:00</time>
      </trkpt>
      <trkpt lat="50.2439" lon="4.92709">
        <ele>118</ele>
        <time>2026-08-25T11:02:32+00:00</time>
      </trkpt>
      <trkpt lat="50.24405" lon="4.92737">
        <ele>126</ele>
        <time>2026-08-25T11:02:35+00:00</time>
      </trkpt>
      <trkpt lat="50.24399" lon="4.92737">
        <ele>131</ele>
        <time>2026-08-25T11:02:38+00:00</time>
      </trkpt>
      <trkpt lat="50.24379" lon="4.92717">
        <ele>136</ele>
        <time>2026-08-25T11:02:41+00:00</time>
      </trkpt>
      <trkpt lat="50.2435" lon="4.92687">
        <ele>137</ele>
        <time>2026-08-25T11:02:44+00:00</time>
      </trkpt>
      <trkpt lat="50.24331" lon="4.92672">
        <ele>138</ele>
        <time>2026-08-25T11:02:47+00:00</time>
      </trkpt>
      <trkpt lat="50.24311" lon="4.92656">
        <ele>142</ele>
        <time>2026-08-25T11:02:50+00:00</time>
      </trkpt>
      <trkpt lat="50.24283" lon="4.92629">
        <ele>148</ele>
        <time>2026-08-25T11:02:53+00:00</time>
      </trkpt>
      <trkpt lat="50.24262" lon="4.92597">
        <ele>154</ele>
        <time>2026-08-25T11:02:56+00:00</time>
      </trkpt>
      <trkpt lat="50.24248" lon="4.92553">
        <ele>159</ele>
        <time>2026-08-25T11:02:59+00:00</time>
      </trkpt>
      <trkpt lat="50.2424" lon="4.92513">
        <ele>160</ele>
        <time>2026-08-25T11:03:02+00:00</time>
      </trkpt>
      <trkpt lat="50.24227" lon="4.9245">
        <ele>163</ele>
        <time>2026-08-25T11:03:05+00:00</time>
      </trkpt>
      <trkpt lat="50.24218" lon="4.92418">
        <ele>164</ele>
        <time>2026-08-25T11:03:08+00:00</time>
      </trkpt>
      <trkpt lat="50.24208" lon="4.92382">
        <ele>169</ele>
        <time>2026-08-25T11:03:11+00:00</time>
      </trkpt>
      <trkpt lat="50.24193" lon="4.92326">
        <ele>168</ele>
        <time>2026-08-25T11:03:14+00:00</time>
      </trkpt>
      <trkpt lat="50.24173" lon="4.92289">
        <ele>167</ele>
        <time>2026-08-25T11:03:17+00:00</time>
      </trkpt>
      <trkpt lat="50.24161" lon="4.92282">
        <ele>163</ele>
        <time>2026-08-25T11:03:20+00:00</time>
      </trkpt>
      <trkpt lat="50.24154" lon="4.92283">
        <ele>166</ele>
        <time>2026-08-25T11:03:23+00:00</time>
      </trkpt>
      <trkpt lat="50.24146" lon="4.92294">
        <ele>160</ele>
        <time>2026-08-25T11:03:26+00:00</time>
      </trkpt>
      <trkpt lat="50.24154" lon="4.92313">
        <ele>166</ele>
        <time>2026-08-25T11:03:29+00:00</time>
      </trkpt>
      <trkpt lat="50.24168" lon="4.92358">
        <ele>167</ele>
        <time>2026-08-25T11:03:32+00:00</time>
      </trkpt>
      <trkpt lat="50.24173" lon="4.92383">
        <ele>173</ele>
        <time>2026-08-25T11:03:35+00:00</time>
      </trkpt>
      <trkpt lat="50.24174" lon="4.92405">
        <ele>176</ele>
        <time>2026-08-25T11:03:38+00:00</time>
      </trkpt>
      <trkpt lat="50.24175" lon="4.92428">
        <ele>178</ele>
        <time>2026-08-25T11:03:41+00:00</time>
      </trkpt>
      <trkpt lat="50.2418" lon="4.92472">
        <ele>180</ele>
        <time>2026-08-25T11:03:44+00:00</time>
      </trkpt>
      <trkpt lat="50.2418" lon="4.92504">
        <ele>186</ele>
        <time>2026-08-25T11:03:47+00:00</time>
      </trkpt>
      <trkpt lat="50.24182" lon="4.92513">
        <ele>182</ele>
        <time>2026-08-25T11:03:50+00:00</time>
      </trkpt>
      <trkpt lat="50.24187" lon="4.92522">
        <ele>184</ele>
        <time>2026-08-25T11:03:53+00:00</time>
      </trkpt>
      <trkpt lat="50.2419" lon="4.9253">
        <ele>187</ele>
        <time>2026-08-25T11:03:56+00:00</time>
      </trkpt>
      <trkpt lat="50.24195" lon="4.92568">
        <ele>192</ele>
        <time>2026-08-25T11:03:59+00:00</time>
      </trkpt>
      <trkpt lat="50.24196" lon="4.92582">
        <ele>194</ele>
        <time>2026-08-25T11:04:02+00:00</time>
      </trkpt>
      <trkpt lat="50.24196" lon="4.92597">
        <ele>192</ele>
        <time>2026-08-25T11:04:05+00:00</time>
      </trkpt>
      <trkpt lat="50.24189" lon="4.92624">
        <ele>192</ele>
        <time>2026-08-25T11:04:08+00:00</time>
      </trkpt>
      <trkpt lat="50.24181" lon="4.92652">
        <ele>192</ele>
        <time>2026-08-25T11:04:11+00:00</time>
      </trkpt>
      <trkpt lat="50.24175" lon="4.92682">
        <ele>200</ele>
        <time>2026-08-25T11:04:14+00:00</time>
      </trkpt>
      <trkpt lat="50.24176" lon="4.92703">
        <ele>200</ele>
        <time>2026-08-25T11:04:17+00:00</time>
      </trkpt>
      <trkpt lat="50.24186" lon="4.92736">
        <ele>200</ele>
        <time>2026-08-25T11:04:20+00:00</time>
      </trkpt>
      <trkpt lat="50.24189" lon="4.92766">
        <ele>202</ele>
        <time>2026-08-25T11:04:23+00:00</time>
      </trkpt>
      <trkpt lat="50.24198" lon="4.92814">
        <ele>205</ele>
        <time>2026-08-25T11:04:26+00:00</time>
      </trkpt>
      <trkpt lat="50.2418" lon="4.92783">
        <ele>215</ele>
        <time>2026-08-25T11:04:29+00:00</time>
      </trkpt>
      <trkpt lat="50.24156" lon="4.9274">
        <ele>215</ele>
        <time>2026-08-25T11:04:32+00:00</time>
      </trkpt>
      <trkpt lat="50.24152" lon="4.92709">
        <ele>215</ele>
        <time>2026-08-25T11:04:35+00:00</time>
      </trkpt>
      <trkpt lat="50.24146" lon="4.92687">
        <ele>218</ele>
        <time>2026-08-25T11:04:38+00:00</time>
      </trkpt>
      <trkpt lat="50.24135" lon="4.92658">
        <ele>215</ele>
        <time>2026-08-25T11:04:41+00:00</time>
      </trkpt>
      <trkpt lat="50.24117" lon="4.92611">
        <ele>212</ele>
        <time>2026-08-25T11:04:44+00:00</time>
      </trkpt>
      <trkpt lat="50.24111" lon="4.92639">
        <ele>215</ele>
        <time>2026-08-25T11:04:47+00:00</time>
      </trkpt>
      <trkpt lat="50.24108" lon="4.92701">
        <ele>219</ele>
        <time>2026-08-25T11:04:50+00:00</time>
      </trkpt>
      <trkpt lat="50.24105" lon="4.92706">
        <ele>219</ele>
        <time>2026-08-25T11:04:53+00:00</time>
      </trkpt>
      <trkpt lat="50.24103" lon="4.92716">
        <ele>220</ele>
        <time>2026-08-25T11:04:56+00:00</time>
      </trkpt>
      <trkpt lat="50.24099" lon="4.9272">
        <ele>219</ele>
        <time>2026-08-25T11:04:59+00:00</time>
      </trkpt>
      <trkpt lat="50.24092" lon="4.92723">
        <ele>220</ele>
        <time>2026-08-25T11:05:02+00:00</time>
      </trkpt>
      <trkpt lat="50.2409" lon="4.92725">
        <ele>220</ele>
        <time>2026-08-25T11:05:05+00:00</time>
      </trkpt>
      <trkpt lat="50.24089" lon="4.92728">
        <ele>216</ele>
        <time>2026-08-25T11:05:08+00:00</time>
      </trkpt>
      <trkpt lat="50.24093" lon="4.92765">
        <ele>219</ele>
        <time>2026-08-25T11:05:11+00:00</time>
      </trkpt>
      <trkpt lat="50.24092" lon="4.9278">
        <ele>223</ele>
        <time>2026-08-25T11:05:14+00:00</time>
      </trkpt>
      <trkpt lat="50.24089" lon="4.92794">
        <ele>221</ele>
        <time>2026-08-25T11:05:17+00:00</time>
      </trkpt>
      <trkpt lat="50.24092" lon="4.92805">
        <ele>225</ele>
        <time>2026-08-25T11:05:20+00:00</time>
      </trkpt>
      <trkpt lat="50.24092" lon="4.92815">
        <ele>224</ele>
        <time>2026-08-25T11:05:23+00:00</time>
      </trkpt>
      <trkpt lat="50.24091" lon="4.9282">
        <ele>220</ele>
        <time>2026-08-25T11:05:26+00:00</time>
      </trkpt>
      <trkpt lat="50.24085" lon="4.92823">
        <ele>221</ele>
        <time>2026-08-25T11:05:29+00:00</time>
      </trkpt>
      <trkpt lat="50.24072" lon="4.92824">
        <ele>219</ele>
        <time>2026-08-25T11:05:32+00:00</time>
      </trkpt>
      <trkpt lat="50.24044" lon="4.92814">
        <ele>218</ele>
        <time>2026-08-25T11:05:35+00:00</time>
      </trkpt>
      <trkpt lat="50.24041" lon="4.92816">
        <ele>218</ele>
        <time>2026-08-25T11:05:38+00:00</time>
      </trkpt>
      <trkpt lat="50.24026" lon="4.92834">
        <ele>218</ele>
        <time>2026-08-25T11:05:41+00:00</time>
      </trkpt>
      <trkpt lat="50.24012" lon="4.9284">
        <ele>217</ele>
        <time>2026-08-25T11:05:44+00:00</time>
      </trkpt>
      <trkpt lat="50.24003" lon="4.92861">
        <ele>218</ele>
        <time>2026-08-25T11:05:47+00:00</time>
      </trkpt>
      <trkpt lat="50.23993" lon="4.92885">
        <ele>217</ele>
        <time>2026-08-25T11:05:50+00:00</time>
      </trkpt>
      <trkpt lat="50.23974" lon="4.929">
        <ele>216</ele>
        <time>2026-08-25T11:05:53+00:00</time>
      </trkpt>
      <trkpt lat="50.23966" lon="4.9293">
        <ele>213</ele>
        <time>2026-08-25T11:05:56+00:00</time>
      </trkpt>
      <trkpt lat="50.2396" lon="4.9296">
        <ele>213</ele>
        <time>2026-08-25T11:05:59+00:00</time>
      </trkpt>
      <trkpt lat="50.23964" lon="4.9299">
        <ele>212</ele>
        <time>2026-08-25T11:06:02+00:00</time>
      </trkpt>
      <trkpt lat="50.23966" lon="4.9302">
        <ele>212</ele>
        <time>2026-08-25T11:06:05+00:00</time>
      </trkpt>
      <trkpt lat="50.23966" lon="4.93046">
        <ele>211</ele>
        <time>2026-08-25T11:06:08+00:00</time>
      </trkpt>
      <trkpt lat="50.23954" lon="4.93067">
        <ele>210</ele>
        <time>2026-08-25T11:06:11+00:00</time>
      </trkpt>
      <trkpt lat="50.23937" lon="4.93097">
        <ele>208</ele>
        <time>2026-08-25T11:06:14+00:00</time>
      </trkpt>
      <trkpt lat="50.23925" lon="4.9308">
        <ele>208</ele>
        <time>2026-08-25T11:06:17+00:00</time>
      </trkpt>
      <trkpt lat="50.23922" lon="4.93058">
        <ele>207</ele>
        <time>2026-08-25T11:06:20+00:00</time>
      </trkpt>
      <trkpt lat="50.23919" lon="4.93035">
        <ele>206</ele>
        <time>2026-08-25T11:06:23+00:00</time>
      </trkpt>
      <trkpt lat="50.2392" lon="4.92999">
        <ele>205</ele>
        <time>2026-08-25T11:06:26+00:00</time>
      </trkpt>
      <trkpt lat="50.23922" lon="4.92956">
        <ele>202</ele>
        <time>2026-08-25T11:06:29+00:00</time>
      </trkpt>
      <trkpt lat="50.23929" lon="4.92911">
        <ele>200</ele>
        <time>2026-08-25T11:06:32+00:00</time>
      </trkpt>
      <trkpt lat="50.23936" lon="4.92866">
        <ele>198</ele>
        <time>2026-08-25T11:06:35+00:00</time>
      </trkpt>
      <trkpt lat="50.23944" lon="4.92814">
        <ele>192</ele>
        <time>2026-08-25T11:06:38+00:00</time>
      </trkpt>
      <trkpt lat="50.23939" lon="4.92778">
        <ele>191</ele>
        <time>2026-08-25T11:06:41+00:00</time>
      </trkpt>
      <trkpt lat="50.23934" lon="4.92735">
        <ele>189</ele>
        <time>2026-08-25T11:06:44+00:00</time>
      </trkpt>
      <trkpt lat="50.23933" lon="4.92735">
        <ele>189</ele>
        <time>2026-08-25T11:06:47+00:00</time>
      </trkpt>
      <trkpt lat="50.23937" lon="4.92695">
        <ele>186</ele>
        <time>2026-08-25T11:06:50+00:00</time>
      </trkpt>
      <trkpt lat="50.23944" lon="4.92634">
        <ele>184</ele>
        <time>2026-08-25T11:06:53+00:00</time>
      </trkpt>
      <trkpt lat="50.23951" lon="4.92604">
        <ele>183</ele>
        <time>2026-08-25T11:06:56+00:00</time>
      </trkpt>
      <trkpt lat="50.2396" lon="4.92582">
        <ele>182</ele>
        <time>2026-08-25T11:06:59+00:00</time>
      </trkpt>
      <trkpt lat="50.23965" lon="4.92567">
        <ele>181</ele>
        <time>2026-08-25T11:07:02+00:00</time>
      </trkpt>
      <trkpt lat="50.23968" lon="4.92527">
        <ele>176</ele>
        <time>2026-08-25T11:07:05+00:00</time>
      </trkpt>
      <trkpt lat="50.23978" lon="4.92485">
        <ele>175</ele>
        <time>2026-08-25T11:07:08+00:00</time>
      </trkpt>
      <trkpt lat="50.23987" lon="4.92454">
        <ele>174</ele>
        <time>2026-08-25T11:07:11+00:00</time>
      </trkpt>
      <trkpt lat="50.23996" lon="4.92442">
        <ele>174</ele>
        <time>2026-08-25T11:07:14+00:00</time>
      </trkpt>
      <trkpt lat="50.24018" lon="4.92426">
        <ele>170</ele>
        <time>2026-08-25T11:07:17+00:00</time>
      </trkpt>
      <trkpt lat="50.24025" lon="4.92419">
        <ele>167</ele>
        <time>2026-08-25T11:07:20+00:00</time>
      </trkpt>
      <trkpt lat="50.24041" lon="4.92396">
        <ele>164</ele>
        <time>2026-08-25T11:07:23+00:00</time>
      </trkpt>
      <trkpt lat="50.24049" lon="4.92376">
        <ele>165</ele>
        <time>2026-08-25T11:07:26+00:00</time>
      </trkpt>
      <trkpt lat="50.24053" lon="4.92359">
        <ele>165</ele>
        <time>2026-08-25T11:07:29+00:00</time>
      </trkpt>
      <trkpt lat="50.24046" lon="4.92324">
        <ele>165</ele>
        <time>2026-08-25T11:07:32+00:00</time>
      </trkpt>
      <trkpt lat="50.24044" lon="4.92281">
        <ele>165</ele>
        <time>2026-08-25T11:07:35+00:00</time>
      </trkpt>
      <trkpt lat="50.2404" lon="4.92261">
        <ele>165</ele>
        <time>2026-08-25T11:07:38+00:00</time>
      </trkpt>
      <trkpt lat="50.24024" lon="4.92248">
        <ele>165</ele>
        <time>2026-08-25T11:07:41+00:00</time>
      </trkpt>
      <trkpt lat="50.24005" lon="4.92233">
        <ele>164</ele>
        <time>2026-08-25T11:07:44+00:00</time>
      </trkpt>
      <trkpt lat="50.23991" lon="4.92245">
        <ele>165</ele>
        <time>2026-08-25T11:07:47+00:00</time>
      </trkpt>
      <trkpt lat="50.23981" lon="4.92268">
        <ele>164</ele>
        <time>2026-08-25T11:07:50+00:00</time>
      </trkpt>
      <trkpt lat="50.23969" lon="4.92298">
        <ele>166</ele>
        <time>2026-08-25T11:07:53+00:00</time>
      </trkpt>
      <trkpt lat="50.23958" lon="4.92333">
        <ele>165</ele>
        <time>2026-08-25T11:07:56+00:00</time>
      </trkpt>
      <trkpt lat="50.23942" lon="4.92382">
        <ele>165</ele>
        <time>2026-08-25T11:07:59+00:00</time>
      </trkpt>
      <trkpt lat="50.23929" lon="4.92433">
        <ele>183</ele>
        <time>2026-08-25T11:08:02+00:00</time>
      </trkpt>
      <trkpt lat="50.23922" lon="4.92472">
        <ele>184</ele>
        <time>2026-08-25T11:08:05+00:00</time>
      </trkpt>
      <trkpt lat="50.23913" lon="4.92528">
        <ele>183</ele>
        <time>2026-08-25T11:08:08+00:00</time>
      </trkpt>
      <trkpt lat="50.23904" lon="4.92566">
        <ele>182</ele>
        <time>2026-08-25T11:08:11+00:00</time>
      </trkpt>
      <trkpt lat="50.2389" lon="4.92623">
        <ele>183</ele>
        <time>2026-08-25T11:08:14+00:00</time>
      </trkpt>
      <trkpt lat="50.23879" lon="4.92658">
        <ele>184</ele>
        <time>2026-08-25T11:08:17+00:00</time>
      </trkpt>
      <trkpt lat="50.23875" lon="4.92677">
        <ele>185</ele>
        <time>2026-08-25T11:08:20+00:00</time>
      </trkpt>
      <trkpt lat="50.23865" lon="4.92718">
        <ele>188</ele>
        <time>2026-08-25T11:08:23+00:00</time>
      </trkpt>
      <trkpt lat="50.23855" lon="4.92759">
        <ele>193</ele>
        <time>2026-08-25T11:08:26+00:00</time>
      </trkpt>
      <trkpt lat="50.23838" lon="4.9283">
        <ele>198</ele>
        <time>2026-08-25T11:08:29+00:00</time>
      </trkpt>
      <trkpt lat="50.23834" lon="4.92874">
        <ele>199</ele>
        <time>2026-08-25T11:08:32+00:00</time>
      </trkpt>
      <trkpt lat="50.2383" lon="4.92904">
        <ele>201</ele>
        <time>2026-08-25T11:08:35+00:00</time>
      </trkpt>
      <trkpt lat="50.23825" lon="4.92921">
        <ele>202</ele>
        <time>2026-08-25T11:08:38+00:00</time>
      </trkpt>
      <trkpt lat="50.23815" lon="4.92946">
        <ele>203</ele>
        <time>2026-08-25T11:08:41+00:00</time>
      </trkpt>
      <trkpt lat="50.2381" lon="4.92962">
        <ele>205</ele>
        <time>2026-08-25T11:08:44+00:00</time>
      </trkpt>
      <trkpt lat="50.23801" lon="4.92996">
        <ele>207</ele>
        <time>2026-08-25T11:08:47+00:00</time>
      </trkpt>
      <trkpt lat="50.23786" lon="4.93054">
        <ele>213</ele>
        <time>2026-08-25T11:08:50+00:00</time>
      </trkpt>
      <trkpt lat="50.23775" lon="4.93086">
        <ele>215</ele>
        <time>2026-08-25T11:08:53+00:00</time>
      </trkpt>
      <trkpt lat="50.23766" lon="4.93129">
        <ele>217</ele>
        <time>2026-08-25T11:08:56+00:00</time>
      </trkpt>
      <trkpt lat="50.23759" lon="4.93156">
        <ele>219</ele>
        <time>2026-08-25T11:08:59+00:00</time>
      </trkpt>
      <trkpt lat="50.23747" lon="4.93187">
        <ele>221</ele>
        <time>2026-08-25T11:09:02+00:00</time>
      </trkpt>
      <trkpt lat="50.23736" lon="4.93209">
        <ele>223</ele>
        <time>2026-08-25T11:09:05+00:00</time>
      </trkpt>
      <trkpt lat="50.23713" lon="4.93247">
        <ele>226</ele>
        <time>2026-08-25T11:09:08+00:00</time>
      </trkpt>
      <trkpt lat="50.23698" lon="4.93276">
        <ele>230</ele>
        <time>2026-08-25T11:09:11+00:00</time>
      </trkpt>
      <trkpt lat="50.2368" lon="4.93311">
        <ele>234</ele>
        <time>2026-08-25T11:09:14+00:00</time>
      </trkpt>
      <trkpt lat="50.23659" lon="4.93348">
        <ele>237</ele>
        <time>2026-08-25T11:09:17+00:00</time>
      </trkpt>
      <trkpt lat="50.23643" lon="4.9337">
        <ele>240</ele>
        <time>2026-08-25T11:09:20+00:00</time>
      </trkpt>
      <trkpt lat="50.23608" lon="4.93392">
        <ele>242</ele>
        <time>2026-08-25T11:09:23+00:00</time>
      </trkpt>
      <trkpt lat="50.23593" lon="4.93408">
        <ele>243</ele>
        <time>2026-08-25T11:09:26+00:00</time>
      </trkpt>
      <trkpt lat="50.23599" lon="4.93437">
        <ele>244</ele>
        <time>2026-08-25T11:09:29+00:00</time>
      </trkpt>
      <trkpt lat="50.23604" lon="4.93471">
        <ele>245</ele>
        <time>2026-08-25T11:09:32+00:00</time>
      </trkpt>
      <trkpt lat="50.23609" lon="4.93507">
        <ele>246</ele>
        <time>2026-08-25T11:09:35+00:00</time>
      </trkpt>
      <trkpt lat="50.23613" lon="4.93553">
        <ele>247</ele>
        <time>2026-08-25T11:09:38+00:00</time>
      </trkpt>
      <trkpt lat="50.23617" lon="4.936">
        <ele>248</ele>
        <time>2026-08-25T11:09:41+00:00</time>
      </trkpt>
      <trkpt lat="50.23623" lon="4.93659">
        <ele>248</ele>
        <time>2026-08-25T11:09:44+00:00</time>
      </trkpt>
      <trkpt lat="50.23628" lon="4.93708">
        <ele>251</ele>
        <time>2026-08-25T11:09:47+00:00</time>
      </trkpt>
      <trkpt lat="50.23643" lon="4.93767">
        <ele>252</ele>
        <time>2026-08-25T11:09:50+00:00</time>
      </trkpt>
      <trkpt lat="50.23634" lon="4.93781">
        <ele>253</ele>
        <time>2026-08-25T11:09:53+00:00</time>
      </trkpt>
      <trkpt lat="50.23616" lon="4.9379">
        <ele>252</ele>
        <time>2026-08-25T11:09:56+00:00</time>
      </trkpt>
      <trkpt lat="50.23589" lon="4.93806">
        <ele>248</ele>
        <time>2026-08-25T11:09:59+00:00</time>
      </trkpt>
      <trkpt lat="50.23537" lon="4.93838">
        <ele>246</ele>
        <time>2026-08-25T11:10:02+00:00</time>
      </trkpt>
      <trkpt lat="50.23535" lon="4.93838">
        <ele>246</ele>
        <time>2026-08-25T11:10:05+00:00</time>
      </trkpt>
      <trkpt lat="50.23536" lon="4.93827">
        <ele>246</ele>
        <time>2026-08-25T11:10:08+00:00</time>
      </trkpt>
      <trkpt lat="50.23517" lon="4.9382">
        <ele>244</ele>
        <time>2026-08-25T11:10:11+00:00</time>
      </trkpt>
      <trkpt lat="50.23493" lon="4.93812">
        <ele>243</ele>
        <time>2026-08-25T11:10:14+00:00</time>
      </trkpt>
      <trkpt lat="50.23476" lon="4.93808">
        <ele>241</ele>
        <time>2026-08-25T11:10:17+00:00</time>
      </trkpt>
      <trkpt lat="50.23477" lon="4.93768">
        <ele>239</ele>
        <time>2026-08-25T11:10:20+00:00</time>
      </trkpt>
      <trkpt lat="50.23451" lon="4.93766">
        <ele>238</ele>
        <time>2026-08-25T11:10:23+00:00</time>
      </trkpt>
      <trkpt lat="50.2341" lon="4.93763">
        <ele>236</ele>
        <time>2026-08-25T11:10:26+00:00</time>
      </trkpt>
      <trkpt lat="50.23382" lon="4.93756">
        <ele>234</ele>
        <time>2026-08-25T11:10:29+00:00</time>
      </trkpt>
      <trkpt lat="50.23382" lon="4.93735">
        <ele>233</ele>
        <time>2026-08-25T11:10:32+00:00</time>
      </trkpt>
      <trkpt lat="50.23378" lon="4.93728">
        <ele>232</ele>
        <time>2026-08-25T11:10:35+00:00</time>
      </trkpt>
      <trkpt lat="50.23371" lon="4.93728">
        <ele>232</ele>
        <time>2026-08-25T11:10:38+00:00</time>
      </trkpt>
      <trkpt lat="50.2334" lon="4.93723">
        <ele>231</ele>
        <time>2026-08-25T11:10:41+00:00</time>
      </trkpt>
      <trkpt lat="50.23309" lon="4.93717">
        <ele>229</ele>
        <time>2026-08-25T11:10:44+00:00</time>
      </trkpt>
      <trkpt lat="50.23278" lon="4.93712">
        <ele>226</ele>
        <time>2026-08-25T11:10:47+00:00</time>
      </trkpt>
      <trkpt lat="50.23243" lon="4.93706">
        <ele>224</ele>
        <time>2026-08-25T11:10:50+00:00</time>
      </trkpt>
      <trkpt lat="50.23216" lon="4.93757">
        <ele>224</ele>
        <time>2026-08-25T11:10:53+00:00</time>
      </trkpt>
      <trkpt lat="50.23195" lon="4.93793">
        <ele>224</ele>
        <time>2026-08-25T11:10:56+00:00</time>
      </trkpt>
      <trkpt lat="50.23174" lon="4.9383">
        <ele>223</ele>
        <time>2026-08-25T11:10:59+00:00</time>
      </trkpt>
      <trkpt lat="50.23137" lon="4.93893">
        <ele>222</ele>
        <time>2026-08-25T11:11:02+00:00</time>
      </trkpt>
      <trkpt lat="50.23114" lon="4.9393">
        <ele>220</ele>
        <time>2026-08-25T11:11:05+00:00</time>
      </trkpt>
      <trkpt lat="50.23098" lon="4.93959">
        <ele>219</ele>
        <time>2026-08-25T11:11:08+00:00</time>
      </trkpt>
      <trkpt lat="50.23092" lon="4.93988">
        <ele>218</ele>
        <time>2026-08-25T11:11:11+00:00</time>
      </trkpt>
      <trkpt lat="50.23092" lon="4.94005">
        <ele>217</ele>
        <time>2026-08-25T11:11:14+00:00</time>
      </trkpt>
      <trkpt lat="50.23096" lon="4.94041">
        <ele>217</ele>
        <time>2026-08-25T11:11:17+00:00</time>
      </trkpt>
      <trkpt lat="50.23096" lon="4.94053">
        <ele>215</ele>
        <time>2026-08-25T11:11:20+00:00</time>
      </trkpt>
      <trkpt lat="50.23093" lon="4.94067">
        <ele>216</ele>
        <time>2026-08-25T11:11:23+00:00</time>
      </trkpt>
      <trkpt lat="50.2309" lon="4.94078">
        <ele>217</ele>
        <time>2026-08-25T11:11:26+00:00</time>
      </trkpt>
      <trkpt lat="50.2308" lon="4.94099">
        <ele>216</ele>
        <time>2026-08-25T11:11:29+00:00</time>
      </trkpt>
      <trkpt lat="50.23058" lon="4.94134">
        <ele>217</ele>
        <time>2026-08-25T11:11:32+00:00</time>
      </trkpt>
      <trkpt lat="50.23036" lon="4.9417">
        <ele>218</ele>
        <time>2026-08-25T11:11:35+00:00</time>
      </trkpt>
      <trkpt lat="50.23014" lon="4.94205">
        <ele>219</ele>
        <time>2026-08-25T11:11:38+00:00</time>
      </trkpt>
      <trkpt lat="50.22992" lon="4.9424">
        <ele>220</ele>
        <time>2026-08-25T11:11:41+00:00</time>
      </trkpt>
      <trkpt lat="50.22967" lon="4.94281">
        <ele>223</ele>
        <time>2026-08-25T11:11:44+00:00</time>
      </trkpt>
      <trkpt lat="50.22949" lon="4.94306">
        <ele>226</ele>
        <time>2026-08-25T11:11:47+00:00</time>
      </trkpt>
      <trkpt lat="50.22924" lon="4.94333">
        <ele>228</ele>
        <time>2026-08-25T11:11:50+00:00</time>
      </trkpt>
      <trkpt lat="50.22898" lon="4.9436">
        <ele>229</ele>
        <time>2026-08-25T11:11:53+00:00</time>
      </trkpt>
      <trkpt lat="50.2286" lon="4.94401">
        <ele>231</ele>
        <time>2026-08-25T11:11:56+00:00</time>
      </trkpt>
      <trkpt lat="50.22852" lon="4.94411">
        <ele>231</ele>
        <time>2026-08-25T11:11:59+00:00</time>
      </trkpt>
      <trkpt lat="50.2284" lon="4.94431">
        <ele>231</ele>
        <time>2026-08-25T11:12:02+00:00</time>
      </trkpt>
      <trkpt lat="50.22832" lon="4.94447">
        <ele>231</ele>
        <time>2026-08-25T11:12:05+00:00</time>
      </trkpt>
      <trkpt lat="50.22811" lon="4.94454">
        <ele>231</ele>
        <time>2026-08-25T11:12:08+00:00</time>
      </trkpt>
      <trkpt lat="50.22778" lon="4.94465">
        <ele>230</ele>
        <time>2026-08-25T11:12:11+00:00</time>
      </trkpt>
      <trkpt lat="50.22755" lon="4.94468">
        <ele>228</ele>
        <time>2026-08-25T11:12:14+00:00</time>
      </trkpt>
      <trkpt lat="50.2273" lon="4.94476">
        <ele>226</ele>
        <time>2026-08-25T11:12:17+00:00</time>
      </trkpt>
      <trkpt lat="50.22695" lon="4.94488">
        <ele>222</ele>
        <time>2026-08-25T11:12:20+00:00</time>
      </trkpt>
      <trkpt lat="50.22672" lon="4.94502">
        <ele>220</ele>
        <time>2026-08-25T11:12:23+00:00</time>
      </trkpt>
      <trkpt lat="50.22648" lon="4.94499">
        <ele>217</ele>
        <time>2026-08-25T11:12:26+00:00</time>
      </trkpt>
      <trkpt lat="50.2262" lon="4.94495">
        <ele>214</ele>
        <time>2026-08-25T11:12:29+00:00</time>
      </trkpt>
      <trkpt lat="50.22594" lon="4.94497">
        <ele>210</ele>
        <time>2026-08-25T11:12:32+00:00</time>
      </trkpt>
      <trkpt lat="50.22555" lon="4.945">
        <ele>203</ele>
        <time>2026-08-25T11:12:35+00:00</time>
      </trkpt>
      <trkpt lat="50.22524" lon="4.94501">
        <ele>200</ele>
        <time>2026-08-25T11:12:38+00:00</time>
      </trkpt>
      <trkpt lat="50.22492" lon="4.94502">
        <ele>197</ele>
        <time>2026-08-25T11:12:41+00:00</time>
      </trkpt>
      <trkpt lat="50.22439" lon="4.94504">
        <ele>194</ele>
        <time>2026-08-25T11:12:44+00:00</time>
      </trkpt>
      <trkpt lat="50.22412" lon="4.94505">
        <ele>197</ele>
        <time>2026-08-25T11:12:47+00:00</time>
      </trkpt>
      <trkpt lat="50.22367" lon="4.94508">
        <ele>201</ele>
        <time>2026-08-25T11:12:50+00:00</time>
      </trkpt>
      <trkpt lat="50.22349" lon="4.94505">
        <ele>202</ele>
        <time>2026-08-25T11:12:53+00:00</time>
      </trkpt>
      <trkpt lat="50.22314" lon="4.94486">
        <ele>207</ele>
        <time>2026-08-25T11:12:56+00:00</time>
      </trkpt>
      <trkpt lat="50.22288" lon="4.94474">
        <ele>211</ele>
        <time>2026-08-25T11:12:59+00:00</time>
      </trkpt>
      <trkpt lat="50.22283" lon="4.94476">
        <ele>211</ele>
        <time>2026-08-25T11:13:02+00:00</time>
      </trkpt>
      <trkpt lat="50.22262" lon="4.94469">
        <ele>211</ele>
        <time>2026-08-25T11:13:05+00:00</time>
      </trkpt>
      <trkpt lat="50.2224" lon="4.94454">
        <ele>211</ele>
        <time>2026-08-25T11:13:08+00:00</time>
      </trkpt>
      <trkpt lat="50.22211" lon="4.94449">
        <ele>209</ele>
        <time>2026-08-25T11:13:11+00:00</time>
      </trkpt>
      <trkpt lat="50.22183" lon="4.94437">
        <ele>203</ele>
        <time>2026-08-25T11:13:14+00:00</time>
      </trkpt>
      <trkpt lat="50.22162" lon="4.94438">
        <ele>200</ele>
        <time>2026-08-25T11:13:17+00:00</time>
      </trkpt>
      <trkpt lat="50.22123" lon="4.9441">
        <ele>198</ele>
        <time>2026-08-25T11:13:20+00:00</time>
      </trkpt>
      <trkpt lat="50.2211" lon="4.94403">
        <ele>199</ele>
        <time>2026-08-25T11:13:23+00:00</time>
      </trkpt>
      <trkpt lat="50.22098" lon="4.94411">
        <ele>200</ele>
        <time>2026-08-25T11:13:26+00:00</time>
      </trkpt>
      <trkpt lat="50.22079" lon="4.94399">
        <ele>198</ele>
        <time>2026-08-25T11:13:29+00:00</time>
      </trkpt>
      <trkpt lat="50.22069" lon="4.944">
        <ele>197</ele>
        <time>2026-08-25T11:13:32+00:00</time>
      </trkpt>
      <trkpt lat="50.22051" lon="4.94394">
        <ele>196</ele>
        <time>2026-08-25T11:13:35+00:00</time>
      </trkpt>
      <trkpt lat="50.22043" lon="4.94397">
        <ele>191</ele>
        <time>2026-08-25T11:13:38+00:00</time>
      </trkpt>
      <trkpt lat="50.22035" lon="4.94411">
        <ele>180</ele>
        <time>2026-08-25T11:13:41+00:00</time>
      </trkpt>
      <trkpt lat="50.22032" lon="4.94421">
        <ele>176</ele>
        <time>2026-08-25T11:13:44+00:00</time>
      </trkpt>
      <trkpt lat="50.22021" lon="4.94421">
        <ele>172</ele>
        <time>2026-08-25T11:13:47+00:00</time>
      </trkpt>
      <trkpt lat="50.2201" lon="4.94426">
        <ele>168</ele>
        <time>2026-08-25T11:13:50+00:00</time>
      </trkpt>
      <trkpt lat="50.22004" lon="4.94415">
        <ele>168</ele>
        <time>2026-08-25T11:13:53+00:00</time>
      </trkpt>
      <trkpt lat="50.21999" lon="4.94422">
        <ele>163</ele>
        <time>2026-08-25T11:13:56+00:00</time>
      </trkpt>
      <trkpt lat="50.21996" lon="4.94423">
        <ele>163</ele>
        <time>2026-08-25T11:13:59+00:00</time>
      </trkpt>
      <trkpt lat="50.2199" lon="4.94422">
        <ele>160</ele>
        <time>2026-08-25T11:14:02+00:00</time>
      </trkpt>
      <trkpt lat="50.21985" lon="4.94431">
        <ele>158</ele>
        <time>2026-08-25T11:14:05+00:00</time>
      </trkpt>
      <trkpt lat="50.21981" lon="4.94433">
        <ele>158</ele>
        <time>2026-08-25T11:14:08+00:00</time>
      </trkpt>
      <trkpt lat="50.21976" lon="4.94429">
        <ele>158</ele>
        <time>2026-08-25T11:14:11+00:00</time>
      </trkpt>
      <trkpt lat="50.21962" lon="4.94448">
        <ele>153</ele>
        <time>2026-08-25T11:14:14+00:00</time>
      </trkpt>
      <trkpt lat="50.21958" lon="4.94447">
        <ele>149</ele>
        <time>2026-08-25T11:14:17+00:00</time>
      </trkpt>
      <trkpt lat="50.21954" lon="4.94444">
        <ele>149</ele>
        <time>2026-08-25T11:14:20+00:00</time>
      </trkpt>
      <trkpt lat="50.21941" lon="4.94451">
        <ele>145</ele>
        <time>2026-08-25T11:14:23+00:00</time>
      </trkpt>
      <trkpt lat="50.21926" lon="4.94453">
        <ele>136</ele>
        <time>2026-08-25T11:14:26+00:00</time>
      </trkpt>
      <trkpt lat="50.21915" lon="4.94451">
        <ele>132</ele>
        <time>2026-08-25T11:14:29+00:00</time>
      </trkpt>
      <trkpt lat="50.21917" lon="4.94469">
        <ele>130</ele>
        <time>2026-08-25T11:14:32+00:00</time>
      </trkpt>
      <trkpt lat="50.21918" lon="4.94474">
        <ele>128</ele>
        <time>2026-08-25T11:14:35+00:00</time>
      </trkpt>
      <trkpt lat="50.21903" lon="4.94502">
        <ele>119</ele>
        <time>2026-08-25T11:14:38+00:00</time>
      </trkpt>
      <trkpt lat="50.219" lon="4.9451">
        <ele>115</ele>
        <time>2026-08-25T11:14:41+00:00</time>
      </trkpt>
      <trkpt lat="50.21885" lon="4.9451">
        <ele>114</ele>
        <time>2026-08-25T11:14:44+00:00</time>
      </trkpt>
      <trkpt lat="50.21874" lon="4.9452">
        <ele>112</ele>
        <time>2026-08-25T11:14:47+00:00</time>
      </trkpt>
      <trkpt lat="50.21867" lon="4.94531">
        <ele>110</ele>
        <time>2026-08-25T11:14:50+00:00</time>
      </trkpt>
      <trkpt lat="50.21864" lon="4.9454">
        <ele>110</ele>
        <time>2026-08-25T11:14:53+00:00</time>
      </trkpt>
      <trkpt lat="50.21854" lon="4.94559">
        <ele>109</ele>
        <time>2026-08-25T11:14:56+00:00</time>
      </trkpt>
      <trkpt lat="50.21831" lon="4.94567">
        <ele>109</ele>
        <time>2026-08-25T11:14:59+00:00</time>
      </trkpt>
      <trkpt lat="50.21825" lon="4.94558">
        <ele>107</ele>
        <time>2026-08-25T11:15:02+00:00</time>
      </trkpt>
      <trkpt lat="50.2183" lon="4.94547">
        <ele>108</ele>
        <time>2026-08-25T11:15:05+00:00</time>
      </trkpt>
      <trkpt lat="50.21832" lon="4.94518">
        <ele>109</ele>
        <time>2026-08-25T11:15:08+00:00</time>
      </trkpt>
      <trkpt lat="50.21835" lon="4.94517">
        <ele>109</ele>
        <time>2026-08-25T11:15:11+00:00</time>
      </trkpt>
      <trkpt lat="50.21839" lon="4.94541">
        <ele>108</ele>
        <time>2026-08-25T11:15:14+00:00</time>
      </trkpt>
      <trkpt lat="50.21841" lon="4.94558">
        <ele>108</ele>
        <time>2026-08-25T11:15:17+00:00</time>
      </trkpt>
      <trkpt lat="50.2184" lon="4.94586">
        <ele>110</ele>
        <time>2026-08-25T11:15:20+00:00</time>
      </trkpt>
      <trkpt lat="50.2184" lon="4.9462">
        <ele>112</ele>
        <time>2026-08-25T11:15:23+00:00</time>
      </trkpt>
      <trkpt lat="50.21838" lon="4.94642">
        <ele>121</ele>
        <time>2026-08-25T11:15:26+00:00</time>
      </trkpt>
      <trkpt lat="50.21837" lon="4.94647">
        <ele>121</ele>
        <time>2026-08-25T11:15:29+00:00</time>
      </trkpt>
      <trkpt lat="50.21832" lon="4.94652">
        <ele>122</ele>
        <time>2026-08-25T11:15:32+00:00</time>
      </trkpt>
      <trkpt lat="50.21829" lon="4.94651">
        <ele>129</ele>
        <time>2026-08-25T11:15:35+00:00</time>
      </trkpt>
      <trkpt lat="50.21825" lon="4.94641">
        <ele>128</ele>
        <time>2026-08-25T11:15:38+00:00</time>
      </trkpt>
      <trkpt lat="50.21829" lon="4.94636">
        <ele>115</ele>
        <time>2026-08-25T11:15:41+00:00</time>
      </trkpt>
      <trkpt lat="50.21843" lon="4.94634">
        <ele>113</ele>
        <time>2026-08-25T11:15:44+00:00</time>
      </trkpt>
      <trkpt lat="50.2185" lon="4.94631">
        <ele>110</ele>
        <time>2026-08-25T11:15:47+00:00</time>
      </trkpt>
      <trkpt lat="50.21869" lon="4.94614">
        <ele>108</ele>
        <time>2026-08-25T11:15:50+00:00</time>
      </trkpt>
      <trkpt lat="50.21889" lon="4.94596">
        <ele>106</ele>
        <time>2026-08-25T11:15:53+00:00</time>
      </trkpt>
      <trkpt lat="50.21899" lon="4.94588">
        <ele>107</ele>
        <time>2026-08-25T11:15:56+00:00</time>
      </trkpt>
      <trkpt lat="50.2191" lon="4.94585">
        <ele>105</ele>
        <time>2026-08-25T11:15:59+00:00</time>
      </trkpt>
      <trkpt lat="50.21915" lon="4.94623">
        <ele>104</ele>
        <time>2026-08-25T11:16:02+00:00</time>
      </trkpt>
      <trkpt lat="50.21917" lon="4.94635">
        <ele>100</ele>
        <time>2026-08-25T11:16:05+00:00</time>
      </trkpt>
      <trkpt lat="50.21919" lon="4.94666">
        <ele>104</ele>
        <time>2026-08-25T11:16:08+00:00</time>
      </trkpt>
      <trkpt lat="50.21919" lon="4.94705">
        <ele>105</ele>
        <time>2026-08-25T11:16:11+00:00</time>
      </trkpt>
      <trkpt lat="50.21921" lon="4.94713">
        <ele>103</ele>
        <time>2026-08-25T11:16:14+00:00</time>
      </trkpt>
      <trkpt lat="50.21935" lon="4.94747">
        <ele>106</ele>
        <time>2026-08-25T11:16:17+00:00</time>
      </trkpt>
      <trkpt lat="50.21939" lon="4.94763">
        <ele>108</ele>
        <time>2026-08-25T11:16:20+00:00</time>
      </trkpt>
      <trkpt lat="50.21941" lon="4.94781">
        <ele>107</ele>
        <time>2026-08-25T11:16:23+00:00</time>
      </trkpt>
      <trkpt lat="50.21939" lon="4.94797">
        <ele>109</ele>
        <time>2026-08-25T11:16:26+00:00</time>
      </trkpt>
      <trkpt lat="50.21932" lon="4.94818">
        <ele>109</ele>
        <time>2026-08-25T11:16:29+00:00</time>
      </trkpt>
      <trkpt lat="50.2193" lon="4.94819">
        <ele>109</ele>
        <time>2026-08-25T11:16:32+00:00</time>
      </trkpt>
      <trkpt lat="50.21932" lon="4.94818">
        <ele>109</ele>
        <time>2026-08-25T11:16:35+00:00</time>
      </trkpt>
      <trkpt lat="50.21923" lon="4.94835">
        <ele>109</ele>
        <time>2026-08-25T11:16:38+00:00</time>
      </trkpt>
      <trkpt lat="50.21921" lon="4.94843">
        <ele>109</ele>
        <time>2026-08-25T11:16:41+00:00</time>
      </trkpt>
      <trkpt lat="50.21913" lon="4.94863">
        <ele>109</ele>
        <time>2026-08-25T11:16:44+00:00</time>
      </trkpt>
      <trkpt lat="50.2189" lon="4.94901">
        <ele>109</ele>
        <time>2026-08-25T11:16:47+00:00</time>
      </trkpt>
      <trkpt lat="50.21884" lon="4.94908">
        <ele>109</ele>
        <time>2026-08-25T11:16:50+00:00</time>
      </trkpt>
      <trkpt lat="50.21859" lon="4.94923">
        <ele>109</ele>
        <time>2026-08-25T11:16:53+00:00</time>
      </trkpt>
      <trkpt lat="50.21837" lon="4.9493">
        <ele>109</ele>
        <time>2026-08-25T11:16:56+00:00</time>
      </trkpt>
      <trkpt lat="50.21815" lon="4.94937">
        <ele>107</ele>
        <time>2026-08-25T11:16:59+00:00</time>
      </trkpt>
      <trkpt lat="50.21801" lon="4.94945">
        <ele>105</ele>
        <time>2026-08-25T11:17:02+00:00</time>
      </trkpt>
      <trkpt lat="50.21788" lon="4.9495">
        <ele>106</ele>
        <time>2026-08-25T11:17:05+00:00</time>
      </trkpt>
      <trkpt lat="50.21782" lon="4.94952">
        <ele>104</ele>
        <time>2026-08-25T11:17:08+00:00</time>
      </trkpt>
      <trkpt lat="50.21754" lon="4.94951">
        <ele>103</ele>
        <time>2026-08-25T11:17:11+00:00</time>
      </trkpt>
      <trkpt lat="50.21747" lon="4.94954">
        <ele>105</ele>
        <time>2026-08-25T11:17:14+00:00</time>
      </trkpt>
      <trkpt lat="50.2174" lon="4.9498">
        <ele>101</ele>
        <time>2026-08-25T11:17:17+00:00</time>
      </trkpt>
      <trkpt lat="50.21733" lon="4.94998">
        <ele>100</ele>
        <time>2026-08-25T11:17:20+00:00</time>
      </trkpt>
      <trkpt lat="50.21729" lon="4.95014">
        <ele>102</ele>
        <time>2026-08-25T11:17:23+00:00</time>
      </trkpt>
      <trkpt lat="50.21724" lon="4.95048">
        <ele>103</ele>
        <time>2026-08-25T11:17:26+00:00</time>
      </trkpt>
      <trkpt lat="50.21724" lon="4.95058">
        <ele>104</ele>
        <time>2026-08-25T11:17:29+00:00</time>
      </trkpt>
      <trkpt lat="50.21726" lon="4.95065">
        <ele>106</ele>
        <time>2026-08-25T11:17:32+00:00</time>
      </trkpt>
      <trkpt lat="50.21717" lon="4.95095">
        <ele>104</ele>
        <time>2026-08-25T11:17:35+00:00</time>
      </trkpt>
      <trkpt lat="50.21704" lon="4.95138">
        <ele>113</ele>
        <time>2026-08-25T11:17:38+00:00</time>
      </trkpt>
      <trkpt lat="50.21702" lon="4.95143">
        <ele>115</ele>
        <time>2026-08-25T11:17:41+00:00</time>
      </trkpt>
      <trkpt lat="50.21677" lon="4.95148">
        <ele>116</ele>
        <time>2026-08-25T11:17:44+00:00</time>
      </trkpt>
      <trkpt lat="50.21662" lon="4.95145">
        <ele>119</ele>
        <time>2026-08-25T11:17:47+00:00</time>
      </trkpt>
      <trkpt lat="50.21648" lon="4.95148">
        <ele>119</ele>
        <time>2026-08-25T11:17:50+00:00</time>
      </trkpt>
      <trkpt lat="50.21633" lon="4.95145">
        <ele>121</ele>
        <time>2026-08-25T11:17:53+00:00</time>
      </trkpt>
      <trkpt lat="50.21613" lon="4.95133">
        <ele>121</ele>
        <time>2026-08-25T11:17:56+00:00</time>
      </trkpt>
      <trkpt lat="50.21593" lon="4.95127">
        <ele>122</ele>
        <time>2026-08-25T11:17:59+00:00</time>
      </trkpt>
      <trkpt lat="50.21582" lon="4.95118">
        <ele>122</ele>
        <time>2026-08-25T11:18:02+00:00</time>
      </trkpt>
      <trkpt lat="50.21569" lon="4.95104">
        <ele>118</ele>
        <time>2026-08-25T11:18:05+00:00</time>
      </trkpt>
      <trkpt lat="50.21556" lon="4.95089">
        <ele>116</ele>
        <time>2026-08-25T11:18:08+00:00</time>
      </trkpt>
      <trkpt lat="50.21531" lon="4.95043">
        <ele>115</ele>
        <time>2026-08-25T11:18:11+00:00</time>
      </trkpt>
      <trkpt lat="50.21511" lon="4.95">
        <ele>107</ele>
        <time>2026-08-25T11:18:14+00:00</time>
      </trkpt>
      <trkpt lat="50.21497" lon="4.94985">
        <ele>107</ele>
        <time>2026-08-25T11:18:17+00:00</time>
      </trkpt>
      <trkpt lat="50.21487" lon="4.94976">
        <ele>106</ele>
        <time>2026-08-25T11:18:20+00:00</time>
      </trkpt>
      <trkpt lat="50.21463" lon="4.94959">
        <ele>106</ele>
        <time>2026-08-25T11:18:23+00:00</time>
      </trkpt>
      <trkpt lat="50.21426" lon="4.94934">
        <ele>106</ele>
        <time>2026-08-25T11:18:26+00:00</time>
      </trkpt>
      <trkpt lat="50.21404" lon="4.9493">
        <ele>106</ele>
        <time>2026-08-25T11:18:29+00:00</time>
      </trkpt>
      <trkpt lat="50.21383" lon="4.94927">
        <ele>106</ele>
        <time>2026-08-25T11:18:32+00:00</time>
      </trkpt>
      <trkpt lat="50.21386" lon="4.94935">
        <ele>106</ele>
        <time>2026-08-25T11:18:35+00:00</time>
      </trkpt>
      <trkpt lat="50.21383" lon="4.94927">
        <ele>106</ele>
        <time>2026-08-25T11:18:38+00:00</time>
      </trkpt>
      <trkpt lat="50.21363" lon="4.9493">
        <ele>107</ele>
        <time>2026-08-25T11:18:41+00:00</time>
      </trkpt>
      <trkpt lat="50.21336" lon="4.94935">
        <ele>107</ele>
        <time>2026-08-25T11:18:44+00:00</time>
      </trkpt>
      <trkpt lat="50.21319" lon="4.94944">
        <ele>107</ele>
        <time>2026-08-25T11:18:47+00:00</time>
      </trkpt>
      <trkpt lat="50.21304" lon="4.94962">
        <ele>105</ele>
        <time>2026-08-25T11:18:50+00:00</time>
      </trkpt>
      <trkpt lat="50.21293" lon="4.94979">
        <ele>104</ele>
        <time>2026-08-25T11:18:53+00:00</time>
      </trkpt>
      <trkpt lat="50.21289" lon="4.94979">
        <ele>104</ele>
        <time>2026-08-25T11:18:56+00:00</time>
      </trkpt>
      <trkpt lat="50.21293" lon="4.94979">
        <ele>104</ele>
        <time>2026-08-25T11:18:59+00:00</time>
      </trkpt>
      <trkpt lat="50.21288" lon="4.94987">
        <ele>103</ele>
        <time>2026-08-25T11:19:02+00:00</time>
      </trkpt>
      <trkpt lat="50.21283" lon="4.95004">
        <ele>104</ele>
        <time>2026-08-25T11:19:05+00:00</time>
      </trkpt>
      <trkpt lat="50.21282" lon="4.95013">
        <ele>108</ele>
        <time>2026-08-25T11:19:08+00:00</time>
      </trkpt>
      <trkpt lat="50.21287" lon="4.9502">
        <ele>108</ele>
        <time>2026-08-25T11:19:11+00:00</time>
      </trkpt>
      <trkpt lat="50.21263" lon="4.95014">
        <ele>110</ele>
        <time>2026-08-25T11:19:14+00:00</time>
      </trkpt>
      <trkpt lat="50.21216" lon="4.95002">
        <ele>111</ele>
        <time>2026-08-25T11:19:17+00:00</time>
      </trkpt>
      <trkpt lat="50.21192" lon="4.94997">
        <ele>109</ele>
        <time>2026-08-25T11:19:20+00:00</time>
      </trkpt>
      <trkpt lat="50.21159" lon="4.94991">
        <ele>107</ele>
        <time>2026-08-25T11:19:23+00:00</time>
      </trkpt>
      <trkpt lat="50.21139" lon="4.94993">
        <ele>104</ele>
        <time>2026-08-25T11:19:26+00:00</time>
      </trkpt>
      <trkpt lat="50.21121" lon="4.94999">
        <ele>104</ele>
        <time>2026-08-25T11:19:29+00:00</time>
      </trkpt>
      <trkpt lat="50.2111" lon="4.95006">
        <ele>105</ele>
        <time>2026-08-25T11:19:32+00:00</time>
      </trkpt>
      <trkpt lat="50.21096" lon="4.95023">
        <ele>104</ele>
        <time>2026-08-25T11:19:35+00:00</time>
      </trkpt>
      <trkpt lat="50.21086" lon="4.95041">
        <ele>102</ele>
        <time>2026-08-25T11:19:38+00:00</time>
      </trkpt>
      <trkpt lat="50.21076" lon="4.95063">
        <ele>105</ele>
        <time>2026-08-25T11:19:41+00:00</time>
      </trkpt>
      <trkpt lat="50.21071" lon="4.95078">
        <ele>107</ele>
        <time>2026-08-25T11:19:44+00:00</time>
      </trkpt>
      <trkpt lat="50.21065" lon="4.95107">
        <ele>109</ele>
        <time>2026-08-25T11:19:47+00:00</time>
      </trkpt>
      <trkpt lat="50.21057" lon="4.95143">
        <ele>111</ele>
        <time>2026-08-25T11:19:50+00:00</time>
      </trkpt>
      <trkpt lat="50.21051" lon="4.95178">
        <ele>113</ele>
        <time>2026-08-25T11:19:53+00:00</time>
      </trkpt>
      <trkpt lat="50.21044" lon="4.95218">
        <ele>113</ele>
        <time>2026-08-25T11:19:56+00:00</time>
      </trkpt>
      <trkpt lat="50.21036" lon="4.95252">
        <ele>113</ele>
        <time>2026-08-25T11:19:59+00:00</time>
      </trkpt>
      <trkpt lat="50.21026" lon="4.95293">
        <ele>111</ele>
        <time>2026-08-25T11:20:02+00:00</time>
      </trkpt>
      <trkpt lat="50.2102" lon="4.95332">
        <ele>109</ele>
        <time>2026-08-25T11:20:05+00:00</time>
      </trkpt>
      <trkpt lat="50.2101" lon="4.95391">
        <ele>108</ele>
        <time>2026-08-25T11:20:08+00:00</time>
      </trkpt>
      <trkpt lat="50.21011" lon="4.95413">
        <ele>109</ele>
        <time>2026-08-25T11:20:11+00:00</time>
      </trkpt>
      <trkpt lat="50.21014" lon="4.95432">
        <ele>108</ele>
        <time>2026-08-25T11:20:14+00:00</time>
      </trkpt>
      <trkpt lat="50.2102" lon="4.95478">
        <ele>107</ele>
        <time>2026-08-25T11:20:17+00:00</time>
      </trkpt>
      <trkpt lat="50.21024" lon="4.95498">
        <ele>104</ele>
        <time>2026-08-25T11:20:20+00:00</time>
      </trkpt>
      <trkpt lat="50.21035" lon="4.95518">
        <ele>108</ele>
        <time>2026-08-25T11:20:23+00:00</time>
      </trkpt>
      <trkpt lat="50.21048" lon="4.95532">
        <ele>106</ele>
        <time>2026-08-25T11:20:26+00:00</time>
      </trkpt>
      <trkpt lat="50.21064" lon="4.95542">
        <ele>108</ele>
        <time>2026-08-25T11:20:29+00:00</time>
      </trkpt>
      <trkpt lat="50.21084" lon="4.95555">
        <ele>108</ele>
        <time>2026-08-25T11:20:32+00:00</time>
      </trkpt>
      <trkpt lat="50.21109" lon="4.95565">
        <ele>111</ele>
        <time>2026-08-25T11:20:35+00:00</time>
      </trkpt>
      <trkpt lat="50.21148" lon="4.95581">
        <ele>121</ele>
        <time>2026-08-25T11:20:38+00:00</time>
      </trkpt>
      <trkpt lat="50.21171" lon="4.95586">
        <ele>120</ele>
        <time>2026-08-25T11:20:41+00:00</time>
      </trkpt>
      <trkpt lat="50.21199" lon="4.95592">
        <ele>120</ele>
        <time>2026-08-25T11:20:44+00:00</time>
      </trkpt>
      <trkpt lat="50.21208" lon="4.95598">
        <ele>119</ele>
        <time>2026-08-25T11:20:47+00:00</time>
      </trkpt>
      <trkpt lat="50.21236" lon="4.95607">
        <ele>120</ele>
        <time>2026-08-25T11:20:50+00:00</time>
      </trkpt>
      <trkpt lat="50.21264" lon="4.95617">
        <ele>121</ele>
        <time>2026-08-25T11:20:53+00:00</time>
      </trkpt>
      <trkpt lat="50.21308" lon="4.95632">
        <ele>123</ele>
        <time>2026-08-25T11:20:56+00:00</time>
      </trkpt>
      <trkpt lat="50.21339" lon="4.95647">
        <ele>123</ele>
        <time>2026-08-25T11:20:59+00:00</time>
      </trkpt>
      <trkpt lat="50.21355" lon="4.95658">
        <ele>125</ele>
        <time>2026-08-25T11:21:02+00:00</time>
      </trkpt>
      <trkpt lat="50.21368" lon="4.95655">
        <ele>127</ele>
        <time>2026-08-25T11:21:05+00:00</time>
      </trkpt>
      <trkpt lat="50.21379" lon="4.95683">
        <ele>125</ele>
        <time>2026-08-25T11:21:08+00:00</time>
      </trkpt>
      <trkpt lat="50.21397" lon="4.95697">
        <ele>125</ele>
        <time>2026-08-25T11:21:11+00:00</time>
      </trkpt>
      <trkpt lat="50.21417" lon="4.95722">
        <ele>119</ele>
        <time>2026-08-25T11:21:14+00:00</time>
      </trkpt>
      <trkpt lat="50.21443" lon="4.95765">
        <ele>113</ele>
        <time>2026-08-25T11:21:17+00:00</time>
      </trkpt>
      <trkpt lat="50.21451" lon="4.95795">
        <ele>108</ele>
        <time>2026-08-25T11:21:20+00:00</time>
      </trkpt>
      <trkpt lat="50.21451" lon="4.95813">
        <ele>104</ele>
        <time>2026-08-25T11:21:23+00:00</time>
      </trkpt>
      <trkpt lat="50.21448" lon="4.95839">
        <ele>106</ele>
        <time>2026-08-25T11:21:26+00:00</time>
      </trkpt>
      <trkpt lat="50.21445" lon="4.95867">
        <ele>106</ele>
        <time>2026-08-25T11:21:29+00:00</time>
      </trkpt>
      <trkpt lat="50.21439" lon="4.9589">
        <ele>104</ele>
        <time>2026-08-25T11:21:32+00:00</time>
      </trkpt>
      <trkpt lat="50.21435" lon="4.95911">
        <ele>106</ele>
        <time>2026-08-25T11:21:35+00:00</time>
      </trkpt>
      <trkpt lat="50.21438" lon="4.95941">
        <ele>104</ele>
        <time>2026-08-25T11:21:38+00:00</time>
      </trkpt>
      <trkpt lat="50.21443" lon="4.95954">
        <ele>103</ele>
        <time>2026-08-25T11:21:41+00:00</time>
      </trkpt>
      <trkpt lat="50.21445" lon="4.95959">
        <ele>103</ele>
        <time>2026-08-25T11:21:44+00:00</time>
      </trkpt>
      <trkpt lat="50.21466" lon="4.95988">
        <ele>105</ele>
        <time>2026-08-25T11:21:47+00:00</time>
      </trkpt>
      <trkpt lat="50.2147" lon="4.95997">
        <ele>103</ele>
        <time>2026-08-25T11:21:50+00:00</time>
      </trkpt>
      <trkpt lat="50.21472" lon="4.96007">
        <ele>105</ele>
        <time>2026-08-25T11:21:53+00:00</time>
      </trkpt>
      <trkpt lat="50.21472" lon="4.96031">
        <ele>106</ele>
        <time>2026-08-25T11:21:56+00:00</time>
      </trkpt>
      <trkpt lat="50.21475" lon="4.96064">
        <ele>107</ele>
        <time>2026-08-25T11:21:59+00:00</time>
      </trkpt>
      <trkpt lat="50.21477" lon="4.961">
        <ele>108</ele>
        <time>2026-08-25T11:22:02+00:00</time>
      </trkpt>
      <trkpt lat="50.21479" lon="4.96141">
        <ele>108</ele>
        <time>2026-08-25T11:22:05+00:00</time>
      </trkpt>
      <trkpt lat="50.21464" lon="4.96182">
        <ele>108</ele>
        <time>2026-08-25T11:22:08+00:00</time>
      </trkpt>
      <trkpt lat="50.21458" lon="4.9619">
        <ele>109</ele>
        <time>2026-08-25T11:22:11+00:00</time>
      </trkpt>
      <trkpt lat="50.21464" lon="4.96199">
        <ele>109</ele>
        <time>2026-08-25T11:22:14+00:00</time>
      </trkpt>
      <trkpt lat="50.21476" lon="4.96215">
        <ele>112</ele>
        <time>2026-08-25T11:22:17+00:00</time>
      </trkpt>
      <trkpt lat="50.21491" lon="4.96234">
        <ele>122</ele>
        <time>2026-08-25T11:22:20+00:00</time>
      </trkpt>
      <trkpt lat="50.21492" lon="4.96265">
        <ele>128</ele>
        <time>2026-08-25T11:22:23+00:00</time>
      </trkpt>
      <trkpt lat="50.21501" lon="4.96297">
        <ele>136</ele>
        <time>2026-08-25T11:22:26+00:00</time>
      </trkpt>
      <trkpt lat="50.2151" lon="4.96333">
        <ele>147</ele>
        <time>2026-08-25T11:22:29+00:00</time>
      </trkpt>
      <trkpt lat="50.21536" lon="4.96354">
        <ele>154</ele>
        <time>2026-08-25T11:22:32+00:00</time>
      </trkpt>
      <trkpt lat="50.21551" lon="4.96376">
        <ele>159</ele>
        <time>2026-08-25T11:22:35+00:00</time>
      </trkpt>
      <trkpt lat="50.21571" lon="4.96407">
        <ele>173</ele>
        <time>2026-08-25T11:22:38+00:00</time>
      </trkpt>
      <trkpt lat="50.21606" lon="4.96463">
        <ele>186</ele>
        <time>2026-08-25T11:22:41+00:00</time>
      </trkpt>
      <trkpt lat="50.21616" lon="4.96481">
        <ele>191</ele>
        <time>2026-08-25T11:22:44+00:00</time>
      </trkpt>
      <trkpt lat="50.21627" lon="4.96505">
        <ele>190</ele>
        <time>2026-08-25T11:22:47+00:00</time>
      </trkpt>
      <trkpt lat="50.21652" lon="4.96546">
        <ele>192</ele>
        <time>2026-08-25T11:22:50+00:00</time>
      </trkpt>
      <trkpt lat="50.21659" lon="4.96573">
        <ele>194</ele>
        <time>2026-08-25T11:22:53+00:00</time>
      </trkpt>
      <trkpt lat="50.21661" lon="4.96571">
        <ele>192</ele>
        <time>2026-08-25T11:22:56+00:00</time>
      </trkpt>
      <trkpt lat="50.21659" lon="4.96573">
        <ele>194</ele>
        <time>2026-08-25T11:22:59+00:00</time>
      </trkpt>
      <trkpt lat="50.21637" lon="4.96585">
        <ele>200</ele>
        <time>2026-08-25T11:23:02+00:00</time>
      </trkpt>
      <trkpt lat="50.21604" lon="4.96602">
        <ele>205</ele>
        <time>2026-08-25T11:23:05+00:00</time>
      </trkpt>
      <trkpt lat="50.21577" lon="4.9661">
        <ele>205</ele>
        <time>2026-08-25T11:23:08+00:00</time>
      </trkpt>
      <trkpt lat="50.21532" lon="4.96624">
        <ele>205</ele>
        <time>2026-08-25T11:23:11+00:00</time>
      </trkpt>
      <trkpt lat="50.21505" lon="4.96634">
        <ele>202</ele>
        <time>2026-08-25T11:23:14+00:00</time>
      </trkpt>
      <trkpt lat="50.21483" lon="4.96648">
        <ele>202</ele>
        <time>2026-08-25T11:23:17+00:00</time>
      </trkpt>
      <trkpt lat="50.21458" lon="4.96664">
        <ele>202</ele>
        <time>2026-08-25T11:23:20+00:00</time>
      </trkpt>
      <trkpt lat="50.2143" lon="4.96673">
        <ele>201</ele>
        <time>2026-08-25T11:23:23+00:00</time>
      </trkpt>
      <trkpt lat="50.21401" lon="4.96682">
        <ele>200</ele>
        <time>2026-08-25T11:23:26+00:00</time>
      </trkpt>
      <trkpt lat="50.21372" lon="4.96691">
        <ele>196</ele>
        <time>2026-08-25T11:23:29+00:00</time>
      </trkpt>
      <trkpt lat="50.21351" lon="4.96701">
        <ele>192</ele>
        <time>2026-08-25T11:23:32+00:00</time>
      </trkpt>
      <trkpt lat="50.2133" lon="4.96712">
        <ele>186</ele>
        <time>2026-08-25T11:23:35+00:00</time>
      </trkpt>
      <trkpt lat="50.21296" lon="4.96687">
        <ele>176</ele>
        <time>2026-08-25T11:23:38+00:00</time>
      </trkpt>
      <trkpt lat="50.21285" lon="4.96656">
        <ele>176</ele>
        <time>2026-08-25T11:23:41+00:00</time>
      </trkpt>
      <trkpt lat="50.21272" lon="4.9662">
        <ele>174</ele>
        <time>2026-08-25T11:23:44+00:00</time>
      </trkpt>
      <trkpt lat="50.21262" lon="4.96566">
        <ele>166</ele>
        <time>2026-08-25T11:23:47+00:00</time>
      </trkpt>
      <trkpt lat="50.21255" lon="4.96554">
        <ele>163</ele>
        <time>2026-08-25T11:23:50+00:00</time>
      </trkpt>
      <trkpt lat="50.21244" lon="4.96556">
        <ele>160</ele>
        <time>2026-08-25T11:23:53+00:00</time>
      </trkpt>
      <trkpt lat="50.21214" lon="4.9659">
        <ele>159</ele>
        <time>2026-08-25T11:23:56+00:00</time>
      </trkpt>
      <trkpt lat="50.21201" lon="4.96651">
        <ele>152</ele>
        <time>2026-08-25T11:23:59+00:00</time>
      </trkpt>
      <trkpt lat="50.21201" lon="4.9669">
        <ele>149</ele>
        <time>2026-08-25T11:24:02+00:00</time>
      </trkpt>
      <trkpt lat="50.21213" lon="4.96717">
        <ele>147</ele>
        <time>2026-08-25T11:24:05+00:00</time>
      </trkpt>
      <trkpt lat="50.21233" lon="4.96752">
        <ele>142</ele>
        <time>2026-08-25T11:24:08+00:00</time>
      </trkpt>
      <trkpt lat="50.21241" lon="4.96779">
        <ele>138</ele>
        <time>2026-08-25T11:24:11+00:00</time>
      </trkpt>
      <trkpt lat="50.21241" lon="4.96823">
        <ele>132</ele>
        <time>2026-08-25T11:24:14+00:00</time>
      </trkpt>
      <trkpt lat="50.21244" lon="4.96844">
        <ele>131</ele>
        <time>2026-08-25T11:24:17+00:00</time>
      </trkpt>
      <trkpt lat="50.21259" lon="4.96882">
        <ele>128</ele>
        <time>2026-08-25T11:24:20+00:00</time>
      </trkpt>
      <trkpt lat="50.21259" lon="4.96894">
        <ele>126</ele>
        <time>2026-08-25T11:24:23+00:00</time>
      </trkpt>
      <trkpt lat="50.21258" lon="4.969">
        <ele>124</ele>
        <time>2026-08-25T11:24:26+00:00</time>
      </trkpt>
      <trkpt lat="50.21257" lon="4.96903">
        <ele>124</ele>
        <time>2026-08-25T11:24:29+00:00</time>
      </trkpt>
      <trkpt lat="50.21252" lon="4.96912">
        <ele>124</ele>
        <time>2026-08-25T11:24:32+00:00</time>
      </trkpt>
      <trkpt lat="50.21246" lon="4.96929">
        <ele>115</ele>
        <time>2026-08-25T11:24:35+00:00</time>
      </trkpt>
      <trkpt lat="50.2124" lon="4.96942">
        <ele>127</ele>
        <time>2026-08-25T11:24:38+00:00</time>
      </trkpt>
      <trkpt lat="50.21233" lon="4.96953">
        <ele>128</ele>
        <time>2026-08-25T11:24:41+00:00</time>
      </trkpt>
      <trkpt lat="50.21226" lon="4.96959">
        <ele>130</ele>
        <time>2026-08-25T11:24:44+00:00</time>
      </trkpt>
      <trkpt lat="50.2122" lon="4.96961">
        <ele>136</ele>
        <time>2026-08-25T11:24:47+00:00</time>
      </trkpt>
      <trkpt lat="50.21214" lon="4.9696">
        <ele>136</ele>
        <time>2026-08-25T11:24:50+00:00</time>
      </trkpt>
      <trkpt lat="50.21208" lon="4.96955">
        <ele>131</ele>
        <time>2026-08-25T11:24:53+00:00</time>
      </trkpt>
      <trkpt lat="50.21191" lon="4.96933">
        <ele>133</ele>
        <time>2026-08-25T11:24:56+00:00</time>
      </trkpt>
      <trkpt lat="50.21167" lon="4.96897">
        <ele>133</ele>
        <time>2026-08-25T11:24:59+00:00</time>
      </trkpt>
      <trkpt lat="50.21143" lon="4.96861">
        <ele>133</ele>
        <time>2026-08-25T11:25:02+00:00</time>
      </trkpt>
      <trkpt lat="50.21119" lon="4.96825">
        <ele>136</ele>
        <time>2026-08-25T11:25:05+00:00</time>
      </trkpt>
      <trkpt lat="50.21087" lon="4.96776">
        <ele>145</ele>
        <time>2026-08-25T11:25:08+00:00</time>
      </trkpt>
      <trkpt lat="50.21087" lon="4.9679">
        <ele>149</ele>
        <time>2026-08-25T11:25:11+00:00</time>
      </trkpt>
      <trkpt lat="50.21093" lon="4.96818">
        <ele>150</ele>
        <time>2026-08-25T11:25:14+00:00</time>
      </trkpt>
      <trkpt lat="50.21095" lon="4.9685">
        <ele>156</ele>
        <time>2026-08-25T11:25:17+00:00</time>
      </trkpt>
      <trkpt lat="50.21102" lon="4.96871">
        <ele>157</ele>
        <time>2026-08-25T11:25:20+00:00</time>
      </trkpt>
      <trkpt lat="50.21104" lon="4.969">
        <ele>160</ele>
        <time>2026-08-25T11:25:23+00:00</time>
      </trkpt>
      <trkpt lat="50.21102" lon="4.96905">
        <ele>160</ele>
        <time>2026-08-25T11:25:26+00:00</time>
      </trkpt>
      <trkpt lat="50.21105" lon="4.96921">
        <ele>166</ele>
        <time>2026-08-25T11:25:29+00:00</time>
      </trkpt>
      <trkpt lat="50.21109" lon="4.96952">
        <ele>172</ele>
        <time>2026-08-25T11:25:32+00:00</time>
      </trkpt>
      <trkpt lat="50.21115" lon="4.96997">
        <ele>176</ele>
        <time>2026-08-25T11:25:35+00:00</time>
      </trkpt>
      <trkpt lat="50.21117" lon="4.97044">
        <ele>177</ele>
        <time>2026-08-25T11:25:38+00:00</time>
      </trkpt>
      <trkpt lat="50.21117" lon="4.97058">
        <ele>177</ele>
        <time>2026-08-25T11:25:41+00:00</time>
      </trkpt>
      <trkpt lat="50.21126" lon="4.97091">
        <ele>183</ele>
        <time>2026-08-25T11:25:44+00:00</time>
      </trkpt>
      <trkpt lat="50.21139" lon="4.97144">
        <ele>184</ele>
        <time>2026-08-25T11:25:47+00:00</time>
      </trkpt>
      <trkpt lat="50.21142" lon="4.97179">
        <ele>185</ele>
        <time>2026-08-25T11:25:50+00:00</time>
      </trkpt>
      <trkpt lat="50.21146" lon="4.97219">
        <ele>188</ele>
        <time>2026-08-25T11:25:53+00:00</time>
      </trkpt>
      <trkpt lat="50.21152" lon="4.97255">
        <ele>188</ele>
        <time>2026-08-25T11:25:56+00:00</time>
      </trkpt>
      <trkpt lat="50.21159" lon="4.97301">
        <ele>192</ele>
        <time>2026-08-25T11:25:59+00:00</time>
      </trkpt>
      <trkpt lat="50.21159" lon="4.97351">
        <ele>196</ele>
        <time>2026-08-25T11:26:02+00:00</time>
      </trkpt>
      <trkpt lat="50.21146" lon="4.97406">
        <ele>197</ele>
        <time>2026-08-25T11:26:05+00:00</time>
      </trkpt>
      <trkpt lat="50.21137" lon="4.97432">
        <ele>198</ele>
        <time>2026-08-25T11:26:08+00:00</time>
      </trkpt>
      <trkpt lat="50.21132" lon="4.97466">
        <ele>199</ele>
        <time>2026-08-25T11:26:11+00:00</time>
      </trkpt>
      <trkpt lat="50.21117" lon="4.97518">
        <ele>202</ele>
        <time>2026-08-25T11:26:14+00:00</time>
      </trkpt>
      <trkpt lat="50.21113" lon="4.9758">
        <ele>206</ele>
        <time>2026-08-25T11:26:17+00:00</time>
      </trkpt>
      <trkpt lat="50.21111" lon="4.97633">
        <ele>206</ele>
        <time>2026-08-25T11:26:20+00:00</time>
      </trkpt>
      <trkpt lat="50.21105" lon="4.97689">
        <ele>207</ele>
        <time>2026-08-25T11:26:23+00:00</time>
      </trkpt>
      <trkpt lat="50.21103" lon="4.97723">
        <ele>207</ele>
        <time>2026-08-25T11:26:26+00:00</time>
      </trkpt>
      <trkpt lat="50.21103" lon="4.97766">
        <ele>208</ele>
        <time>2026-08-25T11:26:29+00:00</time>
      </trkpt>
      <trkpt lat="50.21102" lon="4.97846">
        <ele>210</ele>
        <time>2026-08-25T11:26:32+00:00</time>
      </trkpt>
      <trkpt lat="50.2109" lon="4.9788">
        <ele>215</ele>
        <time>2026-08-25T11:26:35+00:00</time>
      </trkpt>
      <trkpt lat="50.21088" lon="4.97927">
        <ele>218</ele>
        <time>2026-08-25T11:26:38+00:00</time>
      </trkpt>
      <trkpt lat="50.21082" lon="4.9797">
        <ele>221</ele>
        <time>2026-08-25T11:26:41+00:00</time>
      </trkpt>
      <trkpt lat="50.21071" lon="4.9805">
        <ele>225</ele>
        <time>2026-08-25T11:26:44+00:00</time>
      </trkpt>
      <trkpt lat="50.21065" lon="4.98093">
        <ele>227</ele>
        <time>2026-08-25T11:26:47+00:00</time>
      </trkpt>
      <trkpt lat="50.21054" lon="4.98178">
        <ele>229</ele>
        <time>2026-08-25T11:26:50+00:00</time>
      </trkpt>
      <trkpt lat="50.21034" lon="4.982">
        <ele>229</ele>
        <time>2026-08-25T11:26:53+00:00</time>
      </trkpt>
      <trkpt lat="50.21009" lon="4.98227">
        <ele>228</ele>
        <time>2026-08-25T11:26:56+00:00</time>
      </trkpt>
      <trkpt lat="50.20979" lon="4.98266">
        <ele>226</ele>
        <time>2026-08-25T11:26:59+00:00</time>
      </trkpt>
      <trkpt lat="50.20959" lon="4.98301">
        <ele>223</ele>
        <time>2026-08-25T11:27:02+00:00</time>
      </trkpt>
      <trkpt lat="50.2094" lon="4.98336">
        <ele>220</ele>
        <time>2026-08-25T11:27:05+00:00</time>
      </trkpt>
      <trkpt lat="50.20915" lon="4.98381">
        <ele>220</ele>
        <time>2026-08-25T11:27:08+00:00</time>
      </trkpt>
      <trkpt lat="50.20894" lon="4.98394">
        <ele>217</ele>
        <time>2026-08-25T11:27:11+00:00</time>
      </trkpt>
      <trkpt lat="50.20872" lon="4.98409">
        <ele>215</ele>
        <time>2026-08-25T11:27:14+00:00</time>
      </trkpt>
      <trkpt lat="50.20871" lon="4.98404">
        <ele>215</ele>
        <time>2026-08-25T11:27:17+00:00</time>
      </trkpt>
      <trkpt lat="50.20872" lon="4.98409">
        <ele>215</ele>
        <time>2026-08-25T11:27:20+00:00</time>
      </trkpt>
      <trkpt lat="50.20875" lon="4.98445">
        <ele>213</ele>
        <time>2026-08-25T11:27:23+00:00</time>
      </trkpt>
      <trkpt lat="50.20879" lon="4.985">
        <ele>212</ele>
        <time>2026-08-25T11:27:26+00:00</time>
      </trkpt>
      <trkpt lat="50.20881" lon="4.98536">
        <ele>209</ele>
        <time>2026-08-25T11:27:29+00:00</time>
      </trkpt>
      <trkpt lat="50.20884" lon="4.98578">
        <ele>208</ele>
        <time>2026-08-25T11:27:32+00:00</time>
      </trkpt>
      <trkpt lat="50.20875" lon="4.98589">
        <ele>208</ele>
        <time>2026-08-25T11:27:35+00:00</time>
      </trkpt>
      <trkpt lat="50.20867" lon="4.98595">
        <ele>208</ele>
        <time>2026-08-25T11:27:38+00:00</time>
      </trkpt>
      <trkpt lat="50.20845" lon="4.98602">
        <ele>207</ele>
        <time>2026-08-25T11:27:41+00:00</time>
      </trkpt>
      <trkpt lat="50.20822" lon="4.98609">
        <ele>206</ele>
        <time>2026-08-25T11:27:44+00:00</time>
      </trkpt>
      <trkpt lat="50.20818" lon="4.9862">
        <ele>204</ele>
        <time>2026-08-25T11:27:47+00:00</time>
      </trkpt>
      <trkpt lat="50.20801" lon="4.98608">
        <ele>204</ele>
        <time>2026-08-25T11:27:50+00:00</time>
      </trkpt>
      <trkpt lat="50.20789" lon="4.98597">
        <ele>201</ele>
        <time>2026-08-25T11:27:53+00:00</time>
      </trkpt>
      <trkpt lat="50.20782" lon="4.98583">
        <ele>204</ele>
        <time>2026-08-25T11:27:56+00:00</time>
      </trkpt>
      <trkpt lat="50.20781" lon="4.98547">
        <ele>204</ele>
        <time>2026-08-25T11:27:59+00:00</time>
      </trkpt>
      <trkpt lat="50.2078" lon="4.98506">
        <ele>205</ele>
        <time>2026-08-25T11:28:02+00:00</time>
      </trkpt>
      <trkpt lat="50.20781" lon="4.98468">
        <ele>207</ele>
        <time>2026-08-25T11:28:05+00:00</time>
      </trkpt>
      <trkpt lat="50.20782" lon="4.98421">
        <ele>207</ele>
        <time>2026-08-25T11:28:08+00:00</time>
      </trkpt>
      <trkpt lat="50.20784" lon="4.98395">
        <ele>209</ele>
        <time>2026-08-25T11:28:11+00:00</time>
      </trkpt>
      <trkpt lat="50.20784" lon="4.98358">
        <ele>210</ele>
        <time>2026-08-25T11:28:14+00:00</time>
      </trkpt>
      <trkpt lat="50.20777" lon="4.98319">
        <ele>212</ele>
        <time>2026-08-25T11:28:17+00:00</time>
      </trkpt>
      <trkpt lat="50.20776" lon="4.98296">
        <ele>213</ele>
        <time>2026-08-25T11:28:20+00:00</time>
      </trkpt>
      <trkpt lat="50.20777" lon="4.98263">
        <ele>213</ele>
        <time>2026-08-25T11:28:23+00:00</time>
      </trkpt>
      <trkpt lat="50.20775" lon="4.9822">
        <ele>216</ele>
        <time>2026-08-25T11:28:26+00:00</time>
      </trkpt>
      <trkpt lat="50.20771" lon="4.98147">
        <ele>220</ele>
        <time>2026-08-25T11:28:29+00:00</time>
      </trkpt>
      <trkpt lat="50.2076" lon="4.98112">
        <ele>221</ele>
        <time>2026-08-25T11:28:32+00:00</time>
      </trkpt>
      <trkpt lat="50.20762" lon="4.98049">
        <ele>223</ele>
        <time>2026-08-25T11:28:35+00:00</time>
      </trkpt>
      <trkpt lat="50.20754" lon="4.97996">
        <ele>225</ele>
        <time>2026-08-25T11:28:38+00:00</time>
      </trkpt>
      <trkpt lat="50.20743" lon="4.97987">
        <ele>226</ele>
        <time>2026-08-25T11:28:41+00:00</time>
      </trkpt>
      <trkpt lat="50.20728" lon="4.9798">
        <ele>226</ele>
        <time>2026-08-25T11:28:44+00:00</time>
      </trkpt>
      <trkpt lat="50.20703" lon="4.97988">
        <ele>227</ele>
        <time>2026-08-25T11:28:47+00:00</time>
      </trkpt>
      <trkpt lat="50.20669" lon="4.97999">
        <ele>227</ele>
        <time>2026-08-25T11:28:50+00:00</time>
      </trkpt>
      <trkpt lat="50.20629" lon="4.98009">
        <ele>230</ele>
        <time>2026-08-25T11:28:53+00:00</time>
      </trkpt>
      <trkpt lat="50.20619" lon="4.97986">
        <ele>232</ele>
        <time>2026-08-25T11:28:56+00:00</time>
      </trkpt>
      <trkpt lat="50.20599" lon="4.97975">
        <ele>234</ele>
        <time>2026-08-25T11:28:59+00:00</time>
      </trkpt>
      <trkpt lat="50.20562" lon="4.97982">
        <ele>236</ele>
        <time>2026-08-25T11:29:02+00:00</time>
      </trkpt>
      <trkpt lat="50.20519" lon="4.97985">
        <ele>240</ele>
        <time>2026-08-25T11:29:05+00:00</time>
      </trkpt>
      <trkpt lat="50.20487" lon="4.97979">
        <ele>241</ele>
        <time>2026-08-25T11:29:08+00:00</time>
      </trkpt>
      <trkpt lat="50.20456" lon="4.9798">
        <ele>242</ele>
        <time>2026-08-25T11:29:11+00:00</time>
      </trkpt>
      <trkpt lat="50.20426" lon="4.97981">
        <ele>242</ele>
        <time>2026-08-25T11:29:14+00:00</time>
      </trkpt>
      <trkpt lat="50.20381" lon="4.97982">
        <ele>241</ele>
        <time>2026-08-25T11:29:17+00:00</time>
      </trkpt>
      <trkpt lat="50.20375" lon="4.97978">
        <ele>241</ele>
        <time>2026-08-25T11:29:20+00:00</time>
      </trkpt>
      <trkpt lat="50.20375" lon="4.97973">
        <ele>241</ele>
        <time>2026-08-25T11:29:23+00:00</time>
      </trkpt>
      <trkpt lat="50.20375" lon="4.97978">
        <ele>241</ele>
        <time>2026-08-25T11:29:26+00:00</time>
      </trkpt>
      <trkpt lat="50.20374" lon="4.97987">
        <ele>240</ele>
        <time>2026-08-25T11:29:29+00:00</time>
      </trkpt>
      <trkpt lat="50.20347" lon="4.97944">
        <ele>237</ele>
        <time>2026-08-25T11:29:32+00:00</time>
      </trkpt>
      <trkpt lat="50.20328" lon="4.97896">
        <ele>236</ele>
        <time>2026-08-25T11:29:35+00:00</time>
      </trkpt>
      <trkpt lat="50.20315" lon="4.97854">
        <ele>236</ele>
        <time>2026-08-25T11:29:38+00:00</time>
      </trkpt>
      <trkpt lat="50.20303" lon="4.97813">
        <ele>235</ele>
        <time>2026-08-25T11:29:41+00:00</time>
      </trkpt>
      <trkpt lat="50.20288" lon="4.97765">
        <ele>230</ele>
        <time>2026-08-25T11:29:44+00:00</time>
      </trkpt>
      <trkpt lat="50.20275" lon="4.97701">
        <ele>229</ele>
        <time>2026-08-25T11:29:47+00:00</time>
      </trkpt>
      <trkpt lat="50.20268" lon="4.97652">
        <ele>226</ele>
        <time>2026-08-25T11:29:50+00:00</time>
      </trkpt>
      <trkpt lat="50.20267" lon="4.97606">
        <ele>225</ele>
        <time>2026-08-25T11:29:53+00:00</time>
      </trkpt>
      <trkpt lat="50.20267" lon="4.9757">
        <ele>225</ele>
        <time>2026-08-25T11:29:56+00:00</time>
      </trkpt>
      <trkpt lat="50.20268" lon="4.9753">
        <ele>223</ele>
        <time>2026-08-25T11:29:59+00:00</time>
      </trkpt>
      <trkpt lat="50.20273" lon="4.97467">
        <ele>222</ele>
        <time>2026-08-25T11:30:02+00:00</time>
      </trkpt>
      <trkpt lat="50.20278" lon="4.97425">
        <ele>219</ele>
        <time>2026-08-25T11:30:05+00:00</time>
      </trkpt>
      <trkpt lat="50.20293" lon="4.97393">
        <ele>218</ele>
        <time>2026-08-25T11:30:08+00:00</time>
      </trkpt>
      <trkpt lat="50.20315" lon="4.97347">
        <ele>215</ele>
        <time>2026-08-25T11:30:11+00:00</time>
      </trkpt>
      <trkpt lat="50.20326" lon="4.97293">
        <ele>213</ele>
        <time>2026-08-25T11:30:14+00:00</time>
      </trkpt>
      <trkpt lat="50.20323" lon="4.97236">
        <ele>214</ele>
        <time>2026-08-25T11:30:17+00:00</time>
      </trkpt>
      <trkpt lat="50.2032" lon="4.97189">
        <ele>216</ele>
        <time>2026-08-25T11:30:20+00:00</time>
      </trkpt>
      <trkpt lat="50.20316" lon="4.97143">
        <ele>219</ele>
        <time>2026-08-25T11:30:23+00:00</time>
      </trkpt>
      <trkpt lat="50.20312" lon="4.97082">
        <ele>218</ele>
        <time>2026-08-25T11:30:26+00:00</time>
      </trkpt>
      <trkpt lat="50.20312" lon="4.9704">
        <ele>218</ele>
        <time>2026-08-25T11:30:29+00:00</time>
      </trkpt>
      <trkpt lat="50.20312" lon="4.96974">
        <ele>211</ele>
        <time>2026-08-25T11:30:32+00:00</time>
      </trkpt>
      <trkpt lat="50.2031" lon="4.96927">
        <ele>208</ele>
        <time>2026-08-25T11:30:35+00:00</time>
      </trkpt>
      <trkpt lat="50.20308" lon="4.9688">
        <ele>204</ele>
        <time>2026-08-25T11:30:38+00:00</time>
      </trkpt>
      <trkpt lat="50.20306" lon="4.9682">
        <ele>202</ele>
        <time>2026-08-25T11:30:41+00:00</time>
      </trkpt>
      <trkpt lat="50.20291" lon="4.96784">
        <ele>197</ele>
        <time>2026-08-25T11:30:44+00:00</time>
      </trkpt>
      <trkpt lat="50.20264" lon="4.96718">
        <ele>184</ele>
        <time>2026-08-25T11:30:47+00:00</time>
      </trkpt>
      <trkpt lat="50.20256" lon="4.96672">
        <ele>182</ele>
        <time>2026-08-25T11:30:50+00:00</time>
      </trkpt>
      <trkpt lat="50.20238" lon="4.96644">
        <ele>174</ele>
        <time>2026-08-25T11:30:53+00:00</time>
      </trkpt>
      <trkpt lat="50.20214" lon="4.96605">
        <ele>170</ele>
        <time>2026-08-25T11:30:56+00:00</time>
      </trkpt>
      <trkpt lat="50.2019" lon="4.96574">
        <ele>171</ele>
        <time>2026-08-25T11:30:59+00:00</time>
      </trkpt>
      <trkpt lat="50.20166" lon="4.96543">
        <ele>172</ele>
        <time>2026-08-25T11:31:02+00:00</time>
      </trkpt>
      <trkpt lat="50.20126" lon="4.96493">
        <ele>178</ele>
        <time>2026-08-25T11:31:05+00:00</time>
      </trkpt>
      <trkpt lat="50.20099" lon="4.96456">
        <ele>182</ele>
        <time>2026-08-25T11:31:08+00:00</time>
      </trkpt>
      <trkpt lat="50.20072" lon="4.96419">
        <ele>184</ele>
        <time>2026-08-25T11:31:11+00:00</time>
      </trkpt>
      <trkpt lat="50.20046" lon="4.96383">
        <ele>184</ele>
        <time>2026-08-25T11:31:14+00:00</time>
      </trkpt>
      <trkpt lat="50.20019" lon="4.96346">
        <ele>183</ele>
        <time>2026-08-25T11:31:17+00:00</time>
      </trkpt>
      <trkpt lat="50.19971" lon="4.9628">
        <ele>183</ele>
        <time>2026-08-25T11:31:20+00:00</time>
      </trkpt>
      <trkpt lat="50.19948" lon="4.96247">
        <ele>182</ele>
        <time>2026-08-25T11:31:23+00:00</time>
      </trkpt>
      <trkpt lat="50.19926" lon="4.96215">
        <ele>179</ele>
        <time>2026-08-25T11:31:26+00:00</time>
      </trkpt>
      <trkpt lat="50.19891" lon="4.96165">
        <ele>176</ele>
        <time>2026-08-25T11:31:29+00:00</time>
      </trkpt>
      <trkpt lat="50.19866" lon="4.96166">
        <ele>176</ele>
        <time>2026-08-25T11:31:32+00:00</time>
      </trkpt>
      <trkpt lat="50.19891" lon="4.96165">
        <ele>176</ele>
        <time>2026-08-25T11:31:35+00:00</time>
      </trkpt>
      <trkpt lat="50.19867" lon="4.96131">
        <ele>175</ele>
        <time>2026-08-25T11:31:38+00:00</time>
      </trkpt>
      <trkpt lat="50.19844" lon="4.96098">
        <ele>174</ele>
        <time>2026-08-25T11:31:41+00:00</time>
      </trkpt>
      <trkpt lat="50.19799" lon="4.96034">
        <ele>174</ele>
        <time>2026-08-25T11:31:44+00:00</time>
      </trkpt>
      <trkpt lat="50.19781" lon="4.95996">
        <ele>171</ele>
        <time>2026-08-25T11:31:47+00:00</time>
      </trkpt>
      <trkpt lat="50.19762" lon="4.95958">
        <ele>168</ele>
        <time>2026-08-25T11:31:50+00:00</time>
      </trkpt>
      <trkpt lat="50.19736" lon="4.95903">
        <ele>163</ele>
        <time>2026-08-25T11:31:53+00:00</time>
      </trkpt>
      <trkpt lat="50.19729" lon="4.95852">
        <ele>159</ele>
        <time>2026-08-25T11:31:56+00:00</time>
      </trkpt>
      <trkpt lat="50.19743" lon="4.95818">
        <ele>152</ele>
        <time>2026-08-25T11:31:59+00:00</time>
      </trkpt>
      <trkpt lat="50.19768" lon="4.95804">
        <ele>149</ele>
        <time>2026-08-25T11:32:02+00:00</time>
      </trkpt>
      <trkpt lat="50.19781" lon="4.95786">
        <ele>145</ele>
        <time>2026-08-25T11:32:05+00:00</time>
      </trkpt>
      <trkpt lat="50.19781" lon="4.9575">
        <ele>143</ele>
        <time>2026-08-25T11:32:08+00:00</time>
      </trkpt>
      <trkpt lat="50.19761" lon="4.9572">
        <ele>144</ele>
        <time>2026-08-25T11:32:11+00:00</time>
      </trkpt>
      <trkpt lat="50.1973" lon="4.95679">
        <ele>143</ele>
        <time>2026-08-25T11:32:14+00:00</time>
      </trkpt>
      <trkpt lat="50.19711" lon="4.95663">
        <ele>142</ele>
        <time>2026-08-25T11:32:17+00:00</time>
      </trkpt>
      <trkpt lat="50.19692" lon="4.95646">
        <ele>142</ele>
        <time>2026-08-25T11:32:20+00:00</time>
      </trkpt>
      <trkpt lat="50.19658" lon="4.95641">
        <ele>142</ele>
        <time>2026-08-25T11:32:23+00:00</time>
      </trkpt>
      <trkpt lat="50.19637" lon="4.95618">
        <ele>129</ele>
        <time>2026-08-25T11:32:26+00:00</time>
      </trkpt>
      <trkpt lat="50.19627" lon="4.95593">
        <ele>123</ele>
        <time>2026-08-25T11:32:29+00:00</time>
      </trkpt>
      <trkpt lat="50.19629" lon="4.95567">
        <ele>118</ele>
        <time>2026-08-25T11:32:32+00:00</time>
      </trkpt>
      <trkpt lat="50.19633" lon="4.95554">
        <ele>118</ele>
        <time>2026-08-25T11:32:35+00:00</time>
      </trkpt>
      <trkpt lat="50.19637" lon="4.95549">
        <ele>117</ele>
        <time>2026-08-25T11:32:38+00:00</time>
      </trkpt>
      <trkpt lat="50.19656" lon="4.95529">
        <ele>115</ele>
        <time>2026-08-25T11:32:41+00:00</time>
      </trkpt>
      <trkpt lat="50.19672" lon="4.95522">
        <ele>113</ele>
        <time>2026-08-25T11:32:44+00:00</time>
      </trkpt>
      <trkpt lat="50.19693" lon="4.9552">
        <ele>113</ele>
        <time>2026-08-25T11:32:47+00:00</time>
      </trkpt>
      <trkpt lat="50.19713" lon="4.95523">
        <ele>113</ele>
        <time>2026-08-25T11:32:50+00:00</time>
      </trkpt>
      <trkpt lat="50.19729" lon="4.95533">
        <ele>111</ele>
        <time>2026-08-25T11:32:53+00:00</time>
      </trkpt>
      <trkpt lat="50.19752" lon="4.95553">
        <ele>114</ele>
        <time>2026-08-25T11:32:56+00:00</time>
      </trkpt>
      <trkpt lat="50.19774" lon="4.95572">
        <ele>116</ele>
        <time>2026-08-25T11:32:59+00:00</time>
      </trkpt>
      <trkpt lat="50.19808" lon="4.95602">
        <ele>114</ele>
        <time>2026-08-25T11:33:02+00:00</time>
      </trkpt>
      <trkpt lat="50.19833" lon="4.95622">
        <ele>115</ele>
        <time>2026-08-25T11:33:05+00:00</time>
      </trkpt>
      <trkpt lat="50.19878" lon="4.95659">
        <ele>116</ele>
        <time>2026-08-25T11:33:08+00:00</time>
      </trkpt>
      <trkpt lat="50.19899" lon="4.9568">
        <ele>114</ele>
        <time>2026-08-25T11:33:11+00:00</time>
      </trkpt>
      <trkpt lat="50.19928" lon="4.95708">
        <ele>115</ele>
        <time>2026-08-25T11:33:14+00:00</time>
      </trkpt>
      <trkpt lat="50.19943" lon="4.95731">
        <ele>116</ele>
        <time>2026-08-25T11:33:17+00:00</time>
      </trkpt>
      <trkpt lat="50.19962" lon="4.95769">
        <ele>118</ele>
        <time>2026-08-25T11:33:20+00:00</time>
      </trkpt>
      <trkpt lat="50.19981" lon="4.95808">
        <ele>118</ele>
        <time>2026-08-25T11:33:23+00:00</time>
      </trkpt>
      <trkpt lat="50.20012" lon="4.9587">
        <ele>114</ele>
        <time>2026-08-25T11:33:26+00:00</time>
      </trkpt>
      <trkpt lat="50.2003" lon="4.95912">
        <ele>111</ele>
        <time>2026-08-25T11:33:29+00:00</time>
      </trkpt>
      <trkpt lat="50.20049" lon="4.95954">
        <ele>110</ele>
        <time>2026-08-25T11:33:32+00:00</time>
      </trkpt>
      <trkpt lat="50.20067" lon="4.95996">
        <ele>110</ele>
        <time>2026-08-25T11:33:35+00:00</time>
      </trkpt>
      <trkpt lat="50.20087" lon="4.96042">
        <ele>111</ele>
        <time>2026-08-25T11:33:38+00:00</time>
      </trkpt>
      <trkpt lat="50.20104" lon="4.9608">
        <ele>110</ele>
        <time>2026-08-25T11:33:41+00:00</time>
      </trkpt>
      <trkpt lat="50.20122" lon="4.96118">
        <ele>115</ele>
        <time>2026-08-25T11:33:44+00:00</time>
      </trkpt>
      <trkpt lat="50.20143" lon="4.96164">
        <ele>120</ele>
        <time>2026-08-25T11:33:47+00:00</time>
      </trkpt>
      <trkpt lat="50.20149" lon="4.96183">
        <ele>123</ele>
        <time>2026-08-25T11:33:50+00:00</time>
      </trkpt>
      <trkpt lat="50.2016" lon="4.96204">
        <ele>122</ele>
        <time>2026-08-25T11:33:53+00:00</time>
      </trkpt>
      <trkpt lat="50.20186" lon="4.96248">
        <ele>125</ele>
        <time>2026-08-25T11:33:56+00:00</time>
      </trkpt>
      <trkpt lat="50.20206" lon="4.96287">
        <ele>125</ele>
        <time>2026-08-25T11:33:59+00:00</time>
      </trkpt>
      <trkpt lat="50.20217" lon="4.96304">
        <ele>127</ele>
        <time>2026-08-25T11:34:02+00:00</time>
      </trkpt>
      <trkpt lat="50.20226" lon="4.96324">
        <ele>128</ele>
        <time>2026-08-25T11:34:05+00:00</time>
      </trkpt>
      <trkpt lat="50.20237" lon="4.96346">
        <ele>129</ele>
        <time>2026-08-25T11:34:08+00:00</time>
      </trkpt>
      <trkpt lat="50.20244" lon="4.96357">
        <ele>128</ele>
        <time>2026-08-25T11:34:11+00:00</time>
      </trkpt>
      <trkpt lat="50.2025" lon="4.96375">
        <ele>131</ele>
        <time>2026-08-25T11:34:14+00:00</time>
      </trkpt>
      <trkpt lat="50.20267" lon="4.96404">
        <ele>129</ele>
        <time>2026-08-25T11:34:17+00:00</time>
      </trkpt>
      <trkpt lat="50.20291" lon="4.96444">
        <ele>128</ele>
        <time>2026-08-25T11:34:20+00:00</time>
      </trkpt>
      <trkpt lat="50.20311" lon="4.96465">
        <ele>128</ele>
        <time>2026-08-25T11:34:23+00:00</time>
      </trkpt>
      <trkpt lat="50.20338" lon="4.96492">
        <ele>125</ele>
        <time>2026-08-25T11:34:26+00:00</time>
      </trkpt>
      <trkpt lat="50.20361" lon="4.96499">
        <ele>123</ele>
        <time>2026-08-25T11:34:29+00:00</time>
      </trkpt>
      <trkpt lat="50.2039" lon="4.96507">
        <ele>123</ele>
        <time>2026-08-25T11:34:32+00:00</time>
      </trkpt>
      <trkpt lat="50.20414" lon="4.96524">
        <ele>124</ele>
        <time>2026-08-25T11:34:35+00:00</time>
      </trkpt>
      <trkpt lat="50.20441" lon="4.96537">
        <ele>126</ele>
        <time>2026-08-25T11:34:38+00:00</time>
      </trkpt>
      <trkpt lat="50.20459" lon="4.9654">
        <ele>126</ele>
        <time>2026-08-25T11:34:41+00:00</time>
      </trkpt>
      <trkpt lat="50.20482" lon="4.96545">
        <ele>126</ele>
        <time>2026-08-25T11:34:44+00:00</time>
      </trkpt>
      <trkpt lat="50.20504" lon="4.96548">
        <ele>127</ele>
        <time>2026-08-25T11:34:47+00:00</time>
      </trkpt>
      <trkpt lat="50.20526" lon="4.96551">
        <ele>122</ele>
        <time>2026-08-25T11:34:50+00:00</time>
      </trkpt>
      <trkpt lat="50.20545" lon="4.96531">
        <ele>118</ele>
        <time>2026-08-25T11:34:53+00:00</time>
      </trkpt>
      <trkpt lat="50.20566" lon="4.96508">
        <ele>111</ele>
        <time>2026-08-25T11:34:56+00:00</time>
      </trkpt>
      <trkpt lat="50.20571" lon="4.96506">
        <ele>111</ele>
        <time>2026-08-25T11:34:59+00:00</time>
      </trkpt>
      <trkpt lat="50.20605" lon="4.96487">
        <ele>111</ele>
        <time>2026-08-25T11:35:02+00:00</time>
      </trkpt>
      <trkpt lat="50.20637" lon="4.96476">
        <ele>111</ele>
        <time>2026-08-25T11:35:05+00:00</time>
      </trkpt>
      <trkpt lat="50.20677" lon="4.96466">
        <ele>111</ele>
        <time>2026-08-25T11:35:08+00:00</time>
      </trkpt>
      <trkpt lat="50.20689" lon="4.9647">
        <ele>112</ele>
        <time>2026-08-25T11:35:11+00:00</time>
      </trkpt>
      <trkpt lat="50.20709" lon="4.96469">
        <ele>111</ele>
        <time>2026-08-25T11:35:14+00:00</time>
      </trkpt>
      <trkpt lat="50.20738" lon="4.96467">
        <ele>111</ele>
        <time>2026-08-25T11:35:17+00:00</time>
      </trkpt>
      <trkpt lat="50.20756" lon="4.96462">
        <ele>110</ele>
        <time>2026-08-25T11:35:20+00:00</time>
      </trkpt>
      <trkpt lat="50.20784" lon="4.96448">
        <ele>110</ele>
        <time>2026-08-25T11:35:23+00:00</time>
      </trkpt>
      <trkpt lat="50.20793" lon="4.9644">
        <ele>108</ele>
        <time>2026-08-25T11:35:26+00:00</time>
      </trkpt>
      <trkpt lat="50.2081" lon="4.96436">
        <ele>108</ele>
        <time>2026-08-25T11:35:29+00:00</time>
      </trkpt>
      <trkpt lat="50.20829" lon="4.96422">
        <ele>107</ele>
        <time>2026-08-25T11:35:32+00:00</time>
      </trkpt>
      <trkpt lat="50.20838" lon="4.96418">
        <ele>106</ele>
        <time>2026-08-25T11:35:35+00:00</time>
      </trkpt>
      <trkpt lat="50.2085" lon="4.9642">
        <ele>107</ele>
        <time>2026-08-25T11:35:38+00:00</time>
      </trkpt>
      <trkpt lat="50.20859" lon="4.96423">
        <ele>107</ele>
        <time>2026-08-25T11:35:41+00:00</time>
      </trkpt>
      <trkpt lat="50.20868" lon="4.96424">
        <ele>106</ele>
        <time>2026-08-25T11:35:44+00:00</time>
      </trkpt>
      <trkpt lat="50.20884" lon="4.96422">
        <ele>105</ele>
        <time>2026-08-25T11:35:47+00:00</time>
      </trkpt>
      <trkpt lat="50.20902" lon="4.96419">
        <ele>106</ele>
        <time>2026-08-25T11:35:50+00:00</time>
      </trkpt>
      <trkpt lat="50.20928" lon="4.96414">
        <ele>106</ele>
        <time>2026-08-25T11:35:53+00:00</time>
      </trkpt>
      <trkpt lat="50.20952" lon="4.96408">
        <ele>105</ele>
        <time>2026-08-25T11:35:56+00:00</time>
      </trkpt>
      <trkpt lat="50.2098" lon="4.96406">
        <ele>104</ele>
        <time>2026-08-25T11:35:59+00:00</time>
      </trkpt>
      <trkpt lat="50.21033" lon="4.96402">
        <ele>104</ele>
        <time>2026-08-25T11:36:02+00:00</time>
      </trkpt>
      <trkpt lat="50.21056" lon="4.96399">
        <ele>104</ele>
        <time>2026-08-25T11:36:05+00:00</time>
      </trkpt>
      <trkpt lat="50.21083" lon="4.96396">
        <ele>104</ele>
        <time>2026-08-25T11:36:08+00:00</time>
      </trkpt>
      <trkpt lat="50.21095" lon="4.9641">
        <ele>106</ele>
        <time>2026-08-25T11:36:11+00:00</time>
      </trkpt>
      <trkpt lat="50.21114" lon="4.96419">
        <ele>105</ele>
        <time>2026-08-25T11:36:14+00:00</time>
      </trkpt>
      <trkpt lat="50.21129" lon="4.96423">
        <ele>108</ele>
        <time>2026-08-25T11:36:17+00:00</time>
      </trkpt>
      <trkpt lat="50.21127" lon="4.96389">
        <ele>106</ele>
        <time>2026-08-25T11:36:20+00:00</time>
      </trkpt>
      <trkpt lat="50.21125" lon="4.96348">
        <ele>108</ele>
        <time>2026-08-25T11:36:23+00:00</time>
      </trkpt>
      <trkpt lat="50.21123" lon="4.96286">
        <ele>109</ele>
        <time>2026-08-25T11:36:26+00:00</time>
      </trkpt>
      <trkpt lat="50.21124" lon="4.96275">
        <ele>110</ele>
        <time>2026-08-25T11:36:29+00:00</time>
      </trkpt>
      <trkpt lat="50.21126" lon="4.96268">
        <ele>111</ele>
        <time>2026-08-25T11:36:32+00:00</time>
      </trkpt>
      <trkpt lat="50.21108" lon="4.9627">
        <ele>109</ele>
        <time>2026-08-25T11:36:35+00:00</time>
      </trkpt>
      <trkpt lat="50.21096" lon="4.96278">
        <ele>113</ele>
        <time>2026-08-25T11:36:38+00:00</time>
      </trkpt>
      <trkpt lat="50.21088" lon="4.96286">
        <ele>107</ele>
        <time>2026-08-25T11:36:41+00:00</time>
      </trkpt>
      <trkpt lat="50.21083" lon="4.96299">
        <ele>107</ele>
        <time>2026-08-25T11:36:44+00:00</time>
      </trkpt>
      <trkpt lat="50.21089" lon="4.96305">
        <ele>105</ele>
        <time>2026-08-25T11:36:47+00:00</time>
      </trkpt>
      <trkpt lat="50.21098" lon="4.96305">
        <ele>107</ele>
        <time>2026-08-25T11:36:50+00:00</time>
      </trkpt>
      <trkpt lat="50.21138" lon="4.96302">
        <ele>107</ele>
        <time>2026-08-25T11:36:53+00:00</time>
      </trkpt>
      <trkpt lat="50.21161" lon="4.96288">
        <ele>107</ele>
        <time>2026-08-25T11:36:56+00:00</time>
      </trkpt>
      <trkpt lat="50.21194" lon="4.96268">
        <ele>112</ele>
        <time>2026-08-25T11:36:59+00:00</time>
      </trkpt>
      <trkpt lat="50.21209" lon="4.96261">
        <ele>112</ele>
        <time>2026-08-25T11:37:02+00:00</time>
      </trkpt>
      <trkpt lat="50.21231" lon="4.96249">
        <ele>115</ele>
        <time>2026-08-25T11:37:05+00:00</time>
      </trkpt>
      <trkpt lat="50.21275" lon="4.96227">
        <ele>115</ele>
        <time>2026-08-25T11:37:08+00:00</time>
      </trkpt>
      <trkpt lat="50.21293" lon="4.96211">
        <ele>114</ele>
        <time>2026-08-25T11:37:11+00:00</time>
      </trkpt>
      <trkpt lat="50.21321" lon="4.96182">
        <ele>114</ele>
        <time>2026-08-25T11:37:14+00:00</time>
      </trkpt>
      <trkpt lat="50.21339" lon="4.96161">
        <ele>114</ele>
        <time>2026-08-25T11:37:17+00:00</time>
      </trkpt>
      <trkpt lat="50.21357" lon="4.9614">
        <ele>114</ele>
        <time>2026-08-25T11:37:20+00:00</time>
      </trkpt>
      <trkpt lat="50.21378" lon="4.96112">
        <ele>115</ele>
        <time>2026-08-25T11:37:23+00:00</time>
      </trkpt>
      <trkpt lat="50.21383" lon="4.96099">
        <ele>116</ele>
        <time>2026-08-25T11:37:26+00:00</time>
      </trkpt>
      <trkpt lat="50.21387" lon="4.9608">
        <ele>118</ele>
        <time>2026-08-25T11:37:29+00:00</time>
      </trkpt>
      <trkpt lat="50.21388" lon="4.96072">
        <ele>120</ele>
        <time>2026-08-25T11:37:32+00:00</time>
      </trkpt>
      <trkpt lat="50.2139" lon="4.96039">
        <ele>124</ele>
        <time>2026-08-25T11:37:35+00:00</time>
      </trkpt>
      <trkpt lat="50.21393" lon="4.95999">
        <ele>125</ele>
        <time>2026-08-25T11:37:38+00:00</time>
      </trkpt>
      <trkpt lat="50.21395" lon="4.95942">
        <ele>122</ele>
        <time>2026-08-25T11:37:41+00:00</time>
      </trkpt>
      <trkpt lat="50.21395" lon="4.95908">
        <ele>120</ele>
        <time>2026-08-25T11:37:44+00:00</time>
      </trkpt>
      <trkpt lat="50.21394" lon="4.95888">
        <ele>118</ele>
        <time>2026-08-25T11:37:47+00:00</time>
      </trkpt>
      <trkpt lat="50.21391" lon="4.95871">
        <ele>116</ele>
        <time>2026-08-25T11:37:50+00:00</time>
      </trkpt>
      <trkpt lat="50.21384" lon="4.95853">
        <ele>114</ele>
        <time>2026-08-25T11:37:53+00:00</time>
      </trkpt>
      <trkpt lat="50.2137" lon="4.95832">
        <ele>117</ele>
        <time>2026-08-25T11:37:56+00:00</time>
      </trkpt>
      <trkpt lat="50.2135" lon="4.95809">
        <ele>119</ele>
        <time>2026-08-25T11:37:59+00:00</time>
      </trkpt>
      <trkpt lat="50.21327" lon="4.95788">
        <ele>122</ele>
        <time>2026-08-25T11:38:02+00:00</time>
      </trkpt>
      <trkpt lat="50.21304" lon="4.9577">
        <ele>123</ele>
        <time>2026-08-25T11:38:05+00:00</time>
      </trkpt>
      <trkpt lat="50.21269" lon="4.95742">
        <ele>120</ele>
        <time>2026-08-25T11:38:08+00:00</time>
      </trkpt>
      <trkpt lat="50.21234" lon="4.95721">
        <ele>118</ele>
        <time>2026-08-25T11:38:11+00:00</time>
      </trkpt>
      <trkpt lat="50.2121" lon="4.95705">
        <ele>112</ele>
        <time>2026-08-25T11:38:14+00:00</time>
      </trkpt>
      <trkpt lat="50.21176" lon="4.95682">
        <ele>102</ele>
        <time>2026-08-25T11:38:17+00:00</time>
      </trkpt>
      <trkpt lat="50.21154" lon="4.95668">
        <ele>102</ele>
        <time>2026-08-25T11:38:20+00:00</time>
      </trkpt>
      <trkpt lat="50.21128" lon="4.95655">
        <ele>103</ele>
        <time>2026-08-25T11:38:23+00:00</time>
      </trkpt>
      <trkpt lat="50.21106" lon="4.95646">
        <ele>103</ele>
        <time>2026-08-25T11:38:26+00:00</time>
      </trkpt>
      <trkpt lat="50.21088" lon="4.95643">
        <ele>107</ele>
        <time>2026-08-25T11:38:29+00:00</time>
      </trkpt>
      <trkpt lat="50.21075" lon="4.95644">
        <ele>103</ele>
        <time>2026-08-25T11:38:32+00:00</time>
      </trkpt>
      <trkpt lat="50.21058" lon="4.95652">
        <ele>111</ele>
        <time>2026-08-25T11:38:35+00:00</time>
      </trkpt>
      <trkpt lat="50.21036" lon="4.95663">
        <ele>119</ele>
        <time>2026-08-25T11:38:38+00:00</time>
      </trkpt>
      <trkpt lat="50.21021" lon="4.95666">
        <ele>121</ele>
        <time>2026-08-25T11:38:41+00:00</time>
      </trkpt>
      <trkpt lat="50.21003" lon="4.95656">
        <ele>123</ele>
        <time>2026-08-25T11:38:44+00:00</time>
      </trkpt>
      <trkpt lat="50.20983" lon="4.95632">
        <ele>125</ele>
        <time>2026-08-25T11:38:47+00:00</time>
      </trkpt>
      <trkpt lat="50.20961" lon="4.95604">
        <ele>129</ele>
        <time>2026-08-25T11:38:50+00:00</time>
      </trkpt>
      <trkpt lat="50.20949" lon="4.95581">
        <ele>134</ele>
        <time>2026-08-25T11:38:53+00:00</time>
      </trkpt>
      <trkpt lat="50.2094" lon="4.95558">
        <ele>134</ele>
        <time>2026-08-25T11:38:56+00:00</time>
      </trkpt>
      <trkpt lat="50.20931" lon="4.95527">
        <ele>134</ele>
        <time>2026-08-25T11:38:59+00:00</time>
      </trkpt>
      <trkpt lat="50.20924" lon="4.95495">
        <ele>135</ele>
        <time>2026-08-25T11:39:02+00:00</time>
      </trkpt>
      <trkpt lat="50.20921" lon="4.95448">
        <ele>135</ele>
        <time>2026-08-25T11:39:05+00:00</time>
      </trkpt>
      <trkpt lat="50.20921" lon="4.95391">
        <ele>134</ele>
        <time>2026-08-25T11:39:08+00:00</time>
      </trkpt>
      <trkpt lat="50.20922" lon="4.95336">
        <ele>133</ele>
        <time>2026-08-25T11:39:11+00:00</time>
      </trkpt>
      <trkpt lat="50.20924" lon="4.95287">
        <ele>132</ele>
        <time>2026-08-25T11:39:14+00:00</time>
      </trkpt>
      <trkpt lat="50.20927" lon="4.95237">
        <ele>131</ele>
        <time>2026-08-25T11:39:17+00:00</time>
      </trkpt>
      <trkpt lat="50.20931" lon="4.95191">
        <ele>132</ele>
        <time>2026-08-25T11:39:20+00:00</time>
      </trkpt>
      <trkpt lat="50.20939" lon="4.95143">
        <ele>134</ele>
        <time>2026-08-25T11:39:23+00:00</time>
      </trkpt>
      <trkpt lat="50.2095" lon="4.95096">
        <ele>133</ele>
        <time>2026-08-25T11:39:26+00:00</time>
      </trkpt>
      <trkpt lat="50.20959" lon="4.95062">
        <ele>133</ele>
        <time>2026-08-25T11:39:29+00:00</time>
      </trkpt>
      <trkpt lat="50.2097" lon="4.95021">
        <ele>123</ele>
        <time>2026-08-25T11:39:32+00:00</time>
      </trkpt>
      <trkpt lat="50.20982" lon="4.94986">
        <ele>122</ele>
        <time>2026-08-25T11:39:35+00:00</time>
      </trkpt>
      <trkpt lat="50.20991" lon="4.94964">
        <ele>114</ele>
        <time>2026-08-25T11:39:38+00:00</time>
      </trkpt>
      <trkpt lat="50.21006" lon="4.94934">
        <ele>122</ele>
        <time>2026-08-25T11:39:41+00:00</time>
      </trkpt>
      <trkpt lat="50.21027" lon="4.94902">
        <ele>116</ele>
        <time>2026-08-25T11:39:44+00:00</time>
      </trkpt>
      <trkpt lat="50.21052" lon="4.94869">
        <ele>116</ele>
        <time>2026-08-25T11:39:47+00:00</time>
      </trkpt>
      <trkpt lat="50.21074" lon="4.94849">
        <ele>116</ele>
        <time>2026-08-25T11:39:50+00:00</time>
      </trkpt>
      <trkpt lat="50.21106" lon="4.94821">
        <ele>112</ele>
        <time>2026-08-25T11:39:53+00:00</time>
      </trkpt>
      <trkpt lat="50.21117" lon="4.94818">
        <ele>110</ele>
        <time>2026-08-25T11:39:56+00:00</time>
      </trkpt>
      <trkpt lat="50.21119" lon="4.94818">
        <ele>110</ele>
        <time>2026-08-25T11:39:59+00:00</time>
      </trkpt>
      <trkpt lat="50.21131" lon="4.94823">
        <ele>112</ele>
        <time>2026-08-25T11:40:02+00:00</time>
      </trkpt>
      <trkpt lat="50.2113" lon="4.94809">
        <ele>108</ele>
        <time>2026-08-25T11:40:05+00:00</time>
      </trkpt>
      <trkpt lat="50.21125" lon="4.9478">
        <ele>112</ele>
        <time>2026-08-25T11:40:08+00:00</time>
      </trkpt>
      <trkpt lat="50.21119" lon="4.94747">
        <ele>127</ele>
        <time>2026-08-25T11:40:11+00:00</time>
      </trkpt>
      <trkpt lat="50.21113" lon="4.94722">
        <ele>128</ele>
        <time>2026-08-25T11:40:14+00:00</time>
      </trkpt>
      <trkpt lat="50.21109" lon="4.94695">
        <ele>135</ele>
        <time>2026-08-25T11:40:17+00:00</time>
      </trkpt>
      <trkpt lat="50.21104" lon="4.94659">
        <ele>138</ele>
        <time>2026-08-25T11:40:20+00:00</time>
      </trkpt>
      <trkpt lat="50.21095" lon="4.94625">
        <ele>138</ele>
        <time>2026-08-25T11:40:23+00:00</time>
      </trkpt>
      <trkpt lat="50.21085" lon="4.94583">
        <ele>138</ele>
        <time>2026-08-25T11:40:26+00:00</time>
      </trkpt>
      <trkpt lat="50.2108" lon="4.94548">
        <ele>144</ele>
        <time>2026-08-25T11:40:29+00:00</time>
      </trkpt>
      <trkpt lat="50.21075" lon="4.94507">
        <ele>144</ele>
        <time>2026-08-25T11:40:32+00:00</time>
      </trkpt>
      <trkpt lat="50.21071" lon="4.94458">
        <ele>146</ele>
        <time>2026-08-25T11:40:35+00:00</time>
      </trkpt>
      <trkpt lat="50.21071" lon="4.94418">
        <ele>148</ele>
        <time>2026-08-25T11:40:38+00:00</time>
      </trkpt>
      <trkpt lat="50.2107" lon="4.94357">
        <ele>148</ele>
        <time>2026-08-25T11:40:41+00:00</time>
      </trkpt>
      <trkpt lat="50.21066" lon="4.94325">
        <ele>150</ele>
        <time>2026-08-25T11:40:44+00:00</time>
      </trkpt>
      <trkpt lat="50.21056" lon="4.9429">
        <ele>150</ele>
        <time>2026-08-25T11:40:47+00:00</time>
      </trkpt>
      <trkpt lat="50.21052" lon="4.94265">
        <ele>151</ele>
        <time>2026-08-25T11:40:50+00:00</time>
      </trkpt>
      <trkpt lat="50.21045" lon="4.94232">
        <ele>150</ele>
        <time>2026-08-25T11:40:53+00:00</time>
      </trkpt>
      <trkpt lat="50.21033" lon="4.94171">
        <ele>151</ele>
        <time>2026-08-25T11:40:56+00:00</time>
      </trkpt>
      <trkpt lat="50.21018" lon="4.94137">
        <ele>152</ele>
        <time>2026-08-25T11:40:59+00:00</time>
      </trkpt>
      <trkpt lat="50.20994" lon="4.94084">
        <ele>150</ele>
        <time>2026-08-25T11:41:02+00:00</time>
      </trkpt>
      <trkpt lat="50.20987" lon="4.94065">
        <ele>158</ele>
        <time>2026-08-25T11:41:05+00:00</time>
      </trkpt>
      <trkpt lat="50.20964" lon="4.94045">
        <ele>148</ele>
        <time>2026-08-25T11:41:08+00:00</time>
      </trkpt>
      <trkpt lat="50.20941" lon="4.94026">
        <ele>148</ele>
        <time>2026-08-25T11:41:11+00:00</time>
      </trkpt>
      <trkpt lat="50.20908" lon="4.93998">
        <ele>148</ele>
        <time>2026-08-25T11:41:14+00:00</time>
      </trkpt>
      <trkpt lat="50.2089" lon="4.93976">
        <ele>148</ele>
        <time>2026-08-25T11:41:17+00:00</time>
      </trkpt>
      <trkpt lat="50.20871" lon="4.93953">
        <ele>148</ele>
        <time>2026-08-25T11:41:20+00:00</time>
      </trkpt>
      <trkpt lat="50.20855" lon="4.93922">
        <ele>148</ele>
        <time>2026-08-25T11:41:23+00:00</time>
      </trkpt>
      <trkpt lat="50.20832" lon="4.93879">
        <ele>149</ele>
        <time>2026-08-25T11:41:26+00:00</time>
      </trkpt>
      <trkpt lat="50.20822" lon="4.93848">
        <ele>149</ele>
        <time>2026-08-25T11:41:29+00:00</time>
      </trkpt>
      <trkpt lat="50.20812" lon="4.93814">
        <ele>148</ele>
        <time>2026-08-25T11:41:32+00:00</time>
      </trkpt>
      <trkpt lat="50.208" lon="4.93765">
        <ele>155</ele>
        <time>2026-08-25T11:41:35+00:00</time>
      </trkpt>
      <trkpt lat="50.20779" lon="4.93718">
        <ele>162</ele>
        <time>2026-08-25T11:41:38+00:00</time>
      </trkpt>
      <trkpt lat="50.20761" lon="4.93698">
        <ele>163</ele>
        <time>2026-08-25T11:41:41+00:00</time>
      </trkpt>
      <trkpt lat="50.20754" lon="4.93689">
        <ele>167</ele>
        <time>2026-08-25T11:41:44+00:00</time>
      </trkpt>
      <trkpt lat="50.20744" lon="4.9368">
        <ele>170</ele>
        <time>2026-08-25T11:41:47+00:00</time>
      </trkpt>
      <trkpt lat="50.20731" lon="4.93671">
        <ele>172</ele>
        <time>2026-08-25T11:41:50+00:00</time>
      </trkpt>
      <trkpt lat="50.20712" lon="4.93652">
        <ele>174</ele>
        <time>2026-08-25T11:41:53+00:00</time>
      </trkpt>
      <trkpt lat="50.20689" lon="4.93602">
        <ele>176</ele>
        <time>2026-08-25T11:41:56+00:00</time>
      </trkpt>
      <trkpt lat="50.20663" lon="4.93558">
        <ele>179</ele>
        <time>2026-08-25T11:41:59+00:00</time>
      </trkpt>
      <trkpt lat="50.2065" lon="4.9353">
        <ele>180</ele>
        <time>2026-08-25T11:42:02+00:00</time>
      </trkpt>
      <trkpt lat="50.20636" lon="4.93499">
        <ele>180</ele>
        <time>2026-08-25T11:42:05+00:00</time>
      </trkpt>
      <trkpt lat="50.20614" lon="4.93443">
        <ele>180</ele>
        <time>2026-08-25T11:42:08+00:00</time>
      </trkpt>
      <trkpt lat="50.20594" lon="4.93428">
        <ele>180</ele>
        <time>2026-08-25T11:42:11+00:00</time>
      </trkpt>
      <trkpt lat="50.20572" lon="4.93411">
        <ele>179</ele>
        <time>2026-08-25T11:42:14+00:00</time>
      </trkpt>
      <trkpt lat="50.20569" lon="4.93404">
        <ele>184</ele>
        <time>2026-08-25T11:42:17+00:00</time>
      </trkpt>
      <trkpt lat="50.20565" lon="4.93389">
        <ele>175</ele>
        <time>2026-08-25T11:42:20+00:00</time>
      </trkpt>
      <trkpt lat="50.20559" lon="4.93389">
        <ele>179</ele>
        <time>2026-08-25T11:42:23+00:00</time>
      </trkpt>
      <trkpt lat="50.20553" lon="4.93385">
        <ele>178</ele>
        <time>2026-08-25T11:42:26+00:00</time>
      </trkpt>
      <trkpt lat="50.2053" lon="4.93357">
        <ele>179</ele>
        <time>2026-08-25T11:42:29+00:00</time>
      </trkpt>
      <trkpt lat="50.20519" lon="4.93349">
        <ele>177</ele>
        <time>2026-08-25T11:42:32+00:00</time>
      </trkpt>
      <trkpt lat="50.20499" lon="4.93342">
        <ele>181</ele>
        <time>2026-08-25T11:42:35+00:00</time>
      </trkpt>
      <trkpt lat="50.20469" lon="4.93331">
        <ele>185</ele>
        <time>2026-08-25T11:42:38+00:00</time>
      </trkpt>
      <trkpt lat="50.20449" lon="4.93321">
        <ele>189</ele>
        <time>2026-08-25T11:42:41+00:00</time>
      </trkpt>
      <trkpt lat="50.20427" lon="4.93305">
        <ele>189</ele>
        <time>2026-08-25T11:42:44+00:00</time>
      </trkpt>
      <trkpt lat="50.20401" lon="4.93285">
        <ele>189</ele>
        <time>2026-08-25T11:42:47+00:00</time>
      </trkpt>
      <trkpt lat="50.20372" lon="4.93266">
        <ele>187</ele>
        <time>2026-08-25T11:42:50+00:00</time>
      </trkpt>
      <trkpt lat="50.20352" lon="4.93258">
        <ele>186</ele>
        <time>2026-08-25T11:42:53+00:00</time>
      </trkpt>
      <trkpt lat="50.20354" lon="4.93245">
        <ele>185</ele>
        <time>2026-08-25T11:42:56+00:00</time>
      </trkpt>
      <trkpt lat="50.20366" lon="4.932">
        <ele>186</ele>
        <time>2026-08-25T11:42:59+00:00</time>
      </trkpt>
      <trkpt lat="50.20355" lon="4.93168">
        <ele>188</ele>
        <time>2026-08-25T11:43:02+00:00</time>
      </trkpt>
      <trkpt lat="50.20337" lon="4.93122">
        <ele>193</ele>
        <time>2026-08-25T11:43:05+00:00</time>
      </trkpt>
      <trkpt lat="50.20329" lon="4.93111">
        <ele>194</ele>
        <time>2026-08-25T11:43:08+00:00</time>
      </trkpt>
      <trkpt lat="50.20311" lon="4.93084">
        <ele>197</ele>
        <time>2026-08-25T11:43:11+00:00</time>
      </trkpt>
      <trkpt lat="50.20278" lon="4.93032">
        <ele>200</ele>
        <time>2026-08-25T11:43:14+00:00</time>
      </trkpt>
      <trkpt lat="50.20257" lon="4.92996">
        <ele>201</ele>
        <time>2026-08-25T11:43:17+00:00</time>
      </trkpt>
      <trkpt lat="50.2024" lon="4.92966">
        <ele>201</ele>
        <time>2026-08-25T11:43:20+00:00</time>
      </trkpt>
      <trkpt lat="50.20217" lon="4.92925">
        <ele>204</ele>
        <time>2026-08-25T11:43:23+00:00</time>
      </trkpt>
      <trkpt lat="50.20209" lon="4.92893">
        <ele>204</ele>
        <time>2026-08-25T11:43:26+00:00</time>
      </trkpt>
      <trkpt lat="50.20209" lon="4.92862">
        <ele>205</ele>
        <time>2026-08-25T11:43:29+00:00</time>
      </trkpt>
      <trkpt lat="50.20212" lon="4.92815">
        <ele>204</ele>
        <time>2026-08-25T11:43:32+00:00</time>
      </trkpt>
      <trkpt lat="50.20215" lon="4.92776">
        <ele>204</ele>
        <time>2026-08-25T11:43:35+00:00</time>
      </trkpt>
      <trkpt lat="50.2022" lon="4.9272">
        <ele>204</ele>
        <time>2026-08-25T11:43:38+00:00</time>
      </trkpt>
      <trkpt lat="50.20222" lon="4.92684">
        <ele>204</ele>
        <time>2026-08-25T11:43:41+00:00</time>
      </trkpt>
      <trkpt lat="50.20227" lon="4.92656">
        <ele>203</ele>
        <time>2026-08-25T11:43:44+00:00</time>
      </trkpt>
      <trkpt lat="50.2023" lon="4.92614">
        <ele>203</ele>
        <time>2026-08-25T11:43:47+00:00</time>
      </trkpt>
      <trkpt lat="50.2023" lon="4.92577">
        <ele>206</ele>
        <time>2026-08-25T11:43:50+00:00</time>
      </trkpt>
      <trkpt lat="50.2023" lon="4.9253">
        <ele>206</ele>
        <time>2026-08-25T11:43:53+00:00</time>
      </trkpt>
      <trkpt lat="50.20225" lon="4.92495">
        <ele>206</ele>
        <time>2026-08-25T11:43:56+00:00</time>
      </trkpt>
      <trkpt lat="50.20221" lon="4.92471">
        <ele>208</ele>
        <time>2026-08-25T11:43:59+00:00</time>
      </trkpt>
      <trkpt lat="50.20213" lon="4.92446">
        <ele>206</ele>
        <time>2026-08-25T11:44:02+00:00</time>
      </trkpt>
      <trkpt lat="50.20203" lon="4.92413">
        <ele>206</ele>
        <time>2026-08-25T11:44:05+00:00</time>
      </trkpt>
      <trkpt lat="50.20184" lon="4.92364">
        <ele>209</ele>
        <time>2026-08-25T11:44:08+00:00</time>
      </trkpt>
      <trkpt lat="50.20169" lon="4.92332">
        <ele>208</ele>
        <time>2026-08-25T11:44:11+00:00</time>
      </trkpt>
      <trkpt lat="50.20148" lon="4.92285">
        <ele>207</ele>
        <time>2026-08-25T11:44:14+00:00</time>
      </trkpt>
      <trkpt lat="50.20142" lon="4.92276">
        <ele>206</ele>
        <time>2026-08-25T11:44:17+00:00</time>
      </trkpt>
      <trkpt lat="50.20148" lon="4.92236">
        <ele>206</ele>
        <time>2026-08-25T11:44:20+00:00</time>
      </trkpt>
      <trkpt lat="50.20154" lon="4.92197">
        <ele>206</ele>
        <time>2026-08-25T11:44:23+00:00</time>
      </trkpt>
      <trkpt lat="50.2016" lon="4.92157">
        <ele>207</ele>
        <time>2026-08-25T11:44:26+00:00</time>
      </trkpt>
      <trkpt lat="50.20165" lon="4.9212">
        <ele>209</ele>
        <time>2026-08-25T11:44:29+00:00</time>
      </trkpt>
      <trkpt lat="50.20171" lon="4.92075">
        <ele>210</ele>
        <time>2026-08-25T11:44:32+00:00</time>
      </trkpt>
      <trkpt lat="50.20169" lon="4.92033">
        <ele>212</ele>
        <time>2026-08-25T11:44:35+00:00</time>
      </trkpt>
      <trkpt lat="50.20166" lon="4.91963">
        <ele>217</ele>
        <time>2026-08-25T11:44:38+00:00</time>
      </trkpt>
      <trkpt lat="50.2016" lon="4.91913">
        <ele>219</ele>
        <time>2026-08-25T11:44:41+00:00</time>
      </trkpt>
      <trkpt lat="50.20154" lon="4.91862">
        <ele>221</ele>
        <time>2026-08-25T11:44:44+00:00</time>
      </trkpt>
      <trkpt lat="50.20149" lon="4.91812">
        <ele>223</ele>
        <time>2026-08-25T11:44:47+00:00</time>
      </trkpt>
      <trkpt lat="50.20142" lon="4.91753">
        <ele>227</ele>
        <time>2026-08-25T11:44:50+00:00</time>
      </trkpt>
      <trkpt lat="50.2015" lon="4.91712">
        <ele>231</ele>
        <time>2026-08-25T11:44:53+00:00</time>
      </trkpt>
      <trkpt lat="50.20165" lon="4.91639">
        <ele>235</ele>
        <time>2026-08-25T11:44:56+00:00</time>
      </trkpt>
      <trkpt lat="50.20177" lon="4.91608">
        <ele>236</ele>
        <time>2026-08-25T11:44:59+00:00</time>
      </trkpt>
      <trkpt lat="50.20191" lon="4.91571">
        <ele>237</ele>
        <time>2026-08-25T11:45:02+00:00</time>
      </trkpt>
      <trkpt lat="50.20193" lon="4.9153">
        <ele>239</ele>
        <time>2026-08-25T11:45:05+00:00</time>
      </trkpt>
      <trkpt lat="50.20185" lon="4.91491">
        <ele>241</ele>
        <time>2026-08-25T11:45:08+00:00</time>
      </trkpt>
      <trkpt lat="50.20173" lon="4.91433">
        <ele>244</ele>
        <time>2026-08-25T11:45:11+00:00</time>
      </trkpt>
      <trkpt lat="50.20168" lon="4.91388">
        <ele>245</ele>
        <time>2026-08-25T11:45:14+00:00</time>
      </trkpt>
      <trkpt lat="50.20163" lon="4.91342">
        <ele>247</ele>
        <time>2026-08-25T11:45:17+00:00</time>
      </trkpt>
      <trkpt lat="50.20158" lon="4.9129">
        <ele>250</ele>
        <time>2026-08-25T11:45:20+00:00</time>
      </trkpt>
      <trkpt lat="50.2015" lon="4.91247">
        <ele>251</ele>
        <time>2026-08-25T11:45:23+00:00</time>
      </trkpt>
      <trkpt lat="50.20141" lon="4.91204">
        <ele>251</ele>
        <time>2026-08-25T11:45:26+00:00</time>
      </trkpt>
      <trkpt lat="50.20133" lon="4.9116">
        <ele>252</ele>
        <time>2026-08-25T11:45:29+00:00</time>
      </trkpt>
      <trkpt lat="50.20116" lon="4.91124">
        <ele>253</ele>
        <time>2026-08-25T11:45:32+00:00</time>
      </trkpt>
      <trkpt lat="50.20098" lon="4.91088">
        <ele>255</ele>
        <time>2026-08-25T11:45:35+00:00</time>
      </trkpt>
      <trkpt lat="50.2008" lon="4.91051">
        <ele>255</ele>
        <time>2026-08-25T11:45:38+00:00</time>
      </trkpt>
      <trkpt lat="50.20058" lon="4.91006">
        <ele>256</ele>
        <time>2026-08-25T11:45:41+00:00</time>
      </trkpt>
      <trkpt lat="50.20037" lon="4.90961">
        <ele>257</ele>
        <time>2026-08-25T11:45:44+00:00</time>
      </trkpt>
      <trkpt lat="50.20015" lon="4.90916">
        <ele>258</ele>
        <time>2026-08-25T11:45:47+00:00</time>
      </trkpt>
      <trkpt lat="50.19994" lon="4.90872">
        <ele>258</ele>
        <time>2026-08-25T11:45:50+00:00</time>
      </trkpt>
      <trkpt lat="50.19951" lon="4.90783">
        <ele>258</ele>
        <time>2026-08-25T11:45:53+00:00</time>
      </trkpt>
      <trkpt lat="50.19936" lon="4.90754">
        <ele>257</ele>
        <time>2026-08-25T11:45:56+00:00</time>
      </trkpt>
      <trkpt lat="50.19917" lon="4.90718">
        <ele>256</ele>
        <time>2026-08-25T11:45:59+00:00</time>
      </trkpt>
      <trkpt lat="50.19899" lon="4.90677">
        <ele>256</ele>
        <time>2026-08-25T11:46:02+00:00</time>
      </trkpt>
      <trkpt lat="50.1988" lon="4.90636">
        <ele>256</ele>
        <time>2026-08-25T11:46:05+00:00</time>
      </trkpt>
      <trkpt lat="50.19845" lon="4.90557">
        <ele>255</ele>
        <time>2026-08-25T11:46:08+00:00</time>
      </trkpt>
      <trkpt lat="50.19832" lon="4.90534">
        <ele>254</ele>
        <time>2026-08-25T11:46:11+00:00</time>
      </trkpt>
      <trkpt lat="50.19841" lon="4.90516">
        <ele>253</ele>
        <time>2026-08-25T11:46:14+00:00</time>
      </trkpt>
      <trkpt lat="50.19853" lon="4.90489">
        <ele>253</ele>
        <time>2026-08-25T11:46:17+00:00</time>
      </trkpt>
      <trkpt lat="50.19872" lon="4.90445">
        <ele>251</ele>
        <time>2026-08-25T11:46:20+00:00</time>
      </trkpt>
      <trkpt lat="50.19887" lon="4.90414">
        <ele>250</ele>
        <time>2026-08-25T11:46:23+00:00</time>
      </trkpt>
      <trkpt lat="50.19905" lon="4.90388">
        <ele>249</ele>
        <time>2026-08-25T11:46:26+00:00</time>
      </trkpt>
      <trkpt lat="50.19915" lon="4.90377">
        <ele>248</ele>
        <time>2026-08-25T11:46:29+00:00</time>
      </trkpt>
      <trkpt lat="50.19938" lon="4.90354">
        <ele>246</ele>
        <time>2026-08-25T11:46:32+00:00</time>
      </trkpt>
      <trkpt lat="50.19962" lon="4.90336">
        <ele>245</ele>
        <time>2026-08-25T11:46:35+00:00</time>
      </trkpt>
      <trkpt lat="50.19981" lon="4.90324">
        <ele>244</ele>
        <time>2026-08-25T11:46:38+00:00</time>
      </trkpt>
      <trkpt lat="50.20003" lon="4.90312">
        <ele>243</ele>
        <time>2026-08-25T11:46:41+00:00</time>
      </trkpt>
      <trkpt lat="50.20027" lon="4.90299">
        <ele>242</ele>
        <time>2026-08-25T11:46:44+00:00</time>
      </trkpt>
      <trkpt lat="50.20045" lon="4.90286">
        <ele>241</ele>
        <time>2026-08-25T11:46:47+00:00</time>
      </trkpt>
      <trkpt lat="50.20061" lon="4.90271">
        <ele>241</ele>
        <time>2026-08-25T11:46:50+00:00</time>
      </trkpt>
      <trkpt lat="50.20068" lon="4.90262">
        <ele>241</ele>
        <time>2026-08-25T11:46:53+00:00</time>
      </trkpt>
      <trkpt lat="50.20077" lon="4.9024">
        <ele>241</ele>
        <time>2026-08-25T11:46:56+00:00</time>
      </trkpt>
      <trkpt lat="50.20087" lon="4.90187">
        <ele>240</ele>
        <time>2026-08-25T11:46:59+00:00</time>
      </trkpt>
      <trkpt lat="50.20089" lon="4.9016">
        <ele>240</ele>
        <time>2026-08-25T11:47:02+00:00</time>
      </trkpt>
      <trkpt lat="50.20084" lon="4.90134">
        <ele>240</ele>
        <time>2026-08-25T11:47:05+00:00</time>
      </trkpt>
      <trkpt lat="50.20077" lon="4.90108">
        <ele>240</ele>
        <time>2026-08-25T11:47:08+00:00</time>
      </trkpt>
      <trkpt lat="50.20065" lon="4.90056">
        <ele>239</ele>
        <time>2026-08-25T11:47:11+00:00</time>
      </trkpt>
      <trkpt lat="50.20053" lon="4.90005">
        <ele>238</ele>
        <time>2026-08-25T11:47:14+00:00</time>
      </trkpt>
      <trkpt lat="50.20041" lon="4.89953">
        <ele>238</ele>
        <time>2026-08-25T11:47:17+00:00</time>
      </trkpt>
      <trkpt lat="50.20029" lon="4.89901">
        <ele>238</ele>
        <time>2026-08-25T11:47:20+00:00</time>
      </trkpt>
      <trkpt lat="50.20012" lon="4.89827">
        <ele>237</ele>
        <time>2026-08-25T11:47:23+00:00</time>
      </trkpt>
      <trkpt lat="50.19999" lon="4.8978">
        <ele>236</ele>
        <time>2026-08-25T11:47:26+00:00</time>
      </trkpt>
      <trkpt lat="50.19988" lon="4.89754">
        <ele>236</ele>
        <time>2026-08-25T11:47:29+00:00</time>
      </trkpt>
      <trkpt lat="50.19978" lon="4.89726">
        <ele>235</ele>
        <time>2026-08-25T11:47:32+00:00</time>
      </trkpt>
      <trkpt lat="50.19966" lon="4.89704">
        <ele>234</ele>
        <time>2026-08-25T11:47:35+00:00</time>
      </trkpt>
      <trkpt lat="50.19949" lon="4.89665">
        <ele>234</ele>
        <time>2026-08-25T11:47:38+00:00</time>
      </trkpt>
      <trkpt lat="50.19932" lon="4.89625">
        <ele>233</ele>
        <time>2026-08-25T11:47:41+00:00</time>
      </trkpt>
      <trkpt lat="50.19909" lon="4.89572">
        <ele>231</ele>
        <time>2026-08-25T11:47:44+00:00</time>
      </trkpt>
      <trkpt lat="50.1989" lon="4.89542">
        <ele>230</ele>
        <time>2026-08-25T11:47:47+00:00</time>
      </trkpt>
      <trkpt lat="50.19871" lon="4.89552">
        <ele>230</ele>
        <time>2026-08-25T11:47:50+00:00</time>
      </trkpt>
      <trkpt lat="50.19841" lon="4.89516">
        <ele>228</ele>
        <time>2026-08-25T11:47:53+00:00</time>
      </trkpt>
      <trkpt lat="50.1983" lon="4.895">
        <ele>228</ele>
        <time>2026-08-25T11:47:56+00:00</time>
      </trkpt>
      <trkpt lat="50.19841" lon="4.89484">
        <ele>227</ele>
        <time>2026-08-25T11:47:59+00:00</time>
      </trkpt>
      <trkpt lat="50.19836" lon="4.89475">
        <ele>228</ele>
        <time>2026-08-25T11:48:02+00:00</time>
      </trkpt>
      <trkpt lat="50.19833" lon="4.89446">
        <ele>226</ele>
        <time>2026-08-25T11:48:05+00:00</time>
      </trkpt>
      <trkpt lat="50.1983" lon="4.89416">
        <ele>224</ele>
        <time>2026-08-25T11:48:08+00:00</time>
      </trkpt>
      <trkpt lat="50.19821" lon="4.89352">
        <ele>216</ele>
        <time>2026-08-25T11:48:11+00:00</time>
      </trkpt>
      <trkpt lat="50.19818" lon="4.89322">
        <ele>215</ele>
        <time>2026-08-25T11:48:14+00:00</time>
      </trkpt>
      <trkpt lat="50.19818" lon="4.89311">
        <ele>213</ele>
        <time>2026-08-25T11:48:17+00:00</time>
      </trkpt>
      <trkpt lat="50.19809" lon="4.89305">
        <ele>212</ele>
        <time>2026-08-25T11:48:20+00:00</time>
      </trkpt>
      <trkpt lat="50.19793" lon="4.89287">
        <ele>210</ele>
        <time>2026-08-25T11:48:23+00:00</time>
      </trkpt>
      <trkpt lat="50.1977" lon="4.8926">
        <ele>209</ele>
        <time>2026-08-25T11:48:26+00:00</time>
      </trkpt>
      <trkpt lat="50.19761" lon="4.89251">
        <ele>207</ele>
        <time>2026-08-25T11:48:29+00:00</time>
      </trkpt>
      <trkpt lat="50.19747" lon="4.89235">
        <ele>208</ele>
        <time>2026-08-25T11:48:32+00:00</time>
      </trkpt>
      <trkpt lat="50.19742" lon="4.89212">
        <ele>205</ele>
        <time>2026-08-25T11:48:35+00:00</time>
      </trkpt>
      <trkpt lat="50.19745" lon="4.89194">
        <ele>204</ele>
        <time>2026-08-25T11:48:38+00:00</time>
      </trkpt>
      <trkpt lat="50.19745" lon="4.89129">
        <ele>204</ele>
        <time>2026-08-25T11:48:41+00:00</time>
      </trkpt>
      <trkpt lat="50.19749" lon="4.89119">
        <ele>201</ele>
        <time>2026-08-25T11:48:44+00:00</time>
      </trkpt>
      <trkpt lat="50.19773" lon="4.89116">
        <ele>205</ele>
        <time>2026-08-25T11:48:47+00:00</time>
      </trkpt>
      <trkpt lat="50.19815" lon="4.89112">
        <ele>205</ele>
        <time>2026-08-25T11:48:50+00:00</time>
      </trkpt>
      <trkpt lat="50.19853" lon="4.89125">
        <ele>210</ele>
        <time>2026-08-25T11:48:53+00:00</time>
      </trkpt>
      <trkpt lat="50.19876" lon="4.89125">
        <ele>210</ele>
        <time>2026-08-25T11:48:56+00:00</time>
      </trkpt>
      <trkpt lat="50.19904" lon="4.89126">
        <ele>208</ele>
        <time>2026-08-25T11:48:59+00:00</time>
      </trkpt>
      <trkpt lat="50.1994" lon="4.89113">
        <ele>207</ele>
        <time>2026-08-25T11:49:02+00:00</time>
      </trkpt>
      <trkpt lat="50.19982" lon="4.89099">
        <ele>206</ele>
        <time>2026-08-25T11:49:05+00:00</time>
      </trkpt>
      <trkpt lat="50.20011" lon="4.89081">
        <ele>207</ele>
        <time>2026-08-25T11:49:08+00:00</time>
      </trkpt>
      <trkpt lat="50.20041" lon="4.89063">
        <ele>208</ele>
        <time>2026-08-25T11:49:11+00:00</time>
      </trkpt>
      <trkpt lat="50.20093" lon="4.89031">
        <ele>208</ele>
        <time>2026-08-25T11:49:14+00:00</time>
      </trkpt>
      <trkpt lat="50.20107" lon="4.88995">
        <ele>208</ele>
        <time>2026-08-25T11:49:17+00:00</time>
      </trkpt>
      <trkpt lat="50.20084" lon="4.88999">
        <ele>210</ele>
        <time>2026-08-25T11:49:20+00:00</time>
      </trkpt>
      <trkpt lat="50.2007" lon="4.88998">
        <ele>212</ele>
        <time>2026-08-25T11:49:23+00:00</time>
      </trkpt>
      <trkpt lat="50.20084" lon="4.88999">
        <ele>210</ele>
        <time>2026-08-25T11:49:26+00:00</time>
      </trkpt>
      <trkpt lat="50.20107" lon="4.88995">
        <ele>208</ele>
        <time>2026-08-25T11:49:29+00:00</time>
      </trkpt>
      <trkpt lat="50.20127" lon="4.89017">
        <ele>207</ele>
        <time>2026-08-25T11:49:32+00:00</time>
      </trkpt>
      <trkpt lat="50.20154" lon="4.89046">
        <ele>205</ele>
        <time>2026-08-25T11:49:35+00:00</time>
      </trkpt>
      <trkpt lat="50.20176" lon="4.89057">
        <ele>204</ele>
        <time>2026-08-25T11:49:38+00:00</time>
      </trkpt>
      <trkpt lat="50.20202" lon="4.8907">
        <ele>204</ele>
        <time>2026-08-25T11:49:41+00:00</time>
      </trkpt>
      <trkpt lat="50.20228" lon="4.89081">
        <ele>203</ele>
        <time>2026-08-25T11:49:44+00:00</time>
      </trkpt>
      <trkpt lat="50.20255" lon="4.89076">
        <ele>203</ele>
        <time>2026-08-25T11:49:47+00:00</time>
      </trkpt>
      <trkpt lat="50.20304" lon="4.89068">
        <ele>201</ele>
        <time>2026-08-25T11:49:50+00:00</time>
      </trkpt>
      <trkpt lat="50.20325" lon="4.89072">
        <ele>200</ele>
        <time>2026-08-25T11:49:53+00:00</time>
      </trkpt>
      <trkpt lat="50.20347" lon="4.89076">
        <ele>199</ele>
        <time>2026-08-25T11:49:56+00:00</time>
      </trkpt>
      <trkpt lat="50.20352" lon="4.89112">
        <ele>198</ele>
        <time>2026-08-25T11:49:59+00:00</time>
      </trkpt>
      <trkpt lat="50.20358" lon="4.89154">
        <ele>197</ele>
        <time>2026-08-25T11:50:02+00:00</time>
      </trkpt>
      <trkpt lat="50.20393" lon="4.89156">
        <ele>197</ele>
        <time>2026-08-25T11:50:05+00:00</time>
      </trkpt>
      <trkpt lat="50.20415" lon="4.89162">
        <ele>194</ele>
        <time>2026-08-25T11:50:08+00:00</time>
      </trkpt>
      <trkpt lat="50.20433" lon="4.89178">
        <ele>192</ele>
        <time>2026-08-25T11:50:11+00:00</time>
      </trkpt>
      <trkpt lat="50.20453" lon="4.89201">
        <ele>192</ele>
        <time>2026-08-25T11:50:14+00:00</time>
      </trkpt>
      <trkpt lat="50.20458" lon="4.8921">
        <ele>192</ele>
        <time>2026-08-25T11:50:17+00:00</time>
      </trkpt>
      <trkpt lat="50.20451" lon="4.89229">
        <ele>192</ele>
        <time>2026-08-25T11:50:20+00:00</time>
      </trkpt>
      <trkpt lat="50.20457" lon="4.89242">
        <ele>191</ele>
        <time>2026-08-25T11:50:23+00:00</time>
      </trkpt>
      <trkpt lat="50.20462" lon="4.89262">
        <ele>191</ele>
        <time>2026-08-25T11:50:26+00:00</time>
      </trkpt>
      <trkpt lat="50.20466" lon="4.89285">
        <ele>190</ele>
        <time>2026-08-25T11:50:29+00:00</time>
      </trkpt>
      <trkpt lat="50.20467" lon="4.89328">
        <ele>188</ele>
        <time>2026-08-25T11:50:32+00:00</time>
      </trkpt>
      <trkpt lat="50.20453" lon="4.89333">
        <ele>187</ele>
        <time>2026-08-25T11:50:35+00:00</time>
      </trkpt>
      <trkpt lat="50.20461" lon="4.89364">
        <ele>187</ele>
        <time>2026-08-25T11:50:38+00:00</time>
      </trkpt>
      <trkpt lat="50.20473" lon="4.89413">
        <ele>187</ele>
        <time>2026-08-25T11:50:41+00:00</time>
      </trkpt>
      <trkpt lat="50.20484" lon="4.89447">
        <ele>186</ele>
        <time>2026-08-25T11:50:44+00:00</time>
      </trkpt>
      <trkpt lat="50.20497" lon="4.89476">
        <ele>184</ele>
        <time>2026-08-25T11:50:47+00:00</time>
      </trkpt>
      <trkpt lat="50.20505" lon="4.89487">
        <ele>184</ele>
        <time>2026-08-25T11:50:50+00:00</time>
      </trkpt>
      <trkpt lat="50.20523" lon="4.89501">
        <ele>183</ele>
        <time>2026-08-25T11:50:53+00:00</time>
      </trkpt>
      <trkpt lat="50.20512" lon="4.89531">
        <ele>183</ele>
        <time>2026-08-25T11:50:56+00:00</time>
      </trkpt>
      <trkpt lat="50.20509" lon="4.89549">
        <ele>185</ele>
        <time>2026-08-25T11:50:59+00:00</time>
      </trkpt>
      <trkpt lat="50.20508" lon="4.8957">
        <ele>188</ele>
        <time>2026-08-25T11:51:02+00:00</time>
      </trkpt>
      <trkpt lat="50.20511" lon="4.89586">
        <ele>187</ele>
        <time>2026-08-25T11:51:05+00:00</time>
      </trkpt>
      <trkpt lat="50.20514" lon="4.89592">
        <ele>188</ele>
        <time>2026-08-25T11:51:08+00:00</time>
      </trkpt>
      <trkpt lat="50.20519" lon="4.89599">
        <ele>188</ele>
        <time>2026-08-25T11:51:11+00:00</time>
      </trkpt>
      <trkpt lat="50.20538" lon="4.89621">
        <ele>188</ele>
        <time>2026-08-25T11:51:14+00:00</time>
      </trkpt>
      <trkpt lat="50.20562" lon="4.89648">
        <ele>189</ele>
        <time>2026-08-25T11:51:17+00:00</time>
      </trkpt>
      <trkpt lat="50.20569" lon="4.8966">
        <ele>189</ele>
        <time>2026-08-25T11:51:20+00:00</time>
      </trkpt>
      <trkpt lat="50.20589" lon="4.89669">
        <ele>189</ele>
        <time>2026-08-25T11:51:23+00:00</time>
      </trkpt>
      <trkpt lat="50.20615" lon="4.89681">
        <ele>189</ele>
        <time>2026-08-25T11:51:26+00:00</time>
      </trkpt>
      <trkpt lat="50.20614" lon="4.89692">
        <ele>189</ele>
        <time>2026-08-25T11:51:29+00:00</time>
      </trkpt>
      <trkpt lat="50.20622" lon="4.89712">
        <ele>189</ele>
        <time>2026-08-25T11:51:32+00:00</time>
      </trkpt>
      <trkpt lat="50.2063" lon="4.89735">
        <ele>190</ele>
        <time>2026-08-25T11:51:35+00:00</time>
      </trkpt>
      <trkpt lat="50.20638" lon="4.8976">
        <ele>192</ele>
        <time>2026-08-25T11:51:38+00:00</time>
      </trkpt>
      <trkpt lat="50.20642" lon="4.89776">
        <ele>191</ele>
        <time>2026-08-25T11:51:41+00:00</time>
      </trkpt>
      <trkpt lat="50.20648" lon="4.89816">
        <ele>192</ele>
        <time>2026-08-25T11:51:44+00:00</time>
      </trkpt>
      <trkpt lat="50.2065" lon="4.8986">
        <ele>192</ele>
        <time>2026-08-25T11:51:47+00:00</time>
      </trkpt>
      <trkpt lat="50.20653" lon="4.89943">
        <ele>192</ele>
        <time>2026-08-25T11:51:50+00:00</time>
      </trkpt>
      <trkpt lat="50.20655" lon="4.89966">
        <ele>192</ele>
        <time>2026-08-25T11:51:53+00:00</time>
      </trkpt>
      <trkpt lat="50.20654" lon="4.89998">
        <ele>193</ele>
        <time>2026-08-25T11:51:56+00:00</time>
      </trkpt>
      <trkpt lat="50.20652" lon="4.90048">
        <ele>194</ele>
        <time>2026-08-25T11:51:59+00:00</time>
      </trkpt>
      <trkpt lat="50.20648" lon="4.90097">
        <ele>196</ele>
        <time>2026-08-25T11:52:02+00:00</time>
      </trkpt>
      <trkpt lat="50.20646" lon="4.90134">
        <ele>197</ele>
        <time>2026-08-25T11:52:05+00:00</time>
      </trkpt>
      <trkpt lat="50.20647" lon="4.90168">
        <ele>199</ele>
        <time>2026-08-25T11:52:08+00:00</time>
      </trkpt>
      <trkpt lat="50.20648" lon="4.90204">
        <ele>199</ele>
        <time>2026-08-25T11:52:11+00:00</time>
      </trkpt>
      <trkpt lat="50.20654" lon="4.90248">
        <ele>199</ele>
        <time>2026-08-25T11:52:14+00:00</time>
      </trkpt>
      <trkpt lat="50.20661" lon="4.90283">
        <ele>199</ele>
        <time>2026-08-25T11:52:17+00:00</time>
      </trkpt>
      <trkpt lat="50.20669" lon="4.90325">
        <ele>201</ele>
        <time>2026-08-25T11:52:20+00:00</time>
      </trkpt>
      <trkpt lat="50.20677" lon="4.90378">
        <ele>202</ele>
        <time>2026-08-25T11:52:23+00:00</time>
      </trkpt>
      <trkpt lat="50.20683" lon="4.90414">
        <ele>205</ele>
        <time>2026-08-25T11:52:26+00:00</time>
      </trkpt>
      <trkpt lat="50.20691" lon="4.90458">
        <ele>207</ele>
        <time>2026-08-25T11:52:29+00:00</time>
      </trkpt>
      <trkpt lat="50.20695" lon="4.90498">
        <ele>208</ele>
        <time>2026-08-25T11:52:32+00:00</time>
      </trkpt>
      <trkpt lat="50.207" lon="4.90557">
        <ele>209</ele>
        <time>2026-08-25T11:52:35+00:00</time>
      </trkpt>
      <trkpt lat="50.20701" lon="4.90592">
        <ele>210</ele>
        <time>2026-08-25T11:52:38+00:00</time>
      </trkpt>
      <trkpt lat="50.207" lon="4.90626">
        <ele>211</ele>
        <time>2026-08-25T11:52:41+00:00</time>
      </trkpt>
      <trkpt lat="50.20699" lon="4.90662">
        <ele>212</ele>
        <time>2026-08-25T11:52:44+00:00</time>
      </trkpt>
      <trkpt lat="50.20699" lon="4.90677">
        <ele>212</ele>
        <time>2026-08-25T11:52:47+00:00</time>
      </trkpt>
      <trkpt lat="50.20704" lon="4.90717">
        <ele>213</ele>
        <time>2026-08-25T11:52:50+00:00</time>
      </trkpt>
      <trkpt lat="50.2071" lon="4.90751">
        <ele>214</ele>
        <time>2026-08-25T11:52:53+00:00</time>
      </trkpt>
      <trkpt lat="50.20716" lon="4.90789">
        <ele>214</ele>
        <time>2026-08-25T11:52:56+00:00</time>
      </trkpt>
      <trkpt lat="50.20723" lon="4.90823">
        <ele>216</ele>
        <time>2026-08-25T11:52:59+00:00</time>
      </trkpt>
      <trkpt lat="50.20732" lon="4.90862">
        <ele>217</ele>
        <time>2026-08-25T11:53:02+00:00</time>
      </trkpt>
      <trkpt lat="50.20754" lon="4.90915">
        <ele>218</ele>
        <time>2026-08-25T11:53:05+00:00</time>
      </trkpt>
      <trkpt lat="50.20763" lon="4.90939">
        <ele>219</ele>
        <time>2026-08-25T11:53:08+00:00</time>
      </trkpt>
      <trkpt lat="50.20771" lon="4.90981">
        <ele>219</ele>
        <time>2026-08-25T11:53:11+00:00</time>
      </trkpt>
      <trkpt lat="50.20781" lon="4.91011">
        <ele>218</ele>
        <time>2026-08-25T11:53:14+00:00</time>
      </trkpt>
      <trkpt lat="50.20792" lon="4.91042">
        <ele>218</ele>
        <time>2026-08-25T11:53:17+00:00</time>
      </trkpt>
      <trkpt lat="50.20797" lon="4.91078">
        <ele>217</ele>
        <time>2026-08-25T11:53:20+00:00</time>
      </trkpt>
      <trkpt lat="50.20805" lon="4.91111">
        <ele>215</ele>
        <time>2026-08-25T11:53:23+00:00</time>
      </trkpt>
      <trkpt lat="50.20815" lon="4.91141">
        <ele>214</ele>
        <time>2026-08-25T11:53:26+00:00</time>
      </trkpt>
      <trkpt lat="50.20825" lon="4.91172">
        <ele>212</ele>
        <time>2026-08-25T11:53:29+00:00</time>
      </trkpt>
      <trkpt lat="50.20834" lon="4.91209">
        <ele>210</ele>
        <time>2026-08-25T11:53:32+00:00</time>
      </trkpt>
      <trkpt lat="50.20844" lon="4.9124">
        <ele>209</ele>
        <time>2026-08-25T11:53:35+00:00</time>
      </trkpt>
      <trkpt lat="50.20857" lon="4.9127">
        <ele>208</ele>
        <time>2026-08-25T11:53:38+00:00</time>
      </trkpt>
      <trkpt lat="50.20873" lon="4.91307">
        <ele>207</ele>
        <time>2026-08-25T11:53:41+00:00</time>
      </trkpt>
      <trkpt lat="50.20889" lon="4.91329">
        <ele>206</ele>
        <time>2026-08-25T11:53:44+00:00</time>
      </trkpt>
      <trkpt lat="50.20908" lon="4.9135">
        <ele>204</ele>
        <time>2026-08-25T11:53:47+00:00</time>
      </trkpt>
      <trkpt lat="50.20929" lon="4.91364">
        <ele>203</ele>
        <time>2026-08-25T11:53:50+00:00</time>
      </trkpt>
      <trkpt lat="50.20951" lon="4.9138">
        <ele>200</ele>
        <time>2026-08-25T11:53:53+00:00</time>
      </trkpt>
      <trkpt lat="50.20981" lon="4.91407">
        <ele>199</ele>
        <time>2026-08-25T11:53:56+00:00</time>
      </trkpt>
      <trkpt lat="50.21011" lon="4.91434">
        <ele>197</ele>
        <time>2026-08-25T11:53:59+00:00</time>
      </trkpt>
      <trkpt lat="50.21041" lon="4.9146">
        <ele>193</ele>
        <time>2026-08-25T11:54:02+00:00</time>
      </trkpt>
      <trkpt lat="50.21072" lon="4.91487">
        <ele>191</ele>
        <time>2026-08-25T11:54:05+00:00</time>
      </trkpt>
      <trkpt lat="50.21105" lon="4.91517">
        <ele>191</ele>
        <time>2026-08-25T11:54:08+00:00</time>
      </trkpt>
      <trkpt lat="50.21123" lon="4.91534">
        <ele>190</ele>
        <time>2026-08-25T11:54:11+00:00</time>
      </trkpt>
      <trkpt lat="50.21141" lon="4.91565">
        <ele>190</ele>
        <time>2026-08-25T11:54:14+00:00</time>
      </trkpt>
      <trkpt lat="50.21156" lon="4.91626">
        <ele>191</ele>
        <time>2026-08-25T11:54:17+00:00</time>
      </trkpt>
      <trkpt lat="50.21163" lon="4.9165">
        <ele>191</ele>
        <time>2026-08-25T11:54:20+00:00</time>
      </trkpt>
      <trkpt lat="50.21167" lon="4.91675">
        <ele>191</ele>
        <time>2026-08-25T11:54:23+00:00</time>
      </trkpt>
      <trkpt lat="50.21172" lon="4.91708">
        <ele>192</ele>
        <time>2026-08-25T11:54:26+00:00</time>
      </trkpt>
      <trkpt lat="50.21174" lon="4.91728">
        <ele>192</ele>
        <time>2026-08-25T11:54:29+00:00</time>
      </trkpt>
      <trkpt lat="50.21174" lon="4.91749">
        <ele>192</ele>
        <time>2026-08-25T11:54:32+00:00</time>
      </trkpt>
      <trkpt lat="50.21172" lon="4.91772">
        <ele>193</ele>
        <time>2026-08-25T11:54:35+00:00</time>
      </trkpt>
      <trkpt lat="50.21159" lon="4.91788">
        <ele>191</ele>
        <time>2026-08-25T11:54:38+00:00</time>
      </trkpt>
      <trkpt lat="50.21143" lon="4.91807">
        <ele>191</ele>
        <time>2026-08-25T11:54:41+00:00</time>
      </trkpt>
      <trkpt lat="50.2114" lon="4.91825">
        <ele>192</ele>
        <time>2026-08-25T11:54:44+00:00</time>
      </trkpt>
      <trkpt lat="50.21151" lon="4.91848">
        <ele>195</ele>
        <time>2026-08-25T11:54:47+00:00</time>
      </trkpt>
      <trkpt lat="50.21164" lon="4.91873">
        <ele>197</ele>
        <time>2026-08-25T11:54:50+00:00</time>
      </trkpt>
      <trkpt lat="50.21179" lon="4.91907">
        <ele>197</ele>
        <time>2026-08-25T11:54:53+00:00</time>
      </trkpt>
      <trkpt lat="50.21204" lon="4.91962">
        <ele>196</ele>
        <time>2026-08-25T11:54:56+00:00</time>
      </trkpt>
      <trkpt lat="50.21218" lon="4.91992">
        <ele>195</ele>
        <time>2026-08-25T11:54:59+00:00</time>
      </trkpt>
      <trkpt lat="50.21235" lon="4.92028">
        <ele>191</ele>
        <time>2026-08-25T11:55:02+00:00</time>
      </trkpt>
      <trkpt lat="50.21259" lon="4.92051">
        <ele>188</ele>
        <time>2026-08-25T11:55:05+00:00</time>
      </trkpt>
      <trkpt lat="50.21285" lon="4.92079">
        <ele>185</ele>
        <time>2026-08-25T11:55:08+00:00</time>
      </trkpt>
      <trkpt lat="50.21301" lon="4.92103">
        <ele>181</ele>
        <time>2026-08-25T11:55:11+00:00</time>
      </trkpt>
      <trkpt lat="50.21317" lon="4.92127">
        <ele>180</ele>
        <time>2026-08-25T11:55:14+00:00</time>
      </trkpt>
      <trkpt lat="50.21328" lon="4.92159">
        <ele>180</ele>
        <time>2026-08-25T11:55:17+00:00</time>
      </trkpt>
      <trkpt lat="50.21341" lon="4.92198">
        <ele>180</ele>
        <time>2026-08-25T11:55:20+00:00</time>
      </trkpt>
      <trkpt lat="50.21354" lon="4.92228">
        <ele>181</ele>
        <time>2026-08-25T11:55:23+00:00</time>
      </trkpt>
      <trkpt lat="50.21369" lon="4.92256">
        <ele>185</ele>
        <time>2026-08-25T11:55:26+00:00</time>
      </trkpt>
      <trkpt lat="50.21388" lon="4.9229">
        <ele>185</ele>
        <time>2026-08-25T11:55:29+00:00</time>
      </trkpt>
      <trkpt lat="50.21404" lon="4.92334">
        <ele>178</ele>
        <time>2026-08-25T11:55:32+00:00</time>
      </trkpt>
      <trkpt lat="50.21421" lon="4.92378">
        <ele>178</ele>
        <time>2026-08-25T11:55:35+00:00</time>
      </trkpt>
      <trkpt lat="50.21438" lon="4.92422">
        <ele>178</ele>
        <time>2026-08-25T11:55:38+00:00</time>
      </trkpt>
      <trkpt lat="50.21456" lon="4.92471">
        <ele>177</ele>
        <time>2026-08-25T11:55:41+00:00</time>
      </trkpt>
      <trkpt lat="50.21469" lon="4.92502">
        <ele>175</ele>
        <time>2026-08-25T11:55:44+00:00</time>
      </trkpt>
      <trkpt lat="50.21484" lon="4.9254">
        <ele>170</ele>
        <time>2026-08-25T11:55:47+00:00</time>
      </trkpt>
      <trkpt lat="50.21512" lon="4.92578">
        <ele>161</ele>
        <time>2026-08-25T11:55:50+00:00</time>
      </trkpt>
      <trkpt lat="50.21537" lon="4.92599">
        <ele>157</ele>
        <time>2026-08-25T11:55:53+00:00</time>
      </trkpt>
      <trkpt lat="50.21587" lon="4.92641">
        <ele>155</ele>
        <time>2026-08-25T11:55:56+00:00</time>
      </trkpt>
      <trkpt lat="50.21615" lon="4.92657">
        <ele>154</ele>
        <time>2026-08-25T11:55:59+00:00</time>
      </trkpt>
      <trkpt lat="50.21644" lon="4.92672">
        <ele>153</ele>
        <time>2026-08-25T11:56:02+00:00</time>
      </trkpt>
      <trkpt lat="50.21681" lon="4.92693">
        <ele>149</ele>
        <time>2026-08-25T11:56:05+00:00</time>
      </trkpt>
      <trkpt lat="50.21705" lon="4.92694">
        <ele>144</ele>
        <time>2026-08-25T11:56:08+00:00</time>
      </trkpt>
      <trkpt lat="50.21737" lon="4.92696">
        <ele>138</ele>
        <time>2026-08-25T11:56:11+00:00</time>
      </trkpt>
      <trkpt lat="50.21761" lon="4.92699">
        <ele>133</ele>
        <time>2026-08-25T11:56:14+00:00</time>
      </trkpt>
      <trkpt lat="50.2179" lon="4.92702">
        <ele>128</ele>
        <time>2026-08-25T11:56:17+00:00</time>
      </trkpt>
      <trkpt lat="50.21796" lon="4.92699">
        <ele>126</ele>
        <time>2026-08-25T11:56:20+00:00</time>
      </trkpt>
      <trkpt lat="50.21802" lon="4.92691">
        <ele>123</ele>
        <time>2026-08-25T11:56:23+00:00</time>
      </trkpt>
      <trkpt lat="50.21805" lon="4.92682">
        <ele>123</ele>
        <time>2026-08-25T11:56:26+00:00</time>
      </trkpt>
      <trkpt lat="50.21808" lon="4.92669">
        <ele>122</ele>
        <time>2026-08-25T11:56:29+00:00</time>
      </trkpt>
      <trkpt lat="50.21814" lon="4.92649">
        <ele>122</ele>
        <time>2026-08-25T11:56:32+00:00</time>
      </trkpt>
      <trkpt lat="50.21823" lon="4.92614">
        <ele>121</ele>
        <time>2026-08-25T11:56:35+00:00</time>
      </trkpt>
      <trkpt lat="50.21836" lon="4.92567">
        <ele>119</ele>
        <time>2026-08-25T11:56:38+00:00</time>
      </trkpt>
      <trkpt lat="50.21841" lon="4.9255">
        <ele>118</ele>
        <time>2026-08-25T11:56:41+00:00</time>
      </trkpt>
      <trkpt lat="50.21847" lon="4.92508">
        <ele>112</ele>
        <time>2026-08-25T11:56:44+00:00</time>
      </trkpt>
      <trkpt lat="50.21849" lon="4.92477">
        <ele>109</ele>
        <time>2026-08-25T11:56:47+00:00</time>
      </trkpt>
      <trkpt lat="50.21847" lon="4.92417">
        <ele>101</ele>
        <time>2026-08-25T11:56:50+00:00</time>
      </trkpt>
      <trkpt lat="50.21843" lon="4.92378">
        <ele>98</ele>
        <time>2026-08-25T11:56:53+00:00</time>
      </trkpt>
      <trkpt lat="50.21841" lon="4.92339">
        <ele>97</ele>
        <time>2026-08-25T11:56:56+00:00</time>
      </trkpt>
      <trkpt lat="50.21838" lon="4.92287">
        <ele>97</ele>
        <time>2026-08-25T11:56:59+00:00</time>
      </trkpt>
      <trkpt lat="50.21838" lon="4.92252">
        <ele>97</ele>
        <time>2026-08-25T11:57:02+00:00</time>
      </trkpt>
      <trkpt lat="50.21838" lon="4.92214">
        <ele>97</ele>
        <time>2026-08-25T11:57:05+00:00</time>
      </trkpt>
      <trkpt lat="50.21825" lon="4.92188">
        <ele>96</ele>
        <time>2026-08-25T11:57:08+00:00</time>
      </trkpt>
      <trkpt lat="50.21807" lon="4.92137">
        <ele>96</ele>
        <time>2026-08-25T11:57:11+00:00</time>
      </trkpt>
      <trkpt lat="50.21789" lon="4.92076">
        <ele>96</ele>
        <time>2026-08-25T11:57:14+00:00</time>
      </trkpt>
      <trkpt lat="50.2178" lon="4.92018">
        <ele>96</ele>
        <time>2026-08-25T11:57:17+00:00</time>
      </trkpt>
      <trkpt lat="50.21777" lon="4.91985">
        <ele>96</ele>
        <time>2026-08-25T11:57:20+00:00</time>
      </trkpt>
      <trkpt lat="50.21774" lon="4.91951">
        <ele>96</ele>
        <time>2026-08-25T11:57:23+00:00</time>
      </trkpt>
      <trkpt lat="50.2177" lon="4.91937">
        <ele>96</ele>
        <time>2026-08-25T11:57:26+00:00</time>
      </trkpt>
      <trkpt lat="50.21772" lon="4.91927">
        <ele>96</ele>
        <time>2026-08-25T11:57:29+00:00</time>
      </trkpt>
      <trkpt lat="50.21788" lon="4.91915">
        <ele>96</ele>
        <time>2026-08-25T11:57:32+00:00</time>
      </trkpt>
      <trkpt lat="50.21809" lon="4.91899">
        <ele>96</ele>
        <time>2026-08-25T11:57:35+00:00</time>
      </trkpt>
      <trkpt lat="50.21811" lon="4.91904">
        <ele>96</ele>
        <time>2026-08-25T11:57:38+00:00</time>
      </trkpt>
      <trkpt lat="50.21817" lon="4.91935">
        <ele>96</ele>
        <time>2026-08-25T11:57:41+00:00</time>
      </trkpt>
      <trkpt lat="50.21823" lon="4.91967">
        <ele>96</ele>
        <time>2026-08-25T11:57:44+00:00</time>
      </trkpt>
      <trkpt lat="50.21829" lon="4.91984">
        <ele>96</ele>
        <time>2026-08-25T11:57:47+00:00</time>
      </trkpt>
      <trkpt lat="50.21846" lon="4.92013">
        <ele>96</ele>
        <time>2026-08-25T11:57:50+00:00</time>
      </trkpt>
      <trkpt lat="50.21855" lon="4.92022">
        <ele>97</ele>
        <time>2026-08-25T11:57:53+00:00</time>
      </trkpt>
      <trkpt lat="50.21867" lon="4.92031">
        <ele>97</ele>
        <time>2026-08-25T11:57:56+00:00</time>
      </trkpt>
      <trkpt lat="50.21875" lon="4.92033">
        <ele>97</ele>
        <time>2026-08-25T11:57:59+00:00</time>
      </trkpt>
      <trkpt lat="50.2188" lon="4.9203">
        <ele>98</ele>
        <time>2026-08-25T11:58:02+00:00</time>
      </trkpt>
      <trkpt lat="50.21893" lon="4.92036">
        <ele>97</ele>
        <time>2026-08-25T11:58:05+00:00</time>
      </trkpt>
      <trkpt lat="50.21901" lon="4.92027">
        <ele>97</ele>
        <time>2026-08-25T11:58:08+00:00</time>
      </trkpt>
      <trkpt lat="50.21902" lon="4.92023">
        <ele>97</ele>
        <time>2026-08-25T11:58:11+00:00</time>
      </trkpt>
      <trkpt lat="50.21902" lon="4.92005">
        <ele>97</ele>
        <time>2026-08-25T11:58:14+00:00</time>
      </trkpt>
      <trkpt lat="50.21913" lon="4.91952">
        <ele>98</ele>
        <time>2026-08-25T11:58:17+00:00</time>
      </trkpt>
      <trkpt lat="50.21919" lon="4.91918">
        <ele>98</ele>
        <time>2026-08-25T11:58:20+00:00</time>
      </trkpt>
      <trkpt lat="50.21926" lon="4.91882">
        <ele>98</ele>
        <time>2026-08-25T11:58:23+00:00</time>
      </trkpt>
      <trkpt lat="50.21938" lon="4.91839">
        <ele>98</ele>
        <time>2026-08-25T11:58:26+00:00</time>
      </trkpt>
      <trkpt lat="50.21949" lon="4.91807">
        <ele>99</ele>
        <time>2026-08-25T11:58:29+00:00</time>
      </trkpt>
      <trkpt lat="50.21961" lon="4.91772">
        <ele>103</ele>
        <time>2026-08-25T11:58:32+00:00</time>
      </trkpt>
      <trkpt lat="50.21973" lon="4.91748">
        <ele>103</ele>
        <time>2026-08-25T11:58:35+00:00</time>
      </trkpt>
      <trkpt lat="50.21977" lon="4.91743">
        <ele>103</ele>
        <time>2026-08-25T11:58:38+00:00</time>
      </trkpt>
      <trkpt lat="50.2199" lon="4.91693">
        <ele>103</ele>
        <time>2026-08-25T11:58:41+00:00</time>
      </trkpt>
      <trkpt lat="50.21996" lon="4.91673">
        <ele>102</ele>
        <time>2026-08-25T11:58:44+00:00</time>
      </trkpt>
      <trkpt lat="50.22005" lon="4.91651">
        <ele>103</ele>
        <time>2026-08-25T11:58:47+00:00</time>
      </trkpt>
      <trkpt lat="50.22015" lon="4.91626">
        <ele>103</ele>
        <time>2026-08-25T11:58:50+00:00</time>
      </trkpt>
      <trkpt lat="50.22025" lon="4.91608">
        <ele>103</ele>
        <time>2026-08-25T11:58:53+00:00</time>
      </trkpt>
      <trkpt lat="50.22043" lon="4.91586">
        <ele>104</ele>
        <time>2026-08-25T11:58:56+00:00</time>
      </trkpt>
      <trkpt lat="50.22075" lon="4.91546">
        <ele>107</ele>
        <time>2026-08-25T11:58:59+00:00</time>
      </trkpt>
      <trkpt lat="50.22099" lon="4.91506">
        <ele>108</ele>
        <time>2026-08-25T11:59:02+00:00</time>
      </trkpt>
      <trkpt lat="50.2211" lon="4.91475">
        <ele>110</ele>
        <time>2026-08-25T11:59:05+00:00</time>
      </trkpt>
      <trkpt lat="50.22123" lon="4.91441">
        <ele>110</ele>
        <time>2026-08-25T11:59:08+00:00</time>
      </trkpt>
      <trkpt lat="50.22125" lon="4.91437">
        <ele>109</ele>
        <time>2026-08-25T11:59:11+00:00</time>
      </trkpt>
      <trkpt lat="50.22137" lon="4.91403">
        <ele>109</ele>
        <time>2026-08-25T11:59:14+00:00</time>
      </trkpt>
      <trkpt lat="50.22157" lon="4.91349">
        <ele>106</ele>
        <time>2026-08-25T11:59:17+00:00</time>
      </trkpt>
      <trkpt lat="50.22167" lon="4.91316">
        <ele>103</ele>
        <time>2026-08-25T11:59:20+00:00</time>
      </trkpt>
      <trkpt lat="50.2218" lon="4.91278">
        <ele>103</ele>
        <time>2026-08-25T11:59:23+00:00</time>
      </trkpt>
      <trkpt lat="50.2219" lon="4.91238">
        <ele>101</ele>
        <time>2026-08-25T11:59:26+00:00</time>
      </trkpt>
      <trkpt lat="50.22208" lon="4.91167">
        <ele>101</ele>
        <time>2026-08-25T11:59:29+00:00</time>
      </trkpt>
      <trkpt lat="50.22218" lon="4.91133">
        <ele>101</ele>
        <time>2026-08-25T11:59:32+00:00</time>
      </trkpt>
      <trkpt lat="50.22231" lon="4.91091">
        <ele>98</ele>
        <time>2026-08-25T11:59:35+00:00</time>
      </trkpt>
      <trkpt lat="50.22237" lon="4.91074">
        <ele>96</ele>
        <time>2026-08-25T11:59:38+00:00</time>
      </trkpt>
      <trkpt lat="50.22243" lon="4.91065">
        <ele>97</ele>
        <time>2026-08-25T11:59:41+00:00</time>
      </trkpt>
      <trkpt lat="50.2225" lon="4.91059">
        <ele>95</ele>
        <time>2026-08-25T11:59:44+00:00</time>
      </trkpt>
      <trkpt lat="50.22258" lon="4.91054">
        <ele>96</ele>
        <time>2026-08-25T11:59:47+00:00</time>
      </trkpt>
      <trkpt lat="50.22263" lon="4.91053">
        <ele>97</ele>
        <time>2026-08-25T11:59:50+00:00</time>
      </trkpt>
      <trkpt lat="50.22272" lon="4.91055">
        <ele>100</ele>
        <time>2026-08-25T11:59:53+00:00</time>
      </trkpt>
      <trkpt lat="50.22283" lon="4.91062">
        <ele>103</ele>
        <time>2026-08-25T11:59:56+00:00</time>
      </trkpt>
      <trkpt lat="50.22295" lon="4.91074">
        <ele>105</ele>
        <time>2026-08-25T11:59:59+00:00</time>
      </trkpt>
      <trkpt lat="50.2231" lon="4.91093">
        <ele>103</ele>
        <time>2026-08-25T12:00:02+00:00</time>
      </trkpt>
      <trkpt lat="50.22331" lon="4.91119">
        <ele>101</ele>
        <time>2026-08-25T12:00:05+00:00</time>
      </trkpt>
      <trkpt lat="50.2235" lon="4.91138">
        <ele>101</ele>
        <time>2026-08-25T12:00:08+00:00</time>
      </trkpt>
      <trkpt lat="50.22366" lon="4.91152">
        <ele>101</ele>
        <time>2026-08-25T12:00:11+00:00</time>
      </trkpt>
      <trkpt lat="50.2238" lon="4.91159">
        <ele>101</ele>
        <time>2026-08-25T12:00:14+00:00</time>
      </trkpt>
      <trkpt lat="50.22375" lon="4.91189">
        <ele>110</ele>
        <time>2026-08-25T12:00:17+00:00</time>
      </trkpt>
      <trkpt lat="50.22369" lon="4.91198">
        <ele>118</ele>
        <time>2026-08-25T12:00:20+00:00</time>
      </trkpt>
      <trkpt lat="50.22362" lon="4.91192">
        <ele>118</ele>
        <time>2026-08-25T12:00:23+00:00</time>
      </trkpt>
      <trkpt lat="50.2235" lon="4.91184">
        <ele>120</ele>
        <time>2026-08-25T12:00:26+00:00</time>
      </trkpt>
      <trkpt lat="50.22337" lon="4.91176">
        <ele>120</ele>
        <time>2026-08-25T12:00:29+00:00</time>
      </trkpt>
      <trkpt lat="50.22341" lon="4.91196">
        <ele>124</ele>
        <time>2026-08-25T12:00:32+00:00</time>
      </trkpt>
      <trkpt lat="50.22358" lon="4.91215">
        <ele>127</ele>
        <time>2026-08-25T12:00:35+00:00</time>
      </trkpt>
      <trkpt lat="50.22369" lon="4.91229">
        <ele>127</ele>
        <time>2026-08-25T12:00:38+00:00</time>
      </trkpt>
      <trkpt lat="50.22371" lon="4.91271">
        <ele>135</ele>
        <time>2026-08-25T12:00:41+00:00</time>
      </trkpt>
      <trkpt lat="50.22378" lon="4.9131">
        <ele>136</ele>
        <time>2026-08-25T12:00:44+00:00</time>
      </trkpt>
      <trkpt lat="50.22391" lon="4.9133">
        <ele>138</ele>
        <time>2026-08-25T12:00:47+00:00</time>
      </trkpt>
      <trkpt lat="50.22388" lon="4.91343">
        <ele>151</ele>
        <time>2026-08-25T12:00:50+00:00</time>
      </trkpt>
      <trkpt lat="50.22387" lon="4.91371">
        <ele>158</ele>
        <time>2026-08-25T12:00:53+00:00</time>
      </trkpt>
      <trkpt lat="50.22391" lon="4.91389">
        <ele>156</ele>
        <time>2026-08-25T12:00:56+00:00</time>
      </trkpt>
      <trkpt lat="50.22394" lon="4.91407">
        <ele>160</ele>
        <time>2026-08-25T12:00:59+00:00</time>
      </trkpt>
      <trkpt lat="50.22412" lon="4.91454">
        <ele>163</ele>
        <time>2026-08-25T12:01:02+00:00</time>
      </trkpt>
      <trkpt lat="50.22415" lon="4.91471">
        <ele>166</ele>
        <time>2026-08-25T12:01:05+00:00</time>
      </trkpt>
      <trkpt lat="50.22419" lon="4.91516">
        <ele>175</ele>
        <time>2026-08-25T12:01:08+00:00</time>
      </trkpt>
      <trkpt lat="50.22429" lon="4.91557">
        <ele>176</ele>
        <time>2026-08-25T12:01:11+00:00</time>
      </trkpt>
      <trkpt lat="50.22441" lon="4.91586">
        <ele>181</ele>
        <time>2026-08-25T12:01:14+00:00</time>
      </trkpt>
      <trkpt lat="50.22451" lon="4.91605">
        <ele>183</ele>
        <time>2026-08-25T12:01:17+00:00</time>
      </trkpt>
      <trkpt lat="50.22462" lon="4.91618">
        <ele>183</ele>
        <time>2026-08-25T12:01:20+00:00</time>
      </trkpt>
      <trkpt lat="50.22474" lon="4.91632">
        <ele>183</ele>
        <time>2026-08-25T12:01:23+00:00</time>
      </trkpt>
      <trkpt lat="50.22494" lon="4.91653">
        <ele>182</ele>
        <time>2026-08-25T12:01:26+00:00</time>
      </trkpt>
      <trkpt lat="50.2252" lon="4.91681">
        <ele>182</ele>
        <time>2026-08-25T12:01:29+00:00</time>
      </trkpt>
      <trkpt lat="50.22549" lon="4.91707">
        <ele>184</ele>
        <time>2026-08-25T12:01:32+00:00</time>
      </trkpt>
      <trkpt lat="50.2256" lon="4.91705">
        <ele>185</ele>
        <time>2026-08-25T12:01:35+00:00</time>
      </trkpt>
      <trkpt lat="50.2257" lon="4.91699">
        <ele>186</ele>
        <time>2026-08-25T12:01:38+00:00</time>
      </trkpt>
      <trkpt lat="50.2258" lon="4.91684">
        <ele>187</ele>
        <time>2026-08-25T12:01:41+00:00</time>
      </trkpt>
      <trkpt lat="50.22594" lon="4.91675">
        <ele>187</ele>
        <time>2026-08-25T12:01:44+00:00</time>
      </trkpt>
      <trkpt lat="50.22617" lon="4.91679">
        <ele>191</ele>
        <time>2026-08-25T12:01:47+00:00</time>
      </trkpt>
      <trkpt lat="50.22646" lon="4.91684">
        <ele>196</ele>
        <time>2026-08-25T12:01:50+00:00</time>
      </trkpt>
      <trkpt lat="50.22678" lon="4.91683">
        <ele>198</ele>
        <time>2026-08-25T12:01:53+00:00</time>
      </trkpt>
      <trkpt lat="50.22684" lon="4.91679">
        <ele>201</ele>
        <time>2026-08-25T12:01:56+00:00</time>
      </trkpt>
      <trkpt lat="50.2269" lon="4.91671">
        <ele>204</ele>
        <time>2026-08-25T12:01:59+00:00</time>
      </trkpt>
      <trkpt lat="50.22695" lon="4.91662">
        <ele>203</ele>
        <time>2026-08-25T12:02:02+00:00</time>
      </trkpt>
      <trkpt lat="50.22701" lon="4.91655">
        <ele>205</ele>
        <time>2026-08-25T12:02:05+00:00</time>
      </trkpt>
      <trkpt lat="50.22708" lon="4.91649">
        <ele>204</ele>
        <time>2026-08-25T12:02:08+00:00</time>
      </trkpt>
      <trkpt lat="50.22712" lon="4.91637">
        <ele>205</ele>
        <time>2026-08-25T12:02:11+00:00</time>
      </trkpt>
      <trkpt lat="50.22714" lon="4.91626">
        <ele>204</ele>
        <time>2026-08-25T12:02:14+00:00</time>
      </trkpt>
      <trkpt lat="50.22713" lon="4.91615">
        <ele>204</ele>
        <time>2026-08-25T12:02:17+00:00</time>
      </trkpt>
      <trkpt lat="50.22725" lon="4.91611">
        <ele>206</ele>
        <time>2026-08-25T12:02:20+00:00</time>
      </trkpt>
      <trkpt lat="50.22735" lon="4.91603">
        <ele>208</ele>
        <time>2026-08-25T12:02:23+00:00</time>
      </trkpt>
      <trkpt lat="50.22749" lon="4.91587">
        <ele>208</ele>
        <time>2026-08-25T12:02:26+00:00</time>
      </trkpt>
      <trkpt lat="50.22766" lon="4.91562">
        <ele>213</ele>
        <time>2026-08-25T12:02:29+00:00</time>
      </trkpt>
      <trkpt lat="50.22778" lon="4.91553">
        <ele>216</ele>
        <time>2026-08-25T12:02:32+00:00</time>
      </trkpt>
      <trkpt lat="50.22789" lon="4.91536">
        <ele>213</ele>
        <time>2026-08-25T12:02:35+00:00</time>
      </trkpt>
      <trkpt lat="50.22801" lon="4.9152">
        <ele>214</ele>
        <time>2026-08-25T12:02:38+00:00</time>
      </trkpt>
      <trkpt lat="50.22821" lon="4.91497">
        <ele>213</ele>
        <time>2026-08-25T12:02:41+00:00</time>
      </trkpt>
      <trkpt lat="50.22837" lon="4.91483">
        <ele>213</ele>
        <time>2026-08-25T12:02:44+00:00</time>
      </trkpt>
      <trkpt lat="50.22854" lon="4.91472">
        <ele>213</ele>
        <time>2026-08-25T12:02:47+00:00</time>
      </trkpt>
      <trkpt lat="50.2285" lon="4.91459">
        <ele>213</ele>
        <time>2026-08-25T12:02:50+00:00</time>
      </trkpt>
      <trkpt lat="50.22867" lon="4.91463">
        <ele>213</ele>
        <time>2026-08-25T12:02:53+00:00</time>
      </trkpt>
      <trkpt lat="50.22885" lon="4.91468">
        <ele>213</ele>
        <time>2026-08-25T12:02:56+00:00</time>
      </trkpt>
      <trkpt lat="50.22902" lon="4.91461">
        <ele>211</ele>
        <time>2026-08-25T12:02:59+00:00</time>
      </trkpt>
      <trkpt lat="50.22913" lon="4.9145">
        <ele>211</ele>
        <time>2026-08-25T12:03:02+00:00</time>
      </trkpt>
      <trkpt lat="50.22916" lon="4.91439">
        <ele>211</ele>
        <time>2026-08-25T12:03:05+00:00</time>
      </trkpt>
      <trkpt lat="50.22918" lon="4.91406">
        <ele>207</ele>
        <time>2026-08-25T12:03:08+00:00</time>
      </trkpt>
      <trkpt lat="50.22925" lon="4.91357">
        <ele>211</ele>
        <time>2026-08-25T12:03:11+00:00</time>
      </trkpt>
      <trkpt lat="50.22933" lon="4.91348">
        <ele>212</ele>
        <time>2026-08-25T12:03:14+00:00</time>
      </trkpt>
      <trkpt lat="50.22957" lon="4.91332">
        <ele>210</ele>
        <time>2026-08-25T12:03:17+00:00</time>
      </trkpt>
      <trkpt lat="50.22964" lon="4.9131">
        <ele>213</ele>
        <time>2026-08-25T12:03:20+00:00</time>
      </trkpt>
      <trkpt lat="50.22973" lon="4.91299">
        <ele>209</ele>
        <time>2026-08-25T12:03:23+00:00</time>
      </trkpt>
      <trkpt lat="50.22979" lon="4.91284">
        <ele>207</ele>
        <time>2026-08-25T12:03:26+00:00</time>
      </trkpt>
      <trkpt lat="50.22986" lon="4.91259">
        <ele>200</ele>
        <time>2026-08-25T12:03:29+00:00</time>
      </trkpt>
      <trkpt lat="50.22998" lon="4.91239">
        <ele>196</ele>
        <time>2026-08-25T12:03:32+00:00</time>
      </trkpt>
      <trkpt lat="50.23022" lon="4.91209">
        <ele>194</ele>
        <time>2026-08-25T12:03:35+00:00</time>
      </trkpt>
      <trkpt lat="50.23036" lon="4.91202">
        <ele>195</ele>
        <time>2026-08-25T12:03:38+00:00</time>
      </trkpt>
      <trkpt lat="50.2306" lon="4.91199">
        <ele>190</ele>
        <time>2026-08-25T12:03:41+00:00</time>
      </trkpt>
      <trkpt lat="50.23074" lon="4.9119">
        <ele>187</ele>
        <time>2026-08-25T12:03:44+00:00</time>
      </trkpt>
      <trkpt lat="50.23073" lon="4.91179">
        <ele>184</ele>
        <time>2026-08-25T12:03:47+00:00</time>
      </trkpt>
      <trkpt lat="50.23052" lon="4.91168">
        <ele>183</ele>
        <time>2026-08-25T12:03:50+00:00</time>
      </trkpt>
      <trkpt lat="50.23074" lon="4.91137">
        <ele>175</ele>
        <time>2026-08-25T12:03:53+00:00</time>
      </trkpt>
      <trkpt lat="50.23078" lon="4.9112">
        <ele>173</ele>
        <time>2026-08-25T12:03:56+00:00</time>
      </trkpt>
      <trkpt lat="50.23079" lon="4.91102">
        <ele>170</ele>
        <time>2026-08-25T12:03:59+00:00</time>
      </trkpt>
      <trkpt lat="50.23078" lon="4.9108">
        <ele>165</ele>
        <time>2026-08-25T12:04:02+00:00</time>
      </trkpt>
      <trkpt lat="50.23073" lon="4.91051">
        <ele>159</ele>
        <time>2026-08-25T12:04:05+00:00</time>
      </trkpt>
      <trkpt lat="50.23067" lon="4.9101">
        <ele>151</ele>
        <time>2026-08-25T12:04:08+00:00</time>
      </trkpt>
      <trkpt lat="50.23065" lon="4.90987">
        <ele>148</ele>
        <time>2026-08-25T12:04:11+00:00</time>
      </trkpt>
      <trkpt lat="50.23061" lon="4.90966">
        <ele>149</ele>
        <time>2026-08-25T12:04:14+00:00</time>
      </trkpt>
      <trkpt lat="50.23061" lon="4.90964">
        <ele>146</ele>
        <time>2026-08-25T12:04:17+00:00</time>
      </trkpt>
      <trkpt lat="50.23074" lon="4.90958">
        <ele>146</ele>
        <time>2026-08-25T12:04:20+00:00</time>
      </trkpt>
      <trkpt lat="50.23087" lon="4.90945">
        <ele>149</ele>
        <time>2026-08-25T12:04:23+00:00</time>
      </trkpt>
      <trkpt lat="50.23101" lon="4.9093">
        <ele>149</ele>
        <time>2026-08-25T12:04:26+00:00</time>
      </trkpt>
      <trkpt lat="50.23114" lon="4.90909">
        <ele>149</ele>
        <time>2026-08-25T12:04:29+00:00</time>
      </trkpt>
      <trkpt lat="50.23122" lon="4.9089">
        <ele>149</ele>
        <time>2026-08-25T12:04:32+00:00</time>
      </trkpt>
      <trkpt lat="50.2312" lon="4.90868">
        <ele>149</ele>
        <time>2026-08-25T12:04:35+00:00</time>
      </trkpt>
      <trkpt lat="50.23122" lon="4.90845">
        <ele>149</ele>
        <time>2026-08-25T12:04:38+00:00</time>
      </trkpt>
      <trkpt lat="50.23114" lon="4.90828">
        <ele>149</ele>
        <time>2026-08-25T12:04:41+00:00</time>
      </trkpt>
      <trkpt lat="50.23119" lon="4.90787">
        <ele>149</ele>
        <time>2026-08-25T12:04:44+00:00</time>
      </trkpt>
      <trkpt lat="50.23116" lon="4.90751">
        <ele>150</ele>
        <time>2026-08-25T12:04:47+00:00</time>
      </trkpt>
      <trkpt lat="50.23112" lon="4.90709">
        <ele>154</ele>
        <time>2026-08-25T12:04:50+00:00</time>
      </trkpt>
      <trkpt lat="50.23109" lon="4.90657">
        <ele>156</ele>
        <time>2026-08-25T12:04:53+00:00</time>
      </trkpt>
      <trkpt lat="50.2311" lon="4.90627">
        <ele>157</ele>
        <time>2026-08-25T12:04:56+00:00</time>
      </trkpt>
      <trkpt lat="50.23102" lon="4.90596">
        <ele>158</ele>
        <time>2026-08-25T12:04:59+00:00</time>
      </trkpt>
      <trkpt lat="50.23097" lon="4.90563">
        <ele>161</ele>
        <time>2026-08-25T12:05:02+00:00</time>
      </trkpt>
      <trkpt lat="50.23091" lon="4.90529">
        <ele>163</ele>
        <time>2026-08-25T12:05:05+00:00</time>
      </trkpt>
      <trkpt lat="50.23071" lon="4.90495">
        <ele>164</ele>
        <time>2026-08-25T12:05:08+00:00</time>
      </trkpt>
      <trkpt lat="50.23056" lon="4.90476">
        <ele>162</ele>
        <time>2026-08-25T12:05:11+00:00</time>
      </trkpt>
      <trkpt lat="50.23036" lon="4.90439">
        <ele>161</ele>
        <time>2026-08-25T12:05:14+00:00</time>
      </trkpt>
      <trkpt lat="50.23029" lon="4.90391">
        <ele>160</ele>
        <time>2026-08-25T12:05:17+00:00</time>
      </trkpt>
      <trkpt lat="50.2303" lon="4.90372">
        <ele>159</ele>
        <time>2026-08-25T12:05:20+00:00</time>
      </trkpt>
      <trkpt lat="50.2303" lon="4.90333">
        <ele>159</ele>
        <time>2026-08-25T12:05:23+00:00</time>
      </trkpt>
      <trkpt lat="50.23027" lon="4.903">
        <ele>159</ele>
        <time>2026-08-25T12:05:26+00:00</time>
      </trkpt>
      <trkpt lat="50.23004" lon="4.90245">
        <ele>160</ele>
        <time>2026-08-25T12:05:29+00:00</time>
      </trkpt>
      <trkpt lat="50.23008" lon="4.90204">
        <ele>160</ele>
        <time>2026-08-25T12:05:32+00:00</time>
      </trkpt>
      <trkpt lat="50.23016" lon="4.90197">
        <ele>160</ele>
        <time>2026-08-25T12:05:35+00:00</time>
      </trkpt>
      <trkpt lat="50.23036" lon="4.90189">
        <ele>161</ele>
        <time>2026-08-25T12:05:38+00:00</time>
      </trkpt>
      <trkpt lat="50.23059" lon="4.90172">
        <ele>160</ele>
        <time>2026-08-25T12:05:41+00:00</time>
      </trkpt>
      <trkpt lat="50.23057" lon="4.9015">
        <ele>161</ele>
        <time>2026-08-25T12:05:44+00:00</time>
      </trkpt>
      <trkpt lat="50.23046" lon="4.90124">
        <ele>159</ele>
        <time>2026-08-25T12:05:47+00:00</time>
      </trkpt>
      <trkpt lat="50.23027" lon="4.90094">
        <ele>158</ele>
        <time>2026-08-25T12:05:50+00:00</time>
      </trkpt>
      <trkpt lat="50.23007" lon="4.90047">
        <ele>155</ele>
        <time>2026-08-25T12:05:53+00:00</time>
      </trkpt>
      <trkpt lat="50.23016" lon="4.90038">
        <ele>147</ele>
        <time>2026-08-25T12:05:56+00:00</time>
      </trkpt>
      <trkpt lat="50.23043" lon="4.9003">
        <ele>153</ele>
        <time>2026-08-25T12:05:59+00:00</time>
      </trkpt>
      <trkpt lat="50.23076" lon="4.90042">
        <ele>153</ele>
        <time>2026-08-25T12:06:02+00:00</time>
      </trkpt>
      <trkpt lat="50.2309" lon="4.90036">
        <ele>148</ele>
        <time>2026-08-25T12:06:05+00:00</time>
      </trkpt>
      <trkpt lat="50.23106" lon="4.90018">
        <ele>150</ele>
        <time>2026-08-25T12:06:08+00:00</time>
      </trkpt>
      <trkpt lat="50.23106" lon="4.90025">
        <ele>140</ele>
        <time>2026-08-25T12:06:11+00:00</time>
      </trkpt>
      <trkpt lat="50.23109" lon="4.90045">
        <ele>147</ele>
        <time>2026-08-25T12:06:14+00:00</time>
      </trkpt>
      <trkpt lat="50.23113" lon="4.90064">
        <ele>145</ele>
        <time>2026-08-25T12:06:17+00:00</time>
      </trkpt>
      <trkpt lat="50.23121" lon="4.90091">
        <ele>144</ele>
        <time>2026-08-25T12:06:20+00:00</time>
      </trkpt>
      <trkpt lat="50.23131" lon="4.90121">
        <ele>144</ele>
        <time>2026-08-25T12:06:23+00:00</time>
      </trkpt>
      <trkpt lat="50.23142" lon="4.90152">
        <ele>145</ele>
        <time>2026-08-25T12:06:26+00:00</time>
      </trkpt>
      <trkpt lat="50.23162" lon="4.90204">
        <ele>146</ele>
        <time>2026-08-25T12:06:29+00:00</time>
      </trkpt>
      <trkpt lat="50.23183" lon="4.90254">
        <ele>149</ele>
        <time>2026-08-25T12:06:32+00:00</time>
      </trkpt>
      <trkpt lat="50.23208" lon="4.90305">
        <ele>151</ele>
        <time>2026-08-25T12:06:35+00:00</time>
      </trkpt>
      <trkpt lat="50.23223" lon="4.90326">
        <ele>151</ele>
        <time>2026-08-25T12:06:38+00:00</time>
      </trkpt>
      <trkpt lat="50.23225" lon="4.90332">
        <ele>152</ele>
        <time>2026-08-25T12:06:41+00:00</time>
      </trkpt>
      <trkpt lat="50.23246" lon="4.90353">
        <ele>150</ele>
        <time>2026-08-25T12:06:44+00:00</time>
      </trkpt>
      <trkpt lat="50.23263" lon="4.90368">
        <ele>150</ele>
        <time>2026-08-25T12:06:47+00:00</time>
      </trkpt>
      <trkpt lat="50.23283" lon="4.90382">
        <ele>150</ele>
        <time>2026-08-25T12:06:50+00:00</time>
      </trkpt>
      <trkpt lat="50.23292" lon="4.90393">
        <ele>149</ele>
        <time>2026-08-25T12:06:53+00:00</time>
      </trkpt>
      <trkpt lat="50.23306" lon="4.90416">
        <ele>150</ele>
        <time>2026-08-25T12:06:56+00:00</time>
      </trkpt>
      <trkpt lat="50.23315" lon="4.90435">
        <ele>151</ele>
        <time>2026-08-25T12:06:59+00:00</time>
      </trkpt>
      <trkpt lat="50.23337" lon="4.90422">
        <ele>145</ele>
        <time>2026-08-25T12:07:02+00:00</time>
      </trkpt>
      <trkpt lat="50.2336" lon="4.90443">
        <ele>142</ele>
        <time>2026-08-25T12:07:05+00:00</time>
      </trkpt>
      <trkpt lat="50.23397" lon="4.90476">
        <ele>139</ele>
        <time>2026-08-25T12:07:08+00:00</time>
      </trkpt>
      <trkpt lat="50.23412" lon="4.90488">
        <ele>135</ele>
        <time>2026-08-25T12:07:11+00:00</time>
      </trkpt>
      <trkpt lat="50.23418" lon="4.90503">
        <ele>137</ele>
        <time>2026-08-25T12:07:14+00:00</time>
      </trkpt>
      <trkpt lat="50.23422" lon="4.9053">
        <ele>137</ele>
        <time>2026-08-25T12:07:17+00:00</time>
      </trkpt>
      <trkpt lat="50.2343" lon="4.9055">
        <ele>139</ele>
        <time>2026-08-25T12:07:20+00:00</time>
      </trkpt>
      <trkpt lat="50.23437" lon="4.90559">
        <ele>137</ele>
        <time>2026-08-25T12:07:23+00:00</time>
      </trkpt>
      <trkpt lat="50.2345" lon="4.90547">
        <ele>134</ele>
        <time>2026-08-25T12:07:26+00:00</time>
      </trkpt>
      <trkpt lat="50.23466" lon="4.90554">
        <ele>131</ele>
        <time>2026-08-25T12:07:29+00:00</time>
      </trkpt>
      <trkpt lat="50.2348" lon="4.90563">
        <ele>128</ele>
        <time>2026-08-25T12:07:32+00:00</time>
      </trkpt>
      <trkpt lat="50.23493" lon="4.90575">
        <ele>131</ele>
        <time>2026-08-25T12:07:35+00:00</time>
      </trkpt>
      <trkpt lat="50.23501" lon="4.90589">
        <ele>128</ele>
        <time>2026-08-25T12:07:38+00:00</time>
      </trkpt>
      <trkpt lat="50.23509" lon="4.90601">
        <ele>131</ele>
        <time>2026-08-25T12:07:41+00:00</time>
      </trkpt>
      <trkpt lat="50.23517" lon="4.90623">
        <ele>133</ele>
        <time>2026-08-25T12:07:44+00:00</time>
      </trkpt>
      <trkpt lat="50.23524" lon="4.90631">
        <ele>133</ele>
        <time>2026-08-25T12:07:47+00:00</time>
      </trkpt>
      <trkpt lat="50.2355" lon="4.90667">
        <ele>133</ele>
        <time>2026-08-25T12:07:50+00:00</time>
      </trkpt>
      <trkpt lat="50.23583" lon="4.90692">
        <ele>133</ele>
        <time>2026-08-25T12:07:53+00:00</time>
      </trkpt>
      <trkpt lat="50.23598" lon="4.90728">
        <ele>133</ele>
        <time>2026-08-25T12:07:56+00:00</time>
      </trkpt>
      <trkpt lat="50.23624" lon="4.90791">
        <ele>134</ele>
        <time>2026-08-25T12:07:59+00:00</time>
      </trkpt>
      <trkpt lat="50.23639" lon="4.90824">
        <ele>134</ele>
        <time>2026-08-25T12:08:02+00:00</time>
      </trkpt>
      <trkpt lat="50.23639" lon="4.90836">
        <ele>134</ele>
        <time>2026-08-25T12:08:05+00:00</time>
      </trkpt>
      <trkpt lat="50.23647" lon="4.90851">
        <ele>134</ele>
        <time>2026-08-25T12:08:08+00:00</time>
      </trkpt>
      <trkpt lat="50.23661" lon="4.90887">
        <ele>131</ele>
        <time>2026-08-25T12:08:11+00:00</time>
      </trkpt>
      <trkpt lat="50.23666" lon="4.90898">
        <ele>131</ele>
        <time>2026-08-25T12:08:14+00:00</time>
      </trkpt>
      <trkpt lat="50.2368" lon="4.90917">
        <ele>128</ele>
        <time>2026-08-25T12:08:17+00:00</time>
      </trkpt>
      <trkpt lat="50.23696" lon="4.90939">
        <ele>128</ele>
        <time>2026-08-25T12:08:20+00:00</time>
      </trkpt>
      <trkpt lat="50.23728" lon="4.90976">
        <ele>123</ele>
        <time>2026-08-25T12:08:23+00:00</time>
      </trkpt>
      <trkpt lat="50.23746" lon="4.91">
        <ele>120</ele>
        <time>2026-08-25T12:08:26+00:00</time>
      </trkpt>
      <trkpt lat="50.23769" lon="4.91029">
        <ele>117</ele>
        <time>2026-08-25T12:08:29+00:00</time>
      </trkpt>
      <trkpt lat="50.23781" lon="4.91043">
        <ele>114</ele>
        <time>2026-08-25T12:08:32+00:00</time>
      </trkpt>
      <trkpt lat="50.23783" lon="4.91034">
        <ele>113</ele>
        <time>2026-08-25T12:08:35+00:00</time>
      </trkpt>
      <trkpt lat="50.23785" lon="4.91015">
        <ele>112</ele>
        <time>2026-08-25T12:08:38+00:00</time>
      </trkpt>
      <trkpt lat="50.23785" lon="4.90996">
        <ele>111</ele>
        <time>2026-08-25T12:08:41+00:00</time>
      </trkpt>
      <trkpt lat="50.23786" lon="4.90993">
        <ele>111</ele>
        <time>2026-08-25T12:08:44+00:00</time>
      </trkpt>
      <trkpt lat="50.23792" lon="4.90995">
        <ele>109</ele>
        <time>2026-08-25T12:08:47+00:00</time>
      </trkpt>
      <trkpt lat="50.23803" lon="4.91007">
        <ele>106</ele>
        <time>2026-08-25T12:08:50+00:00</time>
      </trkpt>
      <trkpt lat="50.23804" lon="4.91005">
        <ele>106</ele>
        <time>2026-08-25T12:08:53+00:00</time>
      </trkpt>
      <trkpt lat="50.23802" lon="4.90984">
        <ele>104</ele>
        <time>2026-08-25T12:08:56+00:00</time>
      </trkpt>
      <trkpt lat="50.23817" lon="4.91006">
        <ele>104</ele>
        <time>2026-08-25T12:08:59+00:00</time>
      </trkpt>
      <trkpt lat="50.23807" lon="4.9098">
        <ele>104</ele>
        <time>2026-08-25T12:09:02+00:00</time>
      </trkpt>
      <trkpt lat="50.23805" lon="4.90969">
        <ele>101</ele>
        <time>2026-08-25T12:09:05+00:00</time>
      </trkpt>
      <trkpt lat="50.23806" lon="4.90961">
        <ele>101</ele>
        <time>2026-08-25T12:09:08+00:00</time>
      </trkpt>
      <trkpt lat="50.23817" lon="4.90929">
        <ele>96</ele>
        <time>2026-08-25T12:09:11+00:00</time>
      </trkpt>
      <trkpt lat="50.2382" lon="4.90918">
        <ele>92</ele>
        <time>2026-08-25T12:09:14+00:00</time>
      </trkpt>
      <trkpt lat="50.23821" lon="4.909">
        <ele>92</ele>
        <time>2026-08-25T12:09:17+00:00</time>
      </trkpt>
      <trkpt lat="50.23827" lon="4.90852">
        <ele>92</ele>
        <time>2026-08-25T12:09:20+00:00</time>
      </trkpt>
      <trkpt lat="50.23831" lon="4.90818">
        <ele>92</ele>
        <time>2026-08-25T12:09:23+00:00</time>
      </trkpt>
      <trkpt lat="50.23835" lon="4.90781">
        <ele>92</ele>
        <time>2026-08-25T12:09:26+00:00</time>
      </trkpt>
      <trkpt lat="50.23857" lon="4.90793">
        <ele>92</ele>
        <time>2026-08-25T12:09:29+00:00</time>
      </trkpt>
      <trkpt lat="50.23877" lon="4.90805">
        <ele>91</ele>
        <time>2026-08-25T12:09:32+00:00</time>
      </trkpt>
      <trkpt lat="50.23898" lon="4.90817">
        <ele>91</ele>
        <time>2026-08-25T12:09:35+00:00</time>
      </trkpt>
      <trkpt lat="50.23906" lon="4.90821">
        <ele>93</ele>
        <time>2026-08-25T12:09:38+00:00</time>
      </trkpt>
      <trkpt lat="50.23912" lon="4.90827">
        <ele>93</ele>
        <time>2026-08-25T12:09:41+00:00</time>
      </trkpt>
      <trkpt lat="50.23916" lon="4.90834">
        <ele>91</ele>
        <time>2026-08-25T12:09:44+00:00</time>
      </trkpt>
      <trkpt lat="50.2392" lon="4.90873">
        <ele>92</ele>
        <time>2026-08-25T12:09:47+00:00</time>
      </trkpt>
      <trkpt lat="50.2392" lon="4.90885">
        <ele>91</ele>
        <time>2026-08-25T12:09:50+00:00</time>
      </trkpt>
      <trkpt lat="50.23924" lon="4.90932">
        <ele>92</ele>
        <time>2026-08-25T12:09:53+00:00</time>
      </trkpt>
      <trkpt lat="50.23931" lon="4.9093">
        <ele>92</ele>
        <time>2026-08-25T12:09:56+00:00</time>
      </trkpt>
      <trkpt lat="50.23951" lon="4.90926">
        <ele>91</ele>
        <time>2026-08-25T12:09:59+00:00</time>
      </trkpt>
      <trkpt lat="50.23974" lon="4.90922">
        <ele>91</ele>
        <time>2026-08-25T12:10:02+00:00</time>
      </trkpt>
      <trkpt lat="50.2399" lon="4.90918">
        <ele>91</ele>
        <time>2026-08-25T12:10:05+00:00</time>
      </trkpt>
      <trkpt lat="50.23997" lon="4.90917">
        <ele>91</ele>
        <time>2026-08-25T12:10:08+00:00</time>
      </trkpt>
      <trkpt lat="50.23998" lon="4.90915">
        <ele>91</ele>
        <time>2026-08-25T12:10:11+00:00</time>
      </trkpt>
      <trkpt lat="50.24004" lon="4.9091">
        <ele>91</ele>
        <time>2026-08-25T12:10:14+00:00</time>
      </trkpt>
      <trkpt lat="50.2401" lon="4.90913">
        <ele>91</ele>
        <time>2026-08-25T12:10:17+00:00</time>
      </trkpt>
      <trkpt lat="50.24026" lon="4.90908">
        <ele>93</ele>
        <time>2026-08-25T12:10:20+00:00</time>
      </trkpt>
      <trkpt lat="50.24032" lon="4.90884">
        <ele>94</ele>
        <time>2026-08-25T12:10:23+00:00</time>
      </trkpt>
      <trkpt lat="50.24036" lon="4.90879">
        <ele>94</ele>
        <time>2026-08-25T12:10:26+00:00</time>
      </trkpt>
      <trkpt lat="50.24045" lon="4.909">
        <ele>95</ele>
        <time>2026-08-25T12:10:29+00:00</time>
      </trkpt>
      <trkpt lat="50.24052" lon="4.90933">
        <ele>96</ele>
        <time>2026-08-25T12:10:32+00:00</time>
      </trkpt>
      <trkpt lat="50.24056" lon="4.91">
        <ele>96</ele>
        <time>2026-08-25T12:10:35+00:00</time>
      </trkpt>
      <trkpt lat="50.24057" lon="4.91047">
        <ele>95</ele>
        <time>2026-08-25T12:10:38+00:00</time>
      </trkpt>
      <trkpt lat="50.24059" lon="4.91093">
        <ele>95</ele>
        <time>2026-08-25T12:10:41+00:00</time>
      </trkpt>
      <trkpt lat="50.24061" lon="4.91151">
        <ele>95</ele>
        <time>2026-08-25T12:10:44+00:00</time>
      </trkpt>
      <trkpt lat="50.24063" lon="4.91185">
        <ele>96</ele>
        <time>2026-08-25T12:10:47+00:00</time>
      </trkpt>
      <trkpt lat="50.24066" lon="4.91219">
        <ele>96</ele>
        <time>2026-08-25T12:10:50+00:00</time>
      </trkpt>
      <trkpt lat="50.24069" lon="4.91243">
        <ele>95</ele>
        <time>2026-08-25T12:10:53+00:00</time>
      </trkpt>
      <trkpt lat="50.24073" lon="4.91239">
        <ele>96</ele>
        <time>2026-08-25T12:10:56+00:00</time>
      </trkpt>
      <trkpt lat="50.24075" lon="4.91246">
        <ele>96</ele>
        <time>2026-08-25T12:10:59+00:00</time>
      </trkpt>
      <trkpt lat="50.24084" lon="4.91261">
        <ele>98</ele>
        <time>2026-08-25T12:11:02+00:00</time>
      </trkpt>
      <trkpt lat="50.24085" lon="4.91268">
        <ele>98</ele>
        <time>2026-08-25T12:11:05+00:00</time>
      </trkpt>
      <trkpt lat="50.24085" lon="4.91278">
        <ele>98</ele>
        <time>2026-08-25T12:11:08+00:00</time>
      </trkpt>
      <trkpt lat="50.24086" lon="4.91281">
        <ele>97</ele>
        <time>2026-08-25T12:11:11+00:00</time>
      </trkpt>
      <trkpt lat="50.24089" lon="4.91284">
        <ele>97</ele>
        <time>2026-08-25T12:11:14+00:00</time>
      </trkpt>
      <trkpt lat="50.24096" lon="4.91247">
        <ele>98</ele>
        <time>2026-08-25T12:11:17+00:00</time>
      </trkpt>
      <trkpt lat="50.241" lon="4.91244">
        <ele>98</ele>
        <time>2026-08-25T12:11:20+00:00</time>
      </trkpt>
      <trkpt lat="50.24119" lon="4.9124">
        <ele>100</ele>
        <time>2026-08-25T12:11:23+00:00</time>
      </trkpt>
      <trkpt lat="50.24122" lon="4.9124">
        <ele>111</ele>
        <time>2026-08-25T12:11:26+00:00</time>
      </trkpt>
      <trkpt lat="50.24126" lon="4.9128">
        <ele>104</ele>
        <time>2026-08-25T12:11:29+00:00</time>
      </trkpt>
      <trkpt lat="50.24133" lon="4.91346">
        <ele>108</ele>
        <time>2026-08-25T12:11:32+00:00</time>
      </trkpt>
      <trkpt lat="50.2414" lon="4.91401">
        <ele>108</ele>
        <time>2026-08-25T12:11:35+00:00</time>
      </trkpt>
      <trkpt lat="50.24148" lon="4.91438">
        <ele>108</ele>
        <time>2026-08-25T12:11:38+00:00</time>
      </trkpt>
      <trkpt lat="50.24159" lon="4.91488">
        <ele>107</ele>
        <time>2026-08-25T12:11:41+00:00</time>
      </trkpt>
      <trkpt lat="50.24177" lon="4.91532">
        <ele>112</ele>
        <time>2026-08-25T12:11:44+00:00</time>
      </trkpt>
      <trkpt lat="50.24193" lon="4.91557">
        <ele>114</ele>
        <time>2026-08-25T12:11:47+00:00</time>
      </trkpt>
      <trkpt lat="50.24211" lon="4.91583">
        <ele>113</ele>
        <time>2026-08-25T12:11:50+00:00</time>
      </trkpt>
      <trkpt lat="50.24234" lon="4.91616">
        <ele>113</ele>
        <time>2026-08-25T12:11:53+00:00</time>
      </trkpt>
      <trkpt lat="50.24264" lon="4.91664">
        <ele>111</ele>
        <time>2026-08-25T12:11:56+00:00</time>
      </trkpt>
      <trkpt lat="50.24282" lon="4.91686">
        <ele>110</ele>
        <time>2026-08-25T12:11:59+00:00</time>
      </trkpt>
      <trkpt lat="50.24303" lon="4.91712">
        <ele>108</ele>
        <time>2026-08-25T12:12:02+00:00</time>
      </trkpt>
      <trkpt lat="50.24323" lon="4.91731">
        <ele>106</ele>
        <time>2026-08-25T12:12:05+00:00</time>
      </trkpt>
      <trkpt lat="50.24349" lon="4.91756">
        <ele>103</ele>
        <time>2026-08-25T12:12:08+00:00</time>
      </trkpt>
      <trkpt lat="50.24384" lon="4.91771">
        <ele>102</ele>
        <time>2026-08-25T12:12:11+00:00</time>
      </trkpt>
      <trkpt lat="50.24411" lon="4.91774">
        <ele>101</ele>
        <time>2026-08-25T12:12:14+00:00</time>
      </trkpt>
      <trkpt lat="50.24454" lon="4.91778">
        <ele>99</ele>
        <time>2026-08-25T12:12:17+00:00</time>
      </trkpt>
      <trkpt lat="50.2447" lon="4.91763">
        <ele>99</ele>
        <time>2026-08-25T12:12:20+00:00</time>
      </trkpt>
      <trkpt lat="50.24495" lon="4.91765">
        <ele>99</ele>
        <time>2026-08-25T12:12:23+00:00</time>
      </trkpt>
      <trkpt lat="50.24509" lon="4.9177">
        <ele>98</ele>
        <time>2026-08-25T12:12:26+00:00</time>
      </trkpt>
      <trkpt lat="50.24514" lon="4.91766">
        <ele>98</ele>
        <time>2026-08-25T12:12:29+00:00</time>
      </trkpt>
      <trkpt lat="50.2452" lon="4.91763">
        <ele>96</ele>
        <time>2026-08-25T12:12:32+00:00</time>
      </trkpt>
      <trkpt lat="50.24544" lon="4.91757">
        <ele>98</ele>
        <time>2026-08-25T12:12:35+00:00</time>
      </trkpt>
      <trkpt lat="50.24584" lon="4.91746">
        <ele>98</ele>
        <time>2026-08-25T12:12:38+00:00</time>
      </trkpt>
      <trkpt lat="50.24593" lon="4.91743">
        <ele>99</ele>
        <time>2026-08-25T12:12:41+00:00</time>
      </trkpt>
      <trkpt lat="50.24605" lon="4.91738">
        <ele>98</ele>
        <time>2026-08-25T12:12:44+00:00</time>
      </trkpt>
      <trkpt lat="50.24632" lon="4.91724">
        <ele>98</ele>
        <time>2026-08-25T12:12:47+00:00</time>
      </trkpt>
      <trkpt lat="50.24635" lon="4.91718">
        <ele>99</ele>
        <time>2026-08-25T12:12:50+00:00</time>
      </trkpt>
      <trkpt lat="50.24637" lon="4.91712">
        <ele>99</ele>
        <time>2026-08-25T12:12:53+00:00</time>
      </trkpt>
      <trkpt lat="50.24636" lon="4.91705">
        <ele>101</ele>
        <time>2026-08-25T12:12:56+00:00</time>
      </trkpt>
      <trkpt lat="50.2463" lon="4.91675">
        <ele>102</ele>
        <time>2026-08-25T12:12:59+00:00</time>
      </trkpt>
      <trkpt lat="50.24629" lon="4.91663">
        <ele>103</ele>
        <time>2026-08-25T12:13:02+00:00</time>
      </trkpt>
      <trkpt lat="50.24629" lon="4.91654">
        <ele>104</ele>
        <time>2026-08-25T12:13:05+00:00</time>
      </trkpt>
      <trkpt lat="50.24631" lon="4.91645">
        <ele>105</ele>
        <time>2026-08-25T12:13:08+00:00</time>
      </trkpt>
      <trkpt lat="50.24636" lon="4.91636">
        <ele>106</ele>
        <time>2026-08-25T12:13:11+00:00</time>
      </trkpt>
      <trkpt lat="50.24643" lon="4.9163">
        <ele>106</ele>
        <time>2026-08-25T12:13:14+00:00</time>
      </trkpt>
      <trkpt lat="50.24662" lon="4.91612">
        <ele>107</ele>
        <time>2026-08-25T12:13:17+00:00</time>
      </trkpt>
      <trkpt lat="50.24696" lon="4.91579">
        <ele>109</ele>
        <time>2026-08-25T12:13:20+00:00</time>
      </trkpt>
      <trkpt lat="50.24712" lon="4.91572">
        <ele>110</ele>
        <time>2026-08-25T12:13:23+00:00</time>
      </trkpt>
      <trkpt lat="50.24726" lon="4.91563">
        <ele>111</ele>
        <time>2026-08-25T12:13:26+00:00</time>
      </trkpt>
      <trkpt lat="50.24741" lon="4.91552">
        <ele>111</ele>
        <time>2026-08-25T12:13:29+00:00</time>
      </trkpt>
      <trkpt lat="50.24763" lon="4.91542">
        <ele>112</ele>
        <time>2026-08-25T12:13:32+00:00</time>
      </trkpt>
      <trkpt lat="50.24789" lon="4.91531">
        <ele>112</ele>
        <time>2026-08-25T12:13:35+00:00</time>
      </trkpt>
      <trkpt lat="50.24801" lon="4.91523">
        <ele>111</ele>
        <time>2026-08-25T12:13:38+00:00</time>
      </trkpt>
      <trkpt lat="50.24802" lon="4.9152">
        <ele>114</ele>
        <time>2026-08-25T12:13:41+00:00</time>
      </trkpt>
      <trkpt lat="50.2481" lon="4.91515">
        <ele>112</ele>
        <time>2026-08-25T12:13:44+00:00</time>
      </trkpt>
      <trkpt lat="50.24832" lon="4.91508">
        <ele>112</ele>
        <time>2026-08-25T12:13:47+00:00</time>
      </trkpt>
      <trkpt lat="50.24855" lon="4.91501">
        <ele>109</ele>
        <time>2026-08-25T12:13:50+00:00</time>
      </trkpt>
      <trkpt lat="50.24872" lon="4.915">
        <ele>108</ele>
        <time>2026-08-25T12:13:53+00:00</time>
      </trkpt>
      <trkpt lat="50.24884" lon="4.91505">
        <ele>105</ele>
        <time>2026-08-25T12:13:56+00:00</time>
      </trkpt>
      <trkpt lat="50.24884" lon="4.91506">
        <ele>105</ele>
        <time>2026-08-25T12:13:59+00:00</time>
      </trkpt>
      <trkpt lat="50.24922" lon="4.91503">
        <ele>104</ele>
        <time>2026-08-25T12:14:02+00:00</time>
      </trkpt>
      <trkpt lat="50.24948" lon="4.91493">
        <ele>104</ele>
        <time>2026-08-25T12:14:05+00:00</time>
      </trkpt>
      <trkpt lat="50.24989" lon="4.91478">
        <ele>105</ele>
        <time>2026-08-25T12:14:08+00:00</time>
      </trkpt>
      <trkpt lat="50.25002" lon="4.91469">
        <ele>106</ele>
        <time>2026-08-25T12:14:11+00:00</time>
      </trkpt>
      <trkpt lat="50.25019" lon="4.9145">
        <ele>107</ele>
        <time>2026-08-25T12:14:14+00:00</time>
      </trkpt>
      <trkpt lat="50.2505" lon="4.91437">
        <ele>110</ele>
        <time>2026-08-25T12:14:17+00:00</time>
      </trkpt>
      <trkpt lat="50.25071" lon="4.91437">
        <ele>113</ele>
        <time>2026-08-25T12:14:20+00:00</time>
      </trkpt>
      <trkpt lat="50.25082" lon="4.91424">
        <ele>111</ele>
        <time>2026-08-25T12:14:23+00:00</time>
      </trkpt>
      <trkpt lat="50.25088" lon="4.91414">
        <ele>114</ele>
        <time>2026-08-25T12:14:26+00:00</time>
      </trkpt>
      <trkpt lat="50.25107" lon="4.91397">
        <ele>112</ele>
        <time>2026-08-25T12:14:29+00:00</time>
      </trkpt>
      <trkpt lat="50.25118" lon="4.91379">
        <ele>114</ele>
        <time>2026-08-25T12:14:32+00:00</time>
      </trkpt>
      <trkpt lat="50.25127" lon="4.91361">
        <ele>112</ele>
        <time>2026-08-25T12:14:35+00:00</time>
      </trkpt>
      <trkpt lat="50.25136" lon="4.91341">
        <ele>113</ele>
        <time>2026-08-25T12:14:38+00:00</time>
      </trkpt>
      <trkpt lat="50.25159" lon="4.91323">
        <ele>124</ele>
        <time>2026-08-25T12:14:41+00:00</time>
      </trkpt>
      <trkpt lat="50.25193" lon="4.91296">
        <ele>127</ele>
        <time>2026-08-25T12:14:44+00:00</time>
      </trkpt>
      <trkpt lat="50.25206" lon="4.91284">
        <ele>127</ele>
        <time>2026-08-25T12:14:47+00:00</time>
      </trkpt>
      <trkpt lat="50.25232" lon="4.91276">
        <ele>127</ele>
        <time>2026-08-25T12:14:50+00:00</time>
      </trkpt>
      <trkpt lat="50.25257" lon="4.91268">
        <ele>126</ele>
        <time>2026-08-25T12:14:53+00:00</time>
      </trkpt>
      <trkpt lat="50.25294" lon="4.91256">
        <ele>126</ele>
        <time>2026-08-25T12:14:56+00:00</time>
      </trkpt>
      <trkpt lat="50.25311" lon="4.91244">
        <ele>129</ele>
        <time>2026-08-25T12:14:59+00:00</time>
      </trkpt>
      <trkpt lat="50.25333" lon="4.91204">
        <ele>132</ele>
        <time>2026-08-25T12:15:02+00:00</time>
      </trkpt>
      <trkpt lat="50.25332" lon="4.91192">
        <ele>134</ele>
        <time>2026-08-25T12:15:05+00:00</time>
      </trkpt>
      <trkpt lat="50.25336" lon="4.91181">
        <ele>136</ele>
        <time>2026-08-25T12:15:08+00:00</time>
      </trkpt>
      <trkpt lat="50.2534" lon="4.91178">
        <ele>138</ele>
        <time>2026-08-25T12:15:11+00:00</time>
      </trkpt>
      <trkpt lat="50.25343" lon="4.91174">
        <ele>137</ele>
        <time>2026-08-25T12:15:14+00:00</time>
      </trkpt>
      <trkpt lat="50.25351" lon="4.91168">
        <ele>138</ele>
        <time>2026-08-25T12:15:17+00:00</time>
      </trkpt>
      <trkpt lat="50.25362" lon="4.91165">
        <ele>138</ele>
        <time>2026-08-25T12:15:20+00:00</time>
      </trkpt>
      <trkpt lat="50.25385" lon="4.9116">
        <ele>133</ele>
        <time>2026-08-25T12:15:23+00:00</time>
      </trkpt>
      <trkpt lat="50.25414" lon="4.91154">
        <ele>131</ele>
        <time>2026-08-25T12:15:26+00:00</time>
      </trkpt>
      <trkpt lat="50.2544" lon="4.91154">
        <ele>127</ele>
        <time>2026-08-25T12:15:29+00:00</time>
      </trkpt>
      <trkpt lat="50.2548" lon="4.91154">
        <ele>126</ele>
        <time>2026-08-25T12:15:32+00:00</time>
      </trkpt>
      <trkpt lat="50.25511" lon="4.91157">
        <ele>124</ele>
        <time>2026-08-25T12:15:35+00:00</time>
      </trkpt>
      <trkpt lat="50.25542" lon="4.91159">
        <ele>122</ele>
        <time>2026-08-25T12:15:38+00:00</time>
      </trkpt>
      <trkpt lat="50.25593" lon="4.91164">
        <ele>115</ele>
        <time>2026-08-25T12:15:41+00:00</time>
      </trkpt>
      <trkpt lat="50.25616" lon="4.91156">
        <ele>115</ele>
        <time>2026-08-25T12:15:44+00:00</time>
      </trkpt>
      <trkpt lat="50.25644" lon="4.91147">
        <ele>113</ele>
        <time>2026-08-25T12:15:47+00:00</time>
      </trkpt>
      <trkpt lat="50.25657" lon="4.91139">
        <ele>114</ele>
        <time>2026-08-25T12:15:50+00:00</time>
      </trkpt>
      <trkpt lat="50.25664" lon="4.91133">
        <ele>113</ele>
        <time>2026-08-25T12:15:53+00:00</time>
      </trkpt>
      <trkpt lat="50.25678" lon="4.91125">
        <ele>114</ele>
        <time>2026-08-25T12:15:56+00:00</time>
      </trkpt>
      <trkpt lat="50.25691" lon="4.9112">
        <ele>113</ele>
        <time>2026-08-25T12:15:59+00:00</time>
      </trkpt>
      <trkpt lat="50.25711" lon="4.9111">
        <ele>113</ele>
        <time>2026-08-25T12:16:02+00:00</time>
      </trkpt>
      <trkpt lat="50.25718" lon="4.91105">
        <ele>115</ele>
        <time>2026-08-25T12:16:05+00:00</time>
      </trkpt>
      <trkpt lat="50.25724" lon="4.91094">
        <ele>116</ele>
        <time>2026-08-25T12:16:08+00:00</time>
      </trkpt>
      <trkpt lat="50.2573" lon="4.91093">
        <ele>116</ele>
        <time>2026-08-25T12:16:11+00:00</time>
      </trkpt>
      <trkpt lat="50.25765" lon="4.91077">
        <ele>114</ele>
        <time>2026-08-25T12:16:14+00:00</time>
      </trkpt>
      <trkpt lat="50.25802" lon="4.91059">
        <ele>113</ele>
        <time>2026-08-25T12:16:17+00:00</time>
      </trkpt>
      <trkpt lat="50.25835" lon="4.91041">
        <ele>108</ele>
        <time>2026-08-25T12:16:20+00:00</time>
      </trkpt>
      <trkpt lat="50.25842" lon="4.91033">
        <ele>106</ele>
        <time>2026-08-25T12:16:23+00:00</time>
      </trkpt>
      <trkpt lat="50.25855" lon="4.91013">
        <ele>110</ele>
        <time>2026-08-25T12:16:26+00:00</time>
      </trkpt>
      <trkpt lat="50.25838" lon="4.90989">
        <ele>112</ele>
        <time>2026-08-25T12:16:29+00:00</time>
      </trkpt>
      <trkpt lat="50.25819" lon="4.90962">
        <ele>112</ele>
        <time>2026-08-25T12:16:32+00:00</time>
      </trkpt>
      <trkpt lat="50.25799" lon="4.90929">
        <ele>112</ele>
        <time>2026-08-25T12:16:35+00:00</time>
      </trkpt>
      <trkpt lat="50.25788" lon="4.90904">
        <ele>112</ele>
        <time>2026-08-25T12:16:38+00:00</time>
      </trkpt>
      <trkpt lat="50.25789" lon="4.90907">
        <ele>112</ele>
        <time>2026-08-25T12:16:41+00:00</time>
      </trkpt>
      <trkpt lat="50.25813" lon="4.90911">
        <ele>105</ele>
        <time>2026-08-25T12:16:44+00:00</time>
      </trkpt>
      <trkpt lat="50.25836" lon="4.9092">
        <ele>103</ele>
        <time>2026-08-25T12:16:47+00:00</time>
      </trkpt>
      <trkpt lat="50.25865" lon="4.90932">
        <ele>102</ele>
        <time>2026-08-25T12:16:50+00:00</time>
      </trkpt>
      <trkpt lat="50.25885" lon="4.90943">
        <ele>100</ele>
        <time>2026-08-25T12:16:53+00:00</time>
      </trkpt>
      <trkpt lat="50.2591" lon="4.9096">
        <ele>104</ele>
        <time>2026-08-25T12:16:56+00:00</time>
      </trkpt>
      <trkpt lat="50.2592" lon="4.90949">
        <ele>104</ele>
        <time>2026-08-25T12:16:59+00:00</time>
      </trkpt>
      <trkpt lat="50.25941" lon="4.90919">
        <ele>108</ele>
        <time>2026-08-25T12:17:02+00:00</time>
      </trkpt>
      <trkpt lat="50.25958" lon="4.90899">
        <ele>112</ele>
        <time>2026-08-25T12:17:05+00:00</time>
      </trkpt>
      <trkpt lat="50.25976" lon="4.90878">
        <ele>111</ele>
        <time>2026-08-25T12:17:08+00:00</time>
      </trkpt>
      <trkpt lat="50.25971" lon="4.90872">
        <ele>114</ele>
        <time>2026-08-25T12:17:11+00:00</time>
      </trkpt>
      <trkpt lat="50.25948" lon="4.909">
        <ele>111</ele>
        <time>2026-08-25T12:17:14+00:00</time>
      </trkpt>
      <trkpt lat="50.25936" lon="4.90905">
        <ele>112</ele>
        <time>2026-08-25T12:17:17+00:00</time>
      </trkpt>
      <trkpt lat="50.25924" lon="4.90898">
        <ele>115</ele>
        <time>2026-08-25T12:17:20+00:00</time>
      </trkpt>
      <trkpt lat="50.25914" lon="4.90891">
        <ele>116</ele>
        <time>2026-08-25T12:17:23+00:00</time>
      </trkpt>
      <trkpt lat="50.25905" lon="4.90883">
        <ele>119</ele>
        <time>2026-08-25T12:17:26+00:00</time>
      </trkpt>
      <trkpt lat="50.25894" lon="4.90867">
        <ele>124</ele>
        <time>2026-08-25T12:17:29+00:00</time>
      </trkpt>
      <trkpt lat="50.25888" lon="4.90864">
        <ele>124</ele>
        <time>2026-08-25T12:17:32+00:00</time>
      </trkpt>
      <trkpt lat="50.25879" lon="4.9085">
        <ele>129</ele>
        <time>2026-08-25T12:17:35+00:00</time>
      </trkpt>
      <trkpt lat="50.25862" lon="4.90821">
        <ele>133</ele>
        <time>2026-08-25T12:17:38+00:00</time>
      </trkpt>
      <trkpt lat="50.25861" lon="4.90816">
        <ele>135</ele>
        <time>2026-08-25T12:17:41+00:00</time>
      </trkpt>
      <trkpt lat="50.2585" lon="4.90786">
        <ele>142</ele>
        <time>2026-08-25T12:17:44+00:00</time>
      </trkpt>
      <trkpt lat="50.25825" lon="4.90763">
        <ele>145</ele>
        <time>2026-08-25T12:17:47+00:00</time>
      </trkpt>
      <trkpt lat="50.25819" lon="4.90746">
        <ele>149</ele>
        <time>2026-08-25T12:17:50+00:00</time>
      </trkpt>
      <trkpt lat="50.2582" lon="4.90722">
        <ele>154</ele>
        <time>2026-08-25T12:17:53+00:00</time>
      </trkpt>
      <trkpt lat="50.25818" lon="4.90698">
        <ele>162</ele>
        <time>2026-08-25T12:17:56+00:00</time>
      </trkpt>
      <trkpt lat="50.25824" lon="4.90695">
        <ele>154</ele>
        <time>2026-08-25T12:17:59+00:00</time>
      </trkpt>
      <trkpt lat="50.25825" lon="4.907">
        <ele>159</ele>
        <time>2026-08-25T12:18:02+00:00</time>
      </trkpt>
      <trkpt lat="50.25829" lon="4.90708">
        <ele>159</ele>
        <time>2026-08-25T12:18:05+00:00</time>
      </trkpt>
      <trkpt lat="50.25856" lon="4.9071">
        <ele>154</ele>
        <time>2026-08-25T12:18:08+00:00</time>
      </trkpt>
      <trkpt lat="50.25885" lon="4.90707">
        <ele>153</ele>
        <time>2026-08-25T12:18:11+00:00</time>
      </trkpt>
      <trkpt lat="50.25907" lon="4.907">
        <ele>152</ele>
        <time>2026-08-25T12:18:14+00:00</time>
      </trkpt>
      <trkpt lat="50.2593" lon="4.90692">
        <ele>148</ele>
        <time>2026-08-25T12:18:17+00:00</time>
      </trkpt>
      <trkpt lat="50.25939" lon="4.90693">
        <ele>146</ele>
        <time>2026-08-25T12:18:20+00:00</time>
      </trkpt>
      <trkpt lat="50.25948" lon="4.90699">
        <ele>141</ele>
        <time>2026-08-25T12:18:23+00:00</time>
      </trkpt>
      <trkpt lat="50.25946" lon="4.90699">
        <ele>141</ele>
        <time>2026-08-25T12:18:26+00:00</time>
      </trkpt>
      <trkpt lat="50.25923" lon="4.9071">
        <ele>141</ele>
        <time>2026-08-25T12:18:29+00:00</time>
      </trkpt>
      <trkpt lat="50.25892" lon="4.90726">
        <ele>143</ele>
        <time>2026-08-25T12:18:32+00:00</time>
      </trkpt>
      <trkpt lat="50.25887" lon="4.90729">
        <ele>145</ele>
        <time>2026-08-25T12:18:35+00:00</time>
      </trkpt>
    </trkseg>
  </trk>
</gpx>
